<?xml version="1.0" encoding="UTF-8" standalone="no" ?>
<gpx xmlns="http://www.topografix.com/GPX/1/1" xmlns:xsi="http://www.w3.org/2001/XMLSchema-instance" xsi:schemaLocation="http://www.topografix.com/GPX/1/1 http://www.topografix.com/GPX/1/1/gpx.xsd" version="1.1" creator="VisuGPX - https://www.visugpx.com">
  <metadata>
    <name>Chamechaude</name>
  </metadata>
  <trk>
    <name><![CDATA[260526-Chamechaude]]></name>
    <trkseg>
      <trkpt lat="45.28905" lon="5.76795">
        <ele>1324.1</ele>
        <time>2026-05-26T18:06:16</time>
      </trkpt>
      <trkpt lat="45.28904" lon="5.76798">
        <ele>1324.1</ele>
        <time>2026-05-26T18:06:17</time>
      </trkpt>
      <trkpt lat="45.28903" lon="5.768">
        <ele>1324.1</ele>
        <time>2026-05-26T18:06:18</time>
      </trkpt>
      <trkpt lat="45.28901" lon="5.76803">
        <ele>1327.5</ele>
        <time>2026-05-26T18:06:20</time>
      </trkpt>
      <trkpt lat="45.28896" lon="5.76806">
        <ele>1327.5</ele>
        <time>2026-05-26T18:06:24</time>
      </trkpt>
      <trkpt lat="45.28894" lon="5.76807">
        <ele>1327.5</ele>
        <time>2026-05-26T18:06:26</time>
      </trkpt>
      <trkpt lat="45.28894" lon="5.76807">
        <ele>1329.2</ele>
        <time>2026-05-26T18:06:27</time>
      </trkpt>
      <trkpt lat="45.28894" lon="5.76807">
        <ele>1329.2</ele>
        <time>2026-05-26T18:06:28</time>
      </trkpt>
      <trkpt lat="45.28895" lon="5.76806">
        <ele>1329.2</ele>
        <time>2026-05-26T18:06:29</time>
      </trkpt>
      <trkpt lat="45.28895" lon="5.76805">
        <ele>1329.2</ele>
        <time>2026-05-26T18:06:30</time>
      </trkpt>
      <trkpt lat="45.28895" lon="5.76805">
        <ele>1329.2</ele>
        <time>2026-05-26T18:06:30</time>
      </trkpt>
      <trkpt lat="45.28895" lon="5.76805">
        <ele>1329.2</ele>
        <time>2026-05-26T18:06:31</time>
      </trkpt>
      <trkpt lat="45.28895" lon="5.76805">
        <ele>1329.2</ele>
        <time>2026-05-26T18:06:32</time>
      </trkpt>
      <trkpt lat="45.28895" lon="5.76805">
        <ele>1329.2</ele>
        <time>2026-05-26T18:06:32</time>
      </trkpt>
      <trkpt lat="45.28894" lon="5.76806">
        <ele>1329.2</ele>
        <time>2026-05-26T18:06:33</time>
      </trkpt>
      <trkpt lat="45.28894" lon="5.76807">
        <ele>1329.4</ele>
        <time>2026-05-26T18:06:34</time>
      </trkpt>
      <trkpt lat="45.28892" lon="5.76807">
        <ele>1329.4</ele>
        <time>2026-05-26T18:06:35</time>
      </trkpt>
      <trkpt lat="45.28884" lon="5.76815">
        <ele>1329.4</ele>
        <time>2026-05-26T18:06:39</time>
      </trkpt>
      <trkpt lat="45.28882" lon="5.76817">
        <ele>1329.4</ele>
        <time>2026-05-26T18:06:40</time>
      </trkpt>
      <trkpt lat="45.28875" lon="5.76824">
        <ele>1328.1666</ele>
        <time>2026-05-26T18:06:43</time>
      </trkpt>
      <trkpt lat="45.28873" lon="5.76826">
        <ele>1328.1666</ele>
        <time>2026-05-26T18:06:44</time>
      </trkpt>
      <trkpt lat="45.28871" lon="5.76833">
        <ele>1328.1666</ele>
        <time>2026-05-26T18:06:47</time>
      </trkpt>
      <trkpt lat="45.28872" lon="5.76838">
        <ele>1329</ele>
        <time>2026-05-26T18:06:50</time>
      </trkpt>
      <trkpt lat="45.28872" lon="5.7684">
        <ele>1329</ele>
        <time>2026-05-26T18:06:51</time>
      </trkpt>
      <trkpt lat="45.28872" lon="5.76855">
        <ele>1328.5</ele>
        <time>2026-05-26T18:06:59</time>
      </trkpt>
      <trkpt lat="45.28868" lon="5.76895">
        <ele>1326.6</ele>
        <time>2026-05-26T18:07:20</time>
      </trkpt>
      <trkpt lat="45.28866" lon="5.76904">
        <ele>1326.6</ele>
        <time>2026-05-26T18:07:25</time>
      </trkpt>
      <trkpt lat="45.28866" lon="5.76906">
        <ele>1325.2</ele>
        <time>2026-05-26T18:07:26</time>
      </trkpt>
      <trkpt lat="45.28867" lon="5.76911">
        <ele>1325.2</ele>
        <time>2026-05-26T18:07:29</time>
      </trkpt>
      <trkpt lat="45.28868" lon="5.7692">
        <ele>1325.4</ele>
        <time>2026-05-26T18:07:35</time>
      </trkpt>
      <trkpt lat="45.28867" lon="5.76925">
        <ele>1325.4</ele>
        <time>2026-05-26T18:07:38</time>
      </trkpt>
      <trkpt lat="45.28864" lon="5.76944">
        <ele>1333.8</ele>
        <time>2026-05-26T18:07:51</time>
      </trkpt>
      <trkpt lat="45.2886" lon="5.76951">
        <ele>1337.4</ele>
        <time>2026-05-26T18:07:56</time>
      </trkpt>
      <trkpt lat="45.28858" lon="5.76953">
        <ele>1337.4</ele>
        <time>2026-05-26T18:07:57</time>
      </trkpt>
      <trkpt lat="45.28849" lon="5.76969">
        <ele>1338.2</ele>
        <time>2026-05-26T18:08:08</time>
      </trkpt>
      <trkpt lat="45.28847" lon="5.76975">
        <ele>1338.3667</ele>
        <time>2026-05-26T18:08:12</time>
      </trkpt>
      <trkpt lat="45.28843" lon="5.76985">
        <ele>1338.6666</ele>
        <time>2026-05-26T18:08:20</time>
      </trkpt>
      <trkpt lat="45.28839" lon="5.76991">
        <ele>1341</ele>
        <time>2026-05-26T18:08:24</time>
      </trkpt>
      <trkpt lat="45.28837" lon="5.76994">
        <ele>1341</ele>
        <time>2026-05-26T18:08:26</time>
      </trkpt>
      <trkpt lat="45.28836" lon="5.76997">
        <ele>1341</ele>
        <time>2026-05-26T18:08:28</time>
      </trkpt>
      <trkpt lat="45.28832" lon="5.77004">
        <ele>1344.1</ele>
        <time>2026-05-26T18:08:33</time>
      </trkpt>
      <trkpt lat="45.28825" lon="5.77022">
        <ele>1346.4</ele>
        <time>2026-05-26T18:08:47</time>
      </trkpt>
      <trkpt lat="45.28816" lon="5.77048">
        <ele>1347.8667</ele>
        <time>2026-05-26T18:09:05</time>
      </trkpt>
      <trkpt lat="45.28816" lon="5.77056">
        <ele>1348.2</ele>
        <time>2026-05-26T18:09:11</time>
      </trkpt>
      <trkpt lat="45.28816" lon="5.77061">
        <ele>1348.2</ele>
        <time>2026-05-26T18:09:15</time>
      </trkpt>
      <trkpt lat="45.28816" lon="5.77075">
        <ele>1349.5</ele>
        <time>2026-05-26T18:09:24</time>
      </trkpt>
      <trkpt lat="45.28816" lon="5.7708">
        <ele>1349.5</ele>
        <time>2026-05-26T18:09:27</time>
      </trkpt>
      <trkpt lat="45.28815" lon="5.77111">
        <ele>1356.6</ele>
        <time>2026-05-26T18:09:47</time>
      </trkpt>
      <trkpt lat="45.28815" lon="5.77117">
        <ele>1357</ele>
        <time>2026-05-26T18:09:50</time>
      </trkpt>
      <trkpt lat="45.28813" lon="5.77126">
        <ele>1357.3</ele>
        <time>2026-05-26T18:09:57</time>
      </trkpt>
      <trkpt lat="45.28813" lon="5.77127">
        <ele>1357.3</ele>
        <time>2026-05-26T18:09:58</time>
      </trkpt>
      <trkpt lat="45.28812" lon="5.77129">
        <ele>1357.3</ele>
        <time>2026-05-26T18:09:59</time>
      </trkpt>
      <trkpt lat="45.2881" lon="5.77131">
        <ele>1357.3</ele>
        <time>2026-05-26T18:10:01</time>
      </trkpt>
      <trkpt lat="45.28808" lon="5.77133">
        <ele>1357.3</ele>
        <time>2026-05-26T18:10:03</time>
      </trkpt>
      <trkpt lat="45.28802" lon="5.77143">
        <ele>1361</ele>
        <time>2026-05-26T18:10:11</time>
      </trkpt>
      <trkpt lat="45.28801" lon="5.77147">
        <ele>1361</ele>
        <time>2026-05-26T18:10:15</time>
      </trkpt>
      <trkpt lat="45.288" lon="5.77159">
        <ele>1362.0667</ele>
        <time>2026-05-26T18:10:23</time>
      </trkpt>
      <trkpt lat="45.28799" lon="5.77163">
        <ele>1364.3334</ele>
        <time>2026-05-26T18:10:27</time>
      </trkpt>
      <trkpt lat="45.28798" lon="5.77169">
        <ele>1364.3334</ele>
        <time>2026-05-26T18:10:32</time>
      </trkpt>
      <trkpt lat="45.28791" lon="5.77186">
        <ele>1365.1</ele>
        <time>2026-05-26T18:10:45</time>
      </trkpt>
      <trkpt lat="45.28789" lon="5.77192">
        <ele>1366.7</ele>
        <time>2026-05-26T18:10:50</time>
      </trkpt>
      <trkpt lat="45.28789" lon="5.77193">
        <ele>1366.7</ele>
        <time>2026-05-26T18:10:50</time>
      </trkpt>
      <trkpt lat="45.28788" lon="5.77196">
        <ele>1366.7</ele>
        <time>2026-05-26T18:10:53</time>
      </trkpt>
      <trkpt lat="45.28786" lon="5.77198">
        <ele>1367.8</ele>
        <time>2026-05-26T18:10:55</time>
      </trkpt>
      <trkpt lat="45.28775" lon="5.77223">
        <ele>1371.2667</ele>
        <time>2026-05-26T18:11:16</time>
      </trkpt>
      <trkpt lat="45.28769" lon="5.77236">
        <ele>1371.7</ele>
        <time>2026-05-26T18:11:25</time>
      </trkpt>
      <trkpt lat="45.28768" lon="5.77237">
        <ele>1371.7</ele>
        <time>2026-05-26T18:11:27</time>
      </trkpt>
      <trkpt lat="45.28766" lon="5.77239">
        <ele>1373.1</ele>
        <time>2026-05-26T18:11:29</time>
      </trkpt>
      <trkpt lat="45.28749" lon="5.77249">
        <ele>1375.8</ele>
        <time>2026-05-26T18:11:44</time>
      </trkpt>
      <trkpt lat="45.28747" lon="5.77251">
        <ele>1375.8</ele>
        <time>2026-05-26T18:11:46</time>
      </trkpt>
      <trkpt lat="45.28745" lon="5.77253">
        <ele>1375.8</ele>
        <time>2026-05-26T18:11:48</time>
      </trkpt>
      <trkpt lat="45.28739" lon="5.77261">
        <ele>1376.6</ele>
        <time>2026-05-26T18:11:55</time>
      </trkpt>
      <trkpt lat="45.28738" lon="5.77264">
        <ele>1376.6</ele>
        <time>2026-05-26T18:11:58</time>
      </trkpt>
      <trkpt lat="45.28738" lon="5.77265">
        <ele>1376.6</ele>
        <time>2026-05-26T18:12:00</time>
      </trkpt>
      <trkpt lat="45.28738" lon="5.77267">
        <ele>1378.1</ele>
        <time>2026-05-26T18:12:01</time>
      </trkpt>
      <trkpt lat="45.28737" lon="5.77268">
        <ele>1378.1</ele>
        <time>2026-05-26T18:12:03</time>
      </trkpt>
      <trkpt lat="45.28736" lon="5.7727">
        <ele>1378.1</ele>
        <time>2026-05-26T18:12:06</time>
      </trkpt>
      <trkpt lat="45.28733" lon="5.77273">
        <ele>1379.4333</ele>
        <time>2026-05-26T18:12:09</time>
      </trkpt>
      <trkpt lat="45.28732" lon="5.77276">
        <ele>1380.9</ele>
        <time>2026-05-26T18:12:13</time>
      </trkpt>
      <trkpt lat="45.28731" lon="5.77282">
        <ele>1380.9</ele>
        <time>2026-05-26T18:12:18</time>
      </trkpt>
      <trkpt lat="45.28729" lon="5.77283">
        <ele>1384.0333</ele>
        <time>2026-05-26T18:12:19</time>
      </trkpt>
      <trkpt lat="45.28728" lon="5.77285">
        <ele>1384.0333</ele>
        <time>2026-05-26T18:12:21</time>
      </trkpt>
      <trkpt lat="45.28722" lon="5.77292">
        <ele>1384.9</ele>
        <time>2026-05-26T18:12:30</time>
      </trkpt>
      <trkpt lat="45.28721" lon="5.77294">
        <ele>1384.9</ele>
        <time>2026-05-26T18:12:32</time>
      </trkpt>
      <trkpt lat="45.2872" lon="5.77296">
        <ele>1385.6</ele>
        <time>2026-05-26T18:12:34</time>
      </trkpt>
      <trkpt lat="45.28716" lon="5.773">
        <ele>1385.6</ele>
        <time>2026-05-26T18:12:39</time>
      </trkpt>
      <trkpt lat="45.28714" lon="5.77304">
        <ele>1387.1</ele>
        <time>2026-05-26T18:12:44</time>
      </trkpt>
      <trkpt lat="45.28713" lon="5.77304">
        <ele>1387.1</ele>
        <time>2026-05-26T18:12:45</time>
      </trkpt>
      <trkpt lat="45.28713" lon="5.77308">
        <ele>1388.1</ele>
        <time>2026-05-26T18:12:48</time>
      </trkpt>
      <trkpt lat="45.28711" lon="5.77312">
        <ele>1388.1</ele>
        <time>2026-05-26T18:12:52</time>
      </trkpt>
      <trkpt lat="45.28707" lon="5.77317">
        <ele>1389.7</ele>
        <time>2026-05-26T18:12:58</time>
      </trkpt>
      <trkpt lat="45.28706" lon="5.77319">
        <ele>1389.7</ele>
        <time>2026-05-26T18:13:00</time>
      </trkpt>
      <trkpt lat="45.28705" lon="5.7732">
        <ele>1391.4</ele>
        <time>2026-05-26T18:13:01</time>
      </trkpt>
      <trkpt lat="45.28701" lon="5.77324">
        <ele>1391.4</ele>
        <time>2026-05-26T18:13:07</time>
      </trkpt>
      <trkpt lat="45.28699" lon="5.77326">
        <ele>1395</ele>
        <time>2026-05-26T18:13:10</time>
      </trkpt>
      <trkpt lat="45.28698" lon="5.7733">
        <ele>1395.7667</ele>
        <time>2026-05-26T18:13:15</time>
      </trkpt>
      <trkpt lat="45.28697" lon="5.77334">
        <ele>1395.7667</ele>
        <time>2026-05-26T18:13:20</time>
      </trkpt>
      <trkpt lat="45.28697" lon="5.77336">
        <ele>1398.4</ele>
        <time>2026-05-26T18:13:22</time>
      </trkpt>
      <trkpt lat="45.28697" lon="5.77338">
        <ele>1398.4</ele>
        <time>2026-05-26T18:13:24</time>
      </trkpt>
      <trkpt lat="45.28696" lon="5.77339">
        <ele>1398.4</ele>
        <time>2026-05-26T18:13:25</time>
      </trkpt>
      <trkpt lat="45.28695" lon="5.77342">
        <ele>1398.4</ele>
        <time>2026-05-26T18:13:28</time>
      </trkpt>
      <trkpt lat="45.28695" lon="5.77342">
        <ele>1400.9</ele>
        <time>2026-05-26T18:13:29</time>
      </trkpt>
      <trkpt lat="45.28694" lon="5.77343">
        <ele>1400.9</ele>
        <time>2026-05-26T18:13:30</time>
      </trkpt>
      <trkpt lat="45.2869" lon="5.77346">
        <ele>1400.9</ele>
        <time>2026-05-26T18:13:34</time>
      </trkpt>
      <trkpt lat="45.2869" lon="5.77346">
        <ele>1400.9</ele>
        <time>2026-05-26T18:13:35</time>
      </trkpt>
      <trkpt lat="45.28689" lon="5.77349">
        <ele>1402.2333</ele>
        <time>2026-05-26T18:13:39</time>
      </trkpt>
      <trkpt lat="45.28688" lon="5.7735">
        <ele>1402.2333</ele>
        <time>2026-05-26T18:13:40</time>
      </trkpt>
      <trkpt lat="45.28688" lon="5.7735">
        <ele>1402.2333</ele>
        <time>2026-05-26T18:13:41</time>
      </trkpt>
      <trkpt lat="45.28688" lon="5.77354">
        <ele>1402.8</ele>
        <time>2026-05-26T18:13:44</time>
      </trkpt>
      <trkpt lat="45.28687" lon="5.77355">
        <ele>1402.8</ele>
        <time>2026-05-26T18:13:46</time>
      </trkpt>
      <trkpt lat="45.28687" lon="5.77355">
        <ele>1402.8</ele>
        <time>2026-05-26T18:13:46</time>
      </trkpt>
      <trkpt lat="45.28681" lon="5.77363">
        <ele>1406.4</ele>
        <time>2026-05-26T18:13:57</time>
      </trkpt>
      <trkpt lat="45.2868" lon="5.77365">
        <ele>1406.4</ele>
        <time>2026-05-26T18:13:58</time>
      </trkpt>
      <trkpt lat="45.2868" lon="5.77368">
        <ele>1406.4</ele>
        <time>2026-05-26T18:14:01</time>
      </trkpt>
      <trkpt lat="45.28679" lon="5.77369">
        <ele>1406.4</ele>
        <time>2026-05-26T18:14:02</time>
      </trkpt>
      <trkpt lat="45.28674" lon="5.77378">
        <ele>1410</ele>
        <time>2026-05-26T18:14:13</time>
      </trkpt>
      <trkpt lat="45.28674" lon="5.77379">
        <ele>1410</ele>
        <time>2026-05-26T18:14:14</time>
      </trkpt>
      <trkpt lat="45.28674" lon="5.7738">
        <ele>1410</ele>
        <time>2026-05-26T18:14:15</time>
      </trkpt>
      <trkpt lat="45.28674" lon="5.77382">
        <ele>1410</ele>
        <time>2026-05-26T18:14:17</time>
      </trkpt>
      <trkpt lat="45.28673" lon="5.77384">
        <ele>1410</ele>
        <time>2026-05-26T18:14:20</time>
      </trkpt>
      <trkpt lat="45.28672" lon="5.77395">
        <ele>1413.8</ele>
        <time>2026-05-26T18:14:31</time>
      </trkpt>
      <trkpt lat="45.28672" lon="5.77399">
        <ele>1415.4</ele>
        <time>2026-05-26T18:14:37</time>
      </trkpt>
      <trkpt lat="45.28671" lon="5.77403">
        <ele>1415.4</ele>
        <time>2026-05-26T18:14:41</time>
      </trkpt>
      <trkpt lat="45.28671" lon="5.77405">
        <ele>1416.9</ele>
        <time>2026-05-26T18:14:43</time>
      </trkpt>
      <trkpt lat="45.2867" lon="5.77407">
        <ele>1416.9</ele>
        <time>2026-05-26T18:14:45</time>
      </trkpt>
      <trkpt lat="45.2867" lon="5.77409">
        <ele>1416.9</ele>
        <time>2026-05-26T18:14:47</time>
      </trkpt>
      <trkpt lat="45.28669" lon="5.77412">
        <ele>1418.8</ele>
        <time>2026-05-26T18:14:50</time>
      </trkpt>
      <trkpt lat="45.28669" lon="5.77413">
        <ele>1418.8</ele>
        <time>2026-05-26T18:14:52</time>
      </trkpt>
      <trkpt lat="45.28669" lon="5.77414">
        <ele>1418.8</ele>
        <time>2026-05-26T18:14:54</time>
      </trkpt>
      <trkpt lat="45.28669" lon="5.77415">
        <ele>1418.8</ele>
        <time>2026-05-26T18:14:55</time>
      </trkpt>
      <trkpt lat="45.28669" lon="5.77416">
        <ele>1418.8</ele>
        <time>2026-05-26T18:14:56</time>
      </trkpt>
      <trkpt lat="45.28668" lon="5.77418">
        <ele>1421.1</ele>
        <time>2026-05-26T18:14:59</time>
      </trkpt>
      <trkpt lat="45.28668" lon="5.77419">
        <ele>1421.1</ele>
        <time>2026-05-26T18:15:00</time>
      </trkpt>
      <trkpt lat="45.28668" lon="5.7742">
        <ele>1421.1</ele>
        <time>2026-05-26T18:15:01</time>
      </trkpt>
      <trkpt lat="45.28667" lon="5.7742">
        <ele>1421.1</ele>
        <time>2026-05-26T18:15:02</time>
      </trkpt>
      <trkpt lat="45.28666" lon="5.77421">
        <ele>1423.1</ele>
        <time>2026-05-26T18:15:04</time>
      </trkpt>
      <trkpt lat="45.28662" lon="5.77424">
        <ele>1423.1</ele>
        <time>2026-05-26T18:15:09</time>
      </trkpt>
      <trkpt lat="45.28657" lon="5.77428">
        <ele>1424.5333</ele>
        <time>2026-05-26T18:15:16</time>
      </trkpt>
      <trkpt lat="45.28657" lon="5.77428">
        <ele>1424.5333</ele>
        <time>2026-05-26T18:15:17</time>
      </trkpt>
      <trkpt lat="45.28656" lon="5.7743">
        <ele>1424.5</ele>
        <time>2026-05-26T18:15:19</time>
      </trkpt>
      <trkpt lat="45.28655" lon="5.77431">
        <ele>1424.5</ele>
        <time>2026-05-26T18:15:21</time>
      </trkpt>
      <trkpt lat="45.28654" lon="5.77432">
        <ele>1424.5</ele>
        <time>2026-05-26T18:15:22</time>
      </trkpt>
      <trkpt lat="45.28654" lon="5.77435">
        <ele>1425.6</ele>
        <time>2026-05-26T18:15:25</time>
      </trkpt>
      <trkpt lat="45.28653" lon="5.77437">
        <ele>1425.6</ele>
        <time>2026-05-26T18:15:28</time>
      </trkpt>
      <trkpt lat="45.28651" lon="5.77438">
        <ele>1425.6</ele>
        <time>2026-05-26T18:15:32</time>
      </trkpt>
      <trkpt lat="45.2865" lon="5.77439">
        <ele>1425.6</ele>
        <time>2026-05-26T18:15:33</time>
      </trkpt>
      <trkpt lat="45.28648" lon="5.77442">
        <ele>1425.9667</ele>
        <time>2026-05-26T18:15:39</time>
      </trkpt>
      <trkpt lat="45.28646" lon="5.77443">
        <ele>1429.4</ele>
        <time>2026-05-26T18:15:41</time>
      </trkpt>
      <trkpt lat="45.28646" lon="5.77444">
        <ele>1429.4</ele>
        <time>2026-05-26T18:15:42</time>
      </trkpt>
      <trkpt lat="45.28645" lon="5.77451">
        <ele>1429.8</ele>
        <time>2026-05-26T18:15:51</time>
      </trkpt>
      <trkpt lat="45.28644" lon="5.77452">
        <ele>1429.8</ele>
        <time>2026-05-26T18:15:53</time>
      </trkpt>
      <trkpt lat="45.28645" lon="5.77456">
        <ele>1432.3</ele>
        <time>2026-05-26T18:15:59</time>
      </trkpt>
      <trkpt lat="45.28646" lon="5.77458">
        <ele>1432.3</ele>
        <time>2026-05-26T18:16:02</time>
      </trkpt>
      <trkpt lat="45.28646" lon="5.77459">
        <ele>1434.2667</ele>
        <time>2026-05-26T18:16:03</time>
      </trkpt>
      <trkpt lat="45.28645" lon="5.77462">
        <ele>1434.2667</ele>
        <time>2026-05-26T18:16:07</time>
      </trkpt>
      <trkpt lat="45.28645" lon="5.77462">
        <ele>1434.2667</ele>
        <time>2026-05-26T18:16:08</time>
      </trkpt>
      <trkpt lat="45.28643" lon="5.77463">
        <ele>1437.3</ele>
        <time>2026-05-26T18:16:10</time>
      </trkpt>
      <trkpt lat="45.28643" lon="5.77463">
        <ele>1437.3</ele>
        <time>2026-05-26T18:16:11</time>
      </trkpt>
      <trkpt lat="45.28642" lon="5.77464">
        <ele>1437.3</ele>
        <time>2026-05-26T18:16:12</time>
      </trkpt>
      <trkpt lat="45.28641" lon="5.77464">
        <ele>1437.3</ele>
        <time>2026-05-26T18:16:14</time>
      </trkpt>
      <trkpt lat="45.2864" lon="5.77465">
        <ele>1437.3</ele>
        <time>2026-05-26T18:16:15</time>
      </trkpt>
      <trkpt lat="45.28639" lon="5.77465">
        <ele>1437.3</ele>
        <time>2026-05-26T18:16:16</time>
      </trkpt>
      <trkpt lat="45.28639" lon="5.77465">
        <ele>1437.3</ele>
        <time>2026-05-26T18:16:17</time>
      </trkpt>
      <trkpt lat="45.28638" lon="5.77464">
        <ele>1438.8</ele>
        <time>2026-05-26T18:16:18</time>
      </trkpt>
      <trkpt lat="45.28637" lon="5.77464">
        <ele>1438.8</ele>
        <time>2026-05-26T18:16:19</time>
      </trkpt>
      <trkpt lat="45.28634" lon="5.77466">
        <ele>1438.8</ele>
        <time>2026-05-26T18:16:24</time>
      </trkpt>
      <trkpt lat="45.28633" lon="5.77467">
        <ele>1438.8</ele>
        <time>2026-05-26T18:16:25</time>
      </trkpt>
      <trkpt lat="45.28633" lon="5.77467">
        <ele>1438.8</ele>
        <time>2026-05-26T18:16:25</time>
      </trkpt>
      <trkpt lat="45.28633" lon="5.77468">
        <ele>1440.4667</ele>
        <time>2026-05-26T18:16:26</time>
      </trkpt>
      <trkpt lat="45.28633" lon="5.77468">
        <ele>1440.4667</ele>
        <time>2026-05-26T18:16:27</time>
      </trkpt>
      <trkpt lat="45.28633" lon="5.77469">
        <ele>1440.4667</ele>
        <time>2026-05-26T18:16:28</time>
      </trkpt>
      <trkpt lat="45.28633" lon="5.77469">
        <ele>1440.4667</ele>
        <time>2026-05-26T18:16:28</time>
      </trkpt>
      <trkpt lat="45.28633" lon="5.7747">
        <ele>1440.4667</ele>
        <time>2026-05-26T18:16:29</time>
      </trkpt>
      <trkpt lat="45.28632" lon="5.7747">
        <ele>1440.4667</ele>
        <time>2026-05-26T18:16:30</time>
      </trkpt>
      <trkpt lat="45.28632" lon="5.7747">
        <ele>1440.4667</ele>
        <time>2026-05-26T18:16:30</time>
      </trkpt>
      <trkpt lat="45.28632" lon="5.7747">
        <ele>1440.4667</ele>
        <time>2026-05-26T18:16:32</time>
      </trkpt>
      <trkpt lat="45.28631" lon="5.7747">
        <ele>1440.4667</ele>
        <time>2026-05-26T18:16:33</time>
      </trkpt>
      <trkpt lat="45.28631" lon="5.7747">
        <ele>1442</ele>
        <time>2026-05-26T18:16:34</time>
      </trkpt>
      <trkpt lat="45.28629" lon="5.77468">
        <ele>1442</ele>
        <time>2026-05-26T18:16:36</time>
      </trkpt>
      <trkpt lat="45.28629" lon="5.77468">
        <ele>1442</ele>
        <time>2026-05-26T18:16:36</time>
      </trkpt>
      <trkpt lat="45.28629" lon="5.77468">
        <ele>1442</ele>
        <time>2026-05-26T18:16:37</time>
      </trkpt>
      <trkpt lat="45.28628" lon="5.77468">
        <ele>1442</ele>
        <time>2026-05-26T18:16:38</time>
      </trkpt>
      <trkpt lat="45.28628" lon="5.77469">
        <ele>1442</ele>
        <time>2026-05-26T18:16:38</time>
      </trkpt>
      <trkpt lat="45.28628" lon="5.77469">
        <ele>1442</ele>
        <time>2026-05-26T18:16:39</time>
      </trkpt>
      <trkpt lat="45.28628" lon="5.77471">
        <ele>1443.4</ele>
        <time>2026-05-26T18:16:41</time>
      </trkpt>
      <trkpt lat="45.28627" lon="5.77472">
        <ele>1443.4</ele>
        <time>2026-05-26T18:16:43</time>
      </trkpt>
      <trkpt lat="45.28627" lon="5.77472">
        <ele>1443.4</ele>
        <time>2026-05-26T18:16:44</time>
      </trkpt>
      <trkpt lat="45.28627" lon="5.77472">
        <ele>1443.4</ele>
        <time>2026-05-26T18:16:44</time>
      </trkpt>
      <trkpt lat="45.28626" lon="5.77472">
        <ele>1443.4</ele>
        <time>2026-05-26T18:16:45</time>
      </trkpt>
      <trkpt lat="45.28623" lon="5.77473">
        <ele>1445.9</ele>
        <time>2026-05-26T18:16:51</time>
      </trkpt>
      <trkpt lat="45.28621" lon="5.77473">
        <ele>1445.9</ele>
        <time>2026-05-26T18:16:54</time>
      </trkpt>
      <trkpt lat="45.2862" lon="5.77473">
        <ele>1445.9</ele>
        <time>2026-05-26T18:16:55</time>
      </trkpt>
      <trkpt lat="45.28619" lon="5.77474">
        <ele>1448.1</ele>
        <time>2026-05-26T18:16:57</time>
      </trkpt>
      <trkpt lat="45.28618" lon="5.77474">
        <ele>1448.1</ele>
        <time>2026-05-26T18:16:58</time>
      </trkpt>
      <trkpt lat="45.28618" lon="5.77475">
        <ele>1448.1</ele>
        <time>2026-05-26T18:16:59</time>
      </trkpt>
      <trkpt lat="45.28618" lon="5.77476">
        <ele>1448.1</ele>
        <time>2026-05-26T18:17:00</time>
      </trkpt>
      <trkpt lat="45.28617" lon="5.77476">
        <ele>1448.1</ele>
        <time>2026-05-26T18:17:01</time>
      </trkpt>
      <trkpt lat="45.28617" lon="5.77475">
        <ele>1448.1</ele>
        <time>2026-05-26T18:17:02</time>
      </trkpt>
      <trkpt lat="45.28616" lon="5.77476">
        <ele>1448.1</ele>
        <time>2026-05-26T18:17:03</time>
      </trkpt>
      <trkpt lat="45.28616" lon="5.77477">
        <ele>1450.1333</ele>
        <time>2026-05-26T18:17:04</time>
      </trkpt>
      <trkpt lat="45.28616" lon="5.77477">
        <ele>1450.1333</ele>
        <time>2026-05-26T18:17:04</time>
      </trkpt>
      <trkpt lat="45.28617" lon="5.77479">
        <ele>1450.1333</ele>
        <time>2026-05-26T18:17:08</time>
      </trkpt>
      <trkpt lat="45.28618" lon="5.7748">
        <ele>1450.1333</ele>
        <time>2026-05-26T18:17:09</time>
      </trkpt>
      <trkpt lat="45.28619" lon="5.77481">
        <ele>1450.1333</ele>
        <time>2026-05-26T18:17:11</time>
      </trkpt>
      <trkpt lat="45.28619" lon="5.77483">
        <ele>1452.4</ele>
        <time>2026-05-26T18:17:15</time>
      </trkpt>
      <trkpt lat="45.2862" lon="5.77488">
        <ele>1453.9333</ele>
        <time>2026-05-26T18:17:21</time>
      </trkpt>
      <trkpt lat="45.2862" lon="5.77489">
        <ele>1453.9333</ele>
        <time>2026-05-26T18:17:22</time>
      </trkpt>
      <trkpt lat="45.28619" lon="5.77489">
        <ele>1453.9333</ele>
        <time>2026-05-26T18:17:23</time>
      </trkpt>
      <trkpt lat="45.28618" lon="5.77489">
        <ele>1453.9333</ele>
        <time>2026-05-26T18:17:23</time>
      </trkpt>
      <trkpt lat="45.28617" lon="5.7749">
        <ele>1453.9333</ele>
        <time>2026-05-26T18:17:26</time>
      </trkpt>
      <trkpt lat="45.28616" lon="5.7749">
        <ele>1455.2</ele>
        <time>2026-05-26T18:17:26</time>
      </trkpt>
      <trkpt lat="45.28616" lon="5.77491">
        <ele>1455.2</ele>
        <time>2026-05-26T18:17:27</time>
      </trkpt>
      <trkpt lat="45.28616" lon="5.77491">
        <ele>1455.2</ele>
        <time>2026-05-26T18:17:28</time>
      </trkpt>
      <trkpt lat="45.28616" lon="5.77492">
        <ele>1455.2</ele>
        <time>2026-05-26T18:17:29</time>
      </trkpt>
      <trkpt lat="45.28616" lon="5.77493">
        <ele>1455.2</ele>
        <time>2026-05-26T18:17:31</time>
      </trkpt>
      <trkpt lat="45.28618" lon="5.77498">
        <ele>1456</ele>
        <time>2026-05-26T18:17:37</time>
      </trkpt>
      <trkpt lat="45.28617" lon="5.77498">
        <ele>1456</ele>
        <time>2026-05-26T18:17:38</time>
      </trkpt>
      <trkpt lat="45.28617" lon="5.77499">
        <ele>1456</ele>
        <time>2026-05-26T18:17:38</time>
      </trkpt>
      <trkpt lat="45.28617" lon="5.77499">
        <ele>1456</ele>
        <time>2026-05-26T18:17:39</time>
      </trkpt>
      <trkpt lat="45.28615" lon="5.77499">
        <ele>1457.1</ele>
        <time>2026-05-26T18:17:43</time>
      </trkpt>
      <trkpt lat="45.28615" lon="5.775">
        <ele>1457.1</ele>
        <time>2026-05-26T18:17:43</time>
      </trkpt>
      <trkpt lat="45.28615" lon="5.775">
        <ele>1457.1</ele>
        <time>2026-05-26T18:17:44</time>
      </trkpt>
      <trkpt lat="45.28615" lon="5.77501">
        <ele>1457.1</ele>
        <time>2026-05-26T18:17:45</time>
      </trkpt>
      <trkpt lat="45.28614" lon="5.77502">
        <ele>1457.1</ele>
        <time>2026-05-26T18:17:46</time>
      </trkpt>
      <trkpt lat="45.28614" lon="5.77506">
        <ele>1457.4</ele>
        <time>2026-05-26T18:17:51</time>
      </trkpt>
      <trkpt lat="45.28614" lon="5.77508">
        <ele>1457.4</ele>
        <time>2026-05-26T18:17:52</time>
      </trkpt>
      <trkpt lat="45.28613" lon="5.77509">
        <ele>1457.4</ele>
        <time>2026-05-26T18:17:54</time>
      </trkpt>
      <trkpt lat="45.28613" lon="5.77511">
        <ele>1458.9</ele>
        <time>2026-05-26T18:17:55</time>
      </trkpt>
      <trkpt lat="45.28613" lon="5.77511">
        <ele>1458.9</ele>
        <time>2026-05-26T18:17:56</time>
      </trkpt>
      <trkpt lat="45.28613" lon="5.77512">
        <ele>1458.9</ele>
        <time>2026-05-26T18:17:57</time>
      </trkpt>
      <trkpt lat="45.28613" lon="5.77512">
        <ele>1458.9</ele>
        <time>2026-05-26T18:17:58</time>
      </trkpt>
      <trkpt lat="45.28614" lon="5.77513">
        <ele>1458.9</ele>
        <time>2026-05-26T18:17:59</time>
      </trkpt>
      <trkpt lat="45.28614" lon="5.77513">
        <ele>1458.9</ele>
        <time>2026-05-26T18:18:00</time>
      </trkpt>
      <trkpt lat="45.28614" lon="5.77514">
        <ele>1458.9</ele>
        <time>2026-05-26T18:18:01</time>
      </trkpt>
      <trkpt lat="45.28614" lon="5.77514">
        <ele>1458.9</ele>
        <time>2026-05-26T18:18:01</time>
      </trkpt>
      <trkpt lat="45.28613" lon="5.77514">
        <ele>1461.6666</ele>
        <time>2026-05-26T18:18:03</time>
      </trkpt>
      <trkpt lat="45.28612" lon="5.77514">
        <ele>1461.6666</ele>
        <time>2026-05-26T18:18:04</time>
      </trkpt>
      <trkpt lat="45.28612" lon="5.77514">
        <ele>1461.6666</ele>
        <time>2026-05-26T18:18:06</time>
      </trkpt>
      <trkpt lat="45.28611" lon="5.77514">
        <ele>1461.6666</ele>
        <time>2026-05-26T18:18:06</time>
      </trkpt>
      <trkpt lat="45.28611" lon="5.77515">
        <ele>1461.6666</ele>
        <time>2026-05-26T18:18:07</time>
      </trkpt>
      <trkpt lat="45.2861" lon="5.77516">
        <ele>1461.6666</ele>
        <time>2026-05-26T18:18:08</time>
      </trkpt>
      <trkpt lat="45.2861" lon="5.77517">
        <ele>1461.6666</ele>
        <time>2026-05-26T18:18:09</time>
      </trkpt>
      <trkpt lat="45.2861" lon="5.77518">
        <ele>1462.7333</ele>
        <time>2026-05-26T18:18:10</time>
      </trkpt>
      <trkpt lat="45.2861" lon="5.77518">
        <ele>1462.7333</ele>
        <time>2026-05-26T18:18:11</time>
      </trkpt>
      <trkpt lat="45.28609" lon="5.77519">
        <ele>1462.7333</ele>
        <time>2026-05-26T18:18:11</time>
      </trkpt>
      <trkpt lat="45.28608" lon="5.77518">
        <ele>1462.7333</ele>
        <time>2026-05-26T18:18:13</time>
      </trkpt>
      <trkpt lat="45.28607" lon="5.77518">
        <ele>1462.7333</ele>
        <time>2026-05-26T18:18:14</time>
      </trkpt>
      <trkpt lat="45.28606" lon="5.77516">
        <ele>1462.7333</ele>
        <time>2026-05-26T18:18:16</time>
      </trkpt>
      <trkpt lat="45.28606" lon="5.77516">
        <ele>1462.7333</ele>
        <time>2026-05-26T18:18:16</time>
      </trkpt>
      <trkpt lat="45.28605" lon="5.77517">
        <ele>1463.4</ele>
        <time>2026-05-26T18:18:17</time>
      </trkpt>
      <trkpt lat="45.28605" lon="5.77518">
        <ele>1463.4</ele>
        <time>2026-05-26T18:18:18</time>
      </trkpt>
      <trkpt lat="45.28605" lon="5.77518">
        <ele>1463.4</ele>
        <time>2026-05-26T18:18:19</time>
      </trkpt>
      <trkpt lat="45.28606" lon="5.77521">
        <ele>1463.4</ele>
        <time>2026-05-26T18:18:22</time>
      </trkpt>
      <trkpt lat="45.28606" lon="5.77522">
        <ele>1463.4</ele>
        <time>2026-05-26T18:18:23</time>
      </trkpt>
      <trkpt lat="45.28606" lon="5.77522">
        <ele>1463.4</ele>
        <time>2026-05-26T18:18:24</time>
      </trkpt>
      <trkpt lat="45.28607" lon="5.77523">
        <ele>1464.4667</ele>
        <time>2026-05-26T18:18:25</time>
      </trkpt>
      <trkpt lat="45.28607" lon="5.77524">
        <ele>1464.4667</ele>
        <time>2026-05-26T18:18:26</time>
      </trkpt>
      <trkpt lat="45.28607" lon="5.77524">
        <ele>1464.4667</ele>
        <time>2026-05-26T18:18:26</time>
      </trkpt>
      <trkpt lat="45.28607" lon="5.77525">
        <ele>1464.4667</ele>
        <time>2026-05-26T18:18:27</time>
      </trkpt>
      <trkpt lat="45.28607" lon="5.77525">
        <ele>1464.4667</ele>
        <time>2026-05-26T18:18:28</time>
      </trkpt>
      <trkpt lat="45.28606" lon="5.77525">
        <ele>1464.4667</ele>
        <time>2026-05-26T18:18:29</time>
      </trkpt>
      <trkpt lat="45.28606" lon="5.77525">
        <ele>1464.4667</ele>
        <time>2026-05-26T18:18:29</time>
      </trkpt>
      <trkpt lat="45.28605" lon="5.77525">
        <ele>1464.4667</ele>
        <time>2026-05-26T18:18:30</time>
      </trkpt>
      <trkpt lat="45.28605" lon="5.77525">
        <ele>1465.9</ele>
        <time>2026-05-26T18:18:32</time>
      </trkpt>
      <trkpt lat="45.28604" lon="5.77525">
        <ele>1465.9</ele>
        <time>2026-05-26T18:18:32</time>
      </trkpt>
      <trkpt lat="45.28604" lon="5.77525">
        <ele>1465.9</ele>
        <time>2026-05-26T18:18:33</time>
      </trkpt>
      <trkpt lat="45.28603" lon="5.77526">
        <ele>1465.9</ele>
        <time>2026-05-26T18:18:34</time>
      </trkpt>
      <trkpt lat="45.28603" lon="5.77526">
        <ele>1465.9</ele>
        <time>2026-05-26T18:18:34</time>
      </trkpt>
      <trkpt lat="45.28603" lon="5.77527">
        <ele>1465.9</ele>
        <time>2026-05-26T18:18:35</time>
      </trkpt>
      <trkpt lat="45.28603" lon="5.77528">
        <ele>1465.9</ele>
        <time>2026-05-26T18:18:37</time>
      </trkpt>
      <trkpt lat="45.28603" lon="5.77529">
        <ele>1465.9</ele>
        <time>2026-05-26T18:18:37</time>
      </trkpt>
      <trkpt lat="45.28602" lon="5.77529">
        <ele>1465.9</ele>
        <time>2026-05-26T18:18:38</time>
      </trkpt>
      <trkpt lat="45.28602" lon="5.77529">
        <ele>1466.4</ele>
        <time>2026-05-26T18:18:39</time>
      </trkpt>
      <trkpt lat="45.28602" lon="5.77529">
        <ele>1466.4</ele>
        <time>2026-05-26T18:18:39</time>
      </trkpt>
      <trkpt lat="45.28602" lon="5.77529">
        <ele>1466.4</ele>
        <time>2026-05-26T18:18:40</time>
      </trkpt>
      <trkpt lat="45.28602" lon="5.7753">
        <ele>1466.4</ele>
        <time>2026-05-26T18:18:41</time>
      </trkpt>
      <trkpt lat="45.28602" lon="5.77532">
        <ele>1466.4</ele>
        <time>2026-05-26T18:18:43</time>
      </trkpt>
      <trkpt lat="45.28602" lon="5.77532">
        <ele>1466.4</ele>
        <time>2026-05-26T18:18:44</time>
      </trkpt>
      <trkpt lat="45.28601" lon="5.77533">
        <ele>1466.4</ele>
        <time>2026-05-26T18:18:45</time>
      </trkpt>
      <trkpt lat="45.28601" lon="5.77533">
        <ele>1468.9</ele>
        <time>2026-05-26T18:18:46</time>
      </trkpt>
      <trkpt lat="45.28601" lon="5.77534">
        <ele>1468.9</ele>
        <time>2026-05-26T18:18:47</time>
      </trkpt>
      <trkpt lat="45.286" lon="5.77534">
        <ele>1468.9</ele>
        <time>2026-05-26T18:18:48</time>
      </trkpt>
      <trkpt lat="45.286" lon="5.77534">
        <ele>1468.9</ele>
        <time>2026-05-26T18:18:48</time>
      </trkpt>
      <trkpt lat="45.286" lon="5.77533">
        <ele>1468.9</ele>
        <time>2026-05-26T18:18:49</time>
      </trkpt>
      <trkpt lat="45.28599" lon="5.77533">
        <ele>1468.9</ele>
        <time>2026-05-26T18:18:50</time>
      </trkpt>
      <trkpt lat="45.28599" lon="5.77533">
        <ele>1468.9</ele>
        <time>2026-05-26T18:18:51</time>
      </trkpt>
      <trkpt lat="45.28599" lon="5.77533">
        <ele>1468.9</ele>
        <time>2026-05-26T18:18:52</time>
      </trkpt>
      <trkpt lat="45.28599" lon="5.77533">
        <ele>1468.9</ele>
        <time>2026-05-26T18:18:52</time>
      </trkpt>
      <trkpt lat="45.28598" lon="5.77534">
        <ele>1468.9</ele>
        <time>2026-05-26T18:18:53</time>
      </trkpt>
      <trkpt lat="45.28598" lon="5.77534">
        <ele>1470</ele>
        <time>2026-05-26T18:18:54</time>
      </trkpt>
      <trkpt lat="45.28598" lon="5.77535">
        <ele>1470</ele>
        <time>2026-05-26T18:18:55</time>
      </trkpt>
      <trkpt lat="45.28598" lon="5.77535">
        <ele>1470</ele>
        <time>2026-05-26T18:18:55</time>
      </trkpt>
      <trkpt lat="45.28598" lon="5.77536">
        <ele>1470</ele>
        <time>2026-05-26T18:18:57</time>
      </trkpt>
      <trkpt lat="45.28597" lon="5.77536">
        <ele>1470</ele>
        <time>2026-05-26T18:18:58</time>
      </trkpt>
      <trkpt lat="45.28596" lon="5.77537">
        <ele>1470</ele>
        <time>2026-05-26T18:19:00</time>
      </trkpt>
      <trkpt lat="45.28596" lon="5.77537">
        <ele>1472.4</ele>
        <time>2026-05-26T18:19:01</time>
      </trkpt>
      <trkpt lat="45.28594" lon="5.77538">
        <ele>1472.4</ele>
        <time>2026-05-26T18:19:03</time>
      </trkpt>
      <trkpt lat="45.28594" lon="5.77538">
        <ele>1472.4</ele>
        <time>2026-05-26T18:19:04</time>
      </trkpt>
      <trkpt lat="45.28594" lon="5.77538">
        <ele>1472.4</ele>
        <time>2026-05-26T18:19:04</time>
      </trkpt>
      <trkpt lat="45.28594" lon="5.77539">
        <ele>1472.4</ele>
        <time>2026-05-26T18:19:05</time>
      </trkpt>
      <trkpt lat="45.28594" lon="5.77539">
        <ele>1472.4</ele>
        <time>2026-05-26T18:19:06</time>
      </trkpt>
      <trkpt lat="45.28595" lon="5.7754">
        <ele>1472.4</ele>
        <time>2026-05-26T18:19:07</time>
      </trkpt>
      <trkpt lat="45.28595" lon="5.7754">
        <ele>1472.4</ele>
        <time>2026-05-26T18:19:08</time>
      </trkpt>
      <trkpt lat="45.28595" lon="5.77541">
        <ele>1474.8</ele>
        <time>2026-05-26T18:19:09</time>
      </trkpt>
      <trkpt lat="45.28595" lon="5.77541">
        <ele>1474.8</ele>
        <time>2026-05-26T18:19:10</time>
      </trkpt>
      <trkpt lat="45.28595" lon="5.77541">
        <ele>1474.8</ele>
        <time>2026-05-26T18:19:10</time>
      </trkpt>
      <trkpt lat="45.28595" lon="5.77542">
        <ele>1474.8</ele>
        <time>2026-05-26T18:19:11</time>
      </trkpt>
      <trkpt lat="45.28595" lon="5.77542">
        <ele>1474.8</ele>
        <time>2026-05-26T18:19:12</time>
      </trkpt>
      <trkpt lat="45.28594" lon="5.77543">
        <ele>1474.8</ele>
        <time>2026-05-26T18:19:14</time>
      </trkpt>
      <trkpt lat="45.28594" lon="5.77543">
        <ele>1474.8</ele>
        <time>2026-05-26T18:19:15</time>
      </trkpt>
      <trkpt lat="45.28594" lon="5.77544">
        <ele>1474.8</ele>
        <time>2026-05-26T18:19:15</time>
      </trkpt>
      <trkpt lat="45.28593" lon="5.77547">
        <ele>1475.6</ele>
        <time>2026-05-26T18:19:18</time>
      </trkpt>
      <trkpt lat="45.28593" lon="5.77547">
        <ele>1475.6</ele>
        <time>2026-05-26T18:19:19</time>
      </trkpt>
      <trkpt lat="45.28593" lon="5.77548">
        <ele>1475.6</ele>
        <time>2026-05-26T18:19:20</time>
      </trkpt>
      <trkpt lat="45.28592" lon="5.77549">
        <ele>1475.6</ele>
        <time>2026-05-26T18:19:23</time>
      </trkpt>
      <trkpt lat="45.28592" lon="5.77551">
        <ele>1476.8</ele>
        <time>2026-05-26T18:19:26</time>
      </trkpt>
      <trkpt lat="45.28592" lon="5.77551">
        <ele>1476.8</ele>
        <time>2026-05-26T18:19:27</time>
      </trkpt>
      <trkpt lat="45.28592" lon="5.77552">
        <ele>1476.8</ele>
        <time>2026-05-26T18:19:28</time>
      </trkpt>
      <trkpt lat="45.28592" lon="5.77552">
        <ele>1476.8</ele>
        <time>2026-05-26T18:19:29</time>
      </trkpt>
      <trkpt lat="45.28592" lon="5.77553">
        <ele>1476.8</ele>
        <time>2026-05-26T18:19:30</time>
      </trkpt>
      <trkpt lat="45.28592" lon="5.77553">
        <ele>1478.4</ele>
        <time>2026-05-26T18:19:32</time>
      </trkpt>
      <trkpt lat="45.28592" lon="5.77554">
        <ele>1478.4</ele>
        <time>2026-05-26T18:19:33</time>
      </trkpt>
      <trkpt lat="45.28592" lon="5.77554">
        <ele>1478.4</ele>
        <time>2026-05-26T18:19:34</time>
      </trkpt>
      <trkpt lat="45.28592" lon="5.77555">
        <ele>1478.4</ele>
        <time>2026-05-26T18:19:35</time>
      </trkpt>
      <trkpt lat="45.28593" lon="5.77555">
        <ele>1478.4</ele>
        <time>2026-05-26T18:19:36</time>
      </trkpt>
      <trkpt lat="45.28593" lon="5.77556">
        <ele>1478.4</ele>
        <time>2026-05-26T18:19:38</time>
      </trkpt>
      <trkpt lat="45.28594" lon="5.77556">
        <ele>1478.4</ele>
        <time>2026-05-26T18:19:39</time>
      </trkpt>
      <trkpt lat="45.28593" lon="5.77557">
        <ele>1478.4</ele>
        <time>2026-05-26T18:19:40</time>
      </trkpt>
      <trkpt lat="45.28593" lon="5.77558">
        <ele>1481.1</ele>
        <time>2026-05-26T18:19:40</time>
      </trkpt>
      <trkpt lat="45.28593" lon="5.77558">
        <ele>1481.1</ele>
        <time>2026-05-26T18:19:41</time>
      </trkpt>
      <trkpt lat="45.28592" lon="5.77559">
        <ele>1481.1</ele>
        <time>2026-05-26T18:19:42</time>
      </trkpt>
      <trkpt lat="45.28591" lon="5.7756">
        <ele>1481.1</ele>
        <time>2026-05-26T18:19:43</time>
      </trkpt>
      <trkpt lat="45.28591" lon="5.7756">
        <ele>1481.1</ele>
        <time>2026-05-26T18:19:44</time>
      </trkpt>
      <trkpt lat="45.2859" lon="5.7756">
        <ele>1481.1</ele>
        <time>2026-05-26T18:19:45</time>
      </trkpt>
      <trkpt lat="45.28589" lon="5.7756">
        <ele>1481.1</ele>
        <time>2026-05-26T18:19:46</time>
      </trkpt>
      <trkpt lat="45.28589" lon="5.7756">
        <ele>1481.1</ele>
        <time>2026-05-26T18:19:47</time>
      </trkpt>
      <trkpt lat="45.28589" lon="5.7756">
        <ele>1481.8</ele>
        <time>2026-05-26T18:19:48</time>
      </trkpt>
      <trkpt lat="45.28588" lon="5.77561">
        <ele>1481.8</ele>
        <time>2026-05-26T18:19:49</time>
      </trkpt>
      <trkpt lat="45.28588" lon="5.77561">
        <ele>1481.8</ele>
        <time>2026-05-26T18:19:49</time>
      </trkpt>
      <trkpt lat="45.28588" lon="5.77562">
        <ele>1481.8</ele>
        <time>2026-05-26T18:19:50</time>
      </trkpt>
      <trkpt lat="45.28588" lon="5.77564">
        <ele>1481.8</ele>
        <time>2026-05-26T18:19:52</time>
      </trkpt>
      <trkpt lat="45.28587" lon="5.77565">
        <ele>1481.8</ele>
        <time>2026-05-26T18:19:53</time>
      </trkpt>
      <trkpt lat="45.28587" lon="5.77566">
        <ele>1482.3</ele>
        <time>2026-05-26T18:19:56</time>
      </trkpt>
      <trkpt lat="45.28587" lon="5.77567">
        <ele>1482.3</ele>
        <time>2026-05-26T18:19:57</time>
      </trkpt>
      <trkpt lat="45.28587" lon="5.77567">
        <ele>1482.3</ele>
        <time>2026-05-26T18:19:58</time>
      </trkpt>
      <trkpt lat="45.28589" lon="5.77568">
        <ele>1482.3</ele>
        <time>2026-05-26T18:20:00</time>
      </trkpt>
      <trkpt lat="45.28589" lon="5.77569">
        <ele>1482.3</ele>
        <time>2026-05-26T18:20:01</time>
      </trkpt>
      <trkpt lat="45.28589" lon="5.77569">
        <ele>1482.3</ele>
        <time>2026-05-26T18:20:02</time>
      </trkpt>
      <trkpt lat="45.28589" lon="5.7757">
        <ele>1483.6</ele>
        <time>2026-05-26T18:20:03</time>
      </trkpt>
      <trkpt lat="45.28588" lon="5.7757">
        <ele>1483.6</ele>
        <time>2026-05-26T18:20:03</time>
      </trkpt>
      <trkpt lat="45.28588" lon="5.7757">
        <ele>1483.6</ele>
        <time>2026-05-26T18:20:04</time>
      </trkpt>
      <trkpt lat="45.28587" lon="5.7757">
        <ele>1483.6</ele>
        <time>2026-05-26T18:20:05</time>
      </trkpt>
      <trkpt lat="45.28587" lon="5.7757">
        <ele>1483.6</ele>
        <time>2026-05-26T18:20:06</time>
      </trkpt>
      <trkpt lat="45.28586" lon="5.77571">
        <ele>1483.6</ele>
        <time>2026-05-26T18:20:07</time>
      </trkpt>
      <trkpt lat="45.28586" lon="5.77571">
        <ele>1483.6</ele>
        <time>2026-05-26T18:20:08</time>
      </trkpt>
      <trkpt lat="45.28585" lon="5.77572">
        <ele>1484.6</ele>
        <time>2026-05-26T18:20:10</time>
      </trkpt>
      <trkpt lat="45.28583" lon="5.77573">
        <ele>1484.6</ele>
        <time>2026-05-26T18:20:12</time>
      </trkpt>
      <trkpt lat="45.28583" lon="5.77573">
        <ele>1484.6</ele>
        <time>2026-05-26T18:20:13</time>
      </trkpt>
      <trkpt lat="45.28582" lon="5.77574">
        <ele>1484.6</ele>
        <time>2026-05-26T18:20:15</time>
      </trkpt>
      <trkpt lat="45.28582" lon="5.77575">
        <ele>1484.6</ele>
        <time>2026-05-26T18:20:16</time>
      </trkpt>
      <trkpt lat="45.28582" lon="5.77575">
        <ele>1484.6</ele>
        <time>2026-05-26T18:20:16</time>
      </trkpt>
      <trkpt lat="45.28583" lon="5.77578">
        <ele>1485.9</ele>
        <time>2026-05-26T18:20:19</time>
      </trkpt>
      <trkpt lat="45.28583" lon="5.77579">
        <ele>1485.9</ele>
        <time>2026-05-26T18:20:20</time>
      </trkpt>
      <trkpt lat="45.28584" lon="5.77579">
        <ele>1485.9</ele>
        <time>2026-05-26T18:20:21</time>
      </trkpt>
      <trkpt lat="45.28585" lon="5.77579">
        <ele>1485.9</ele>
        <time>2026-05-26T18:20:22</time>
      </trkpt>
      <trkpt lat="45.28585" lon="5.7758">
        <ele>1485.9</ele>
        <time>2026-05-26T18:20:23</time>
      </trkpt>
      <trkpt lat="45.28585" lon="5.77581">
        <ele>1485.9</ele>
        <time>2026-05-26T18:20:24</time>
      </trkpt>
      <trkpt lat="45.28585" lon="5.77582">
        <ele>1486.1</ele>
        <time>2026-05-26T18:20:25</time>
      </trkpt>
      <trkpt lat="45.28585" lon="5.77583">
        <ele>1486.1</ele>
        <time>2026-05-26T18:20:26</time>
      </trkpt>
      <trkpt lat="45.28585" lon="5.77583">
        <ele>1486.1</ele>
        <time>2026-05-26T18:20:27</time>
      </trkpt>
      <trkpt lat="45.28585" lon="5.77583">
        <ele>1486.1</ele>
        <time>2026-05-26T18:20:28</time>
      </trkpt>
      <trkpt lat="45.28584" lon="5.77583">
        <ele>1486.1</ele>
        <time>2026-05-26T18:20:28</time>
      </trkpt>
      <trkpt lat="45.28584" lon="5.77583">
        <ele>1486.1</ele>
        <time>2026-05-26T18:20:30</time>
      </trkpt>
      <trkpt lat="45.28583" lon="5.77584">
        <ele>1486.1</ele>
        <time>2026-05-26T18:20:31</time>
      </trkpt>
      <trkpt lat="45.28583" lon="5.77584">
        <ele>1486.1</ele>
        <time>2026-05-26T18:20:31</time>
      </trkpt>
      <trkpt lat="45.28583" lon="5.77585">
        <ele>1488.3</ele>
        <time>2026-05-26T18:20:32</time>
      </trkpt>
      <trkpt lat="45.28583" lon="5.77586">
        <ele>1488.3</ele>
        <time>2026-05-26T18:20:33</time>
      </trkpt>
      <trkpt lat="45.28583" lon="5.77588">
        <ele>1488.3</ele>
        <time>2026-05-26T18:20:37</time>
      </trkpt>
      <trkpt lat="45.28584" lon="5.7759">
        <ele>1489.6</ele>
        <time>2026-05-26T18:20:41</time>
      </trkpt>
      <trkpt lat="45.28585" lon="5.77591">
        <ele>1489.6</ele>
        <time>2026-05-26T18:20:42</time>
      </trkpt>
      <trkpt lat="45.28584" lon="5.77591">
        <ele>1489.6</ele>
        <time>2026-05-26T18:20:42</time>
      </trkpt>
      <trkpt lat="45.28584" lon="5.77592">
        <ele>1489.6</ele>
        <time>2026-05-26T18:20:43</time>
      </trkpt>
      <trkpt lat="45.28584" lon="5.77592">
        <ele>1489.6</ele>
        <time>2026-05-26T18:20:44</time>
      </trkpt>
      <trkpt lat="45.28581" lon="5.77592">
        <ele>1492.2</ele>
        <time>2026-05-26T18:20:48</time>
      </trkpt>
      <trkpt lat="45.28579" lon="5.77592">
        <ele>1492.2</ele>
        <time>2026-05-26T18:20:50</time>
      </trkpt>
      <trkpt lat="45.28578" lon="5.77592">
        <ele>1492.2</ele>
        <time>2026-05-26T18:20:53</time>
      </trkpt>
      <trkpt lat="45.28577" lon="5.77592">
        <ele>1492.2</ele>
        <time>2026-05-26T18:20:54</time>
      </trkpt>
      <trkpt lat="45.28577" lon="5.77593">
        <ele>1492.2</ele>
        <time>2026-05-26T18:20:55</time>
      </trkpt>
      <trkpt lat="45.28577" lon="5.77593">
        <ele>1492.2</ele>
        <time>2026-05-26T18:20:55</time>
      </trkpt>
      <trkpt lat="45.28576" lon="5.77595">
        <ele>1493.5</ele>
        <time>2026-05-26T18:20:57</time>
      </trkpt>
      <trkpt lat="45.28576" lon="5.77596">
        <ele>1493.5</ele>
        <time>2026-05-26T18:20:58</time>
      </trkpt>
      <trkpt lat="45.28576" lon="5.77596">
        <ele>1493.5</ele>
        <time>2026-05-26T18:20:59</time>
      </trkpt>
      <trkpt lat="45.28575" lon="5.77597">
        <ele>1493.5</ele>
        <time>2026-05-26T18:20:59</time>
      </trkpt>
      <trkpt lat="45.28575" lon="5.77596">
        <ele>1493.5</ele>
        <time>2026-05-26T18:21:00</time>
      </trkpt>
      <trkpt lat="45.28573" lon="5.77595">
        <ele>1493.5</ele>
        <time>2026-05-26T18:21:02</time>
      </trkpt>
      <trkpt lat="45.28573" lon="5.77595">
        <ele>1496.4333</ele>
        <time>2026-05-26T18:21:04</time>
      </trkpt>
      <trkpt lat="45.28572" lon="5.77595">
        <ele>1496.4333</ele>
        <time>2026-05-26T18:21:05</time>
      </trkpt>
      <trkpt lat="45.28572" lon="5.77595">
        <ele>1496.4333</ele>
        <time>2026-05-26T18:21:06</time>
      </trkpt>
      <trkpt lat="45.28571" lon="5.77595">
        <ele>1496.4333</ele>
        <time>2026-05-26T18:21:06</time>
      </trkpt>
      <trkpt lat="45.28571" lon="5.77597">
        <ele>1496.4333</ele>
        <time>2026-05-26T18:21:07</time>
      </trkpt>
      <trkpt lat="45.28571" lon="5.77598">
        <ele>1496.4333</ele>
        <time>2026-05-26T18:21:08</time>
      </trkpt>
      <trkpt lat="45.28571" lon="5.77598">
        <ele>1496.4333</ele>
        <time>2026-05-26T18:21:09</time>
      </trkpt>
      <trkpt lat="45.28572" lon="5.77601">
        <ele>1498.9</ele>
        <time>2026-05-26T18:21:14</time>
      </trkpt>
      <trkpt lat="45.28572" lon="5.77601">
        <ele>1498.9</ele>
        <time>2026-05-26T18:21:15</time>
      </trkpt>
      <trkpt lat="45.28572" lon="5.77602">
        <ele>1498.9</ele>
        <time>2026-05-26T18:21:16</time>
      </trkpt>
      <trkpt lat="45.28572" lon="5.77602">
        <ele>1498.9</ele>
        <time>2026-05-26T18:21:17</time>
      </trkpt>
      <trkpt lat="45.28571" lon="5.77602">
        <ele>1498.9</ele>
        <time>2026-05-26T18:21:18</time>
      </trkpt>
      <trkpt lat="45.2857" lon="5.77603">
        <ele>1499.9</ele>
        <time>2026-05-26T18:21:20</time>
      </trkpt>
      <trkpt lat="45.2857" lon="5.77603">
        <ele>1499.9</ele>
        <time>2026-05-26T18:21:21</time>
      </trkpt>
      <trkpt lat="45.2857" lon="5.77604">
        <ele>1499.9</ele>
        <time>2026-05-26T18:21:22</time>
      </trkpt>
      <trkpt lat="45.2857" lon="5.77604">
        <ele>1499.9</ele>
        <time>2026-05-26T18:21:23</time>
      </trkpt>
      <trkpt lat="45.2857" lon="5.77604">
        <ele>1499.9</ele>
        <time>2026-05-26T18:21:24</time>
      </trkpt>
      <trkpt lat="45.28569" lon="5.77606">
        <ele>1499.9</ele>
        <time>2026-05-26T18:21:26</time>
      </trkpt>
      <trkpt lat="45.28569" lon="5.77606">
        <ele>1499.9</ele>
        <time>2026-05-26T18:21:27</time>
      </trkpt>
      <trkpt lat="45.28569" lon="5.77607">
        <ele>1499.9</ele>
        <time>2026-05-26T18:21:28</time>
      </trkpt>
      <trkpt lat="45.28569" lon="5.77607">
        <ele>1499.9</ele>
        <time>2026-05-26T18:21:29</time>
      </trkpt>
      <trkpt lat="45.28569" lon="5.77608">
        <ele>1501.8</ele>
        <time>2026-05-26T18:21:30</time>
      </trkpt>
      <trkpt lat="45.28568" lon="5.77611">
        <ele>1501.8</ele>
        <time>2026-05-26T18:21:36</time>
      </trkpt>
      <trkpt lat="45.28567" lon="5.77612">
        <ele>1501.8</ele>
        <time>2026-05-26T18:21:38</time>
      </trkpt>
      <trkpt lat="45.28567" lon="5.77612">
        <ele>1501.8</ele>
        <time>2026-05-26T18:21:39</time>
      </trkpt>
      <trkpt lat="45.28565" lon="5.77613">
        <ele>1501.7</ele>
        <time>2026-05-26T18:21:41</time>
      </trkpt>
      <trkpt lat="45.28565" lon="5.77614">
        <ele>1501.7</ele>
        <time>2026-05-26T18:21:43</time>
      </trkpt>
      <trkpt lat="45.28565" lon="5.77615">
        <ele>1501.7</ele>
        <time>2026-05-26T18:21:44</time>
      </trkpt>
      <trkpt lat="45.28565" lon="5.77617">
        <ele>1501.7</ele>
        <time>2026-05-26T18:21:46</time>
      </trkpt>
      <trkpt lat="45.28566" lon="5.7762">
        <ele>1501.7</ele>
        <time>2026-05-26T18:21:49</time>
      </trkpt>
      <trkpt lat="45.28567" lon="5.7762">
        <ele>1503.0667</ele>
        <time>2026-05-26T18:21:51</time>
      </trkpt>
      <trkpt lat="45.28568" lon="5.77621">
        <ele>1503.0667</ele>
        <time>2026-05-26T18:21:53</time>
      </trkpt>
      <trkpt lat="45.28568" lon="5.77621">
        <ele>1503.0667</ele>
        <time>2026-05-26T18:21:54</time>
      </trkpt>
      <trkpt lat="45.28569" lon="5.77621">
        <ele>1503.0667</ele>
        <time>2026-05-26T18:21:56</time>
      </trkpt>
      <trkpt lat="45.2857" lon="5.77622">
        <ele>1503.0667</ele>
        <time>2026-05-26T18:21:58</time>
      </trkpt>
      <trkpt lat="45.2857" lon="5.77623">
        <ele>1503.0667</ele>
        <time>2026-05-26T18:21:59</time>
      </trkpt>
      <trkpt lat="45.28571" lon="5.77624">
        <ele>1506.5333</ele>
        <time>2026-05-26T18:22:01</time>
      </trkpt>
      <trkpt lat="45.28571" lon="5.77625">
        <ele>1506.5333</ele>
        <time>2026-05-26T18:22:03</time>
      </trkpt>
      <trkpt lat="45.28572" lon="5.77626">
        <ele>1506.5333</ele>
        <time>2026-05-26T18:22:05</time>
      </trkpt>
      <trkpt lat="45.28573" lon="5.77628">
        <ele>1506.5333</ele>
        <time>2026-05-26T18:22:08</time>
      </trkpt>
      <trkpt lat="45.28573" lon="5.77628">
        <ele>1506.5333</ele>
        <time>2026-05-26T18:22:09</time>
      </trkpt>
      <trkpt lat="45.28573" lon="5.77628">
        <ele>1509.5333</ele>
        <time>2026-05-26T18:22:10</time>
      </trkpt>
      <trkpt lat="45.28573" lon="5.77628">
        <ele>1509.5333</ele>
        <time>2026-05-26T18:22:11</time>
      </trkpt>
      <trkpt lat="45.28573" lon="5.77628">
        <ele>1509.5333</ele>
        <time>2026-05-26T18:22:12</time>
      </trkpt>
      <trkpt lat="45.28569" lon="5.77631">
        <ele>1509.7</ele>
        <time>2026-05-26T18:22:58</time>
      </trkpt>
      <trkpt lat="45.28568" lon="5.77632">
        <ele>1509.7</ele>
        <time>2026-05-26T18:23:00</time>
      </trkpt>
      <trkpt lat="45.28567" lon="5.77632">
        <ele>1509.7</ele>
        <time>2026-05-26T18:23:01</time>
      </trkpt>
      <trkpt lat="45.28564" lon="5.77634">
        <ele>1509.7</ele>
        <time>2026-05-26T18:23:05</time>
      </trkpt>
      <trkpt lat="45.28564" lon="5.77633">
        <ele>1509.7</ele>
        <time>2026-05-26T18:23:07</time>
      </trkpt>
      <trkpt lat="45.28564" lon="5.77633">
        <ele>1509.7</ele>
        <time>2026-05-26T18:23:08</time>
      </trkpt>
      <trkpt lat="45.28564" lon="5.77632">
        <ele>1509.7</ele>
        <time>2026-05-26T18:23:09</time>
      </trkpt>
      <trkpt lat="45.28565" lon="5.77632">
        <ele>1511.9667</ele>
        <time>2026-05-26T18:23:11</time>
      </trkpt>
      <trkpt lat="45.28563" lon="5.77632">
        <ele>1511.9667</ele>
        <time>2026-05-26T18:23:13</time>
      </trkpt>
      <trkpt lat="45.28562" lon="5.77633">
        <ele>1511.9667</ele>
        <time>2026-05-26T18:23:14</time>
      </trkpt>
      <trkpt lat="45.28562" lon="5.77633">
        <ele>1511.9667</ele>
        <time>2026-05-26T18:23:15</time>
      </trkpt>
      <trkpt lat="45.28559" lon="5.77633">
        <ele>1511.9667</ele>
        <time>2026-05-26T18:23:19</time>
      </trkpt>
      <trkpt lat="45.28558" lon="5.77633">
        <ele>1512.4</ele>
        <time>2026-05-26T18:23:20</time>
      </trkpt>
      <trkpt lat="45.28557" lon="5.77633">
        <ele>1512.4</ele>
        <time>2026-05-26T18:23:21</time>
      </trkpt>
      <trkpt lat="45.28555" lon="5.77634">
        <ele>1512.4</ele>
        <time>2026-05-26T18:23:24</time>
      </trkpt>
      <trkpt lat="45.28554" lon="5.77635">
        <ele>1512.4</ele>
        <time>2026-05-26T18:23:26</time>
      </trkpt>
      <trkpt lat="45.28553" lon="5.77635">
        <ele>1512.4</ele>
        <time>2026-05-26T18:23:28</time>
      </trkpt>
      <trkpt lat="45.2855" lon="5.77638">
        <ele>1514.9</ele>
        <time>2026-05-26T18:23:34</time>
      </trkpt>
      <trkpt lat="45.28549" lon="5.77638">
        <ele>1514.9</ele>
        <time>2026-05-26T18:23:35</time>
      </trkpt>
      <trkpt lat="45.28548" lon="5.77639">
        <ele>1514.9</ele>
        <time>2026-05-26T18:23:36</time>
      </trkpt>
      <trkpt lat="45.28548" lon="5.77641">
        <ele>1514.9</ele>
        <time>2026-05-26T18:23:38</time>
      </trkpt>
      <trkpt lat="45.28547" lon="5.77642">
        <ele>1517.2</ele>
        <time>2026-05-26T18:23:40</time>
      </trkpt>
      <trkpt lat="45.28545" lon="5.77642">
        <ele>1517.2</ele>
        <time>2026-05-26T18:23:42</time>
      </trkpt>
      <trkpt lat="45.28544" lon="5.77644">
        <ele>1517.2</ele>
        <time>2026-05-26T18:23:45</time>
      </trkpt>
      <trkpt lat="45.2854" lon="5.77646">
        <ele>1517.2</ele>
        <time>2026-05-26T18:23:49</time>
      </trkpt>
      <trkpt lat="45.28537" lon="5.77649">
        <ele>1521.2</ele>
        <time>2026-05-26T18:23:54</time>
      </trkpt>
      <trkpt lat="45.28534" lon="5.77649">
        <ele>1521.2</ele>
        <time>2026-05-26T18:23:56</time>
      </trkpt>
      <trkpt lat="45.28533" lon="5.77649">
        <ele>1521.2</ele>
        <time>2026-05-26T18:23:57</time>
      </trkpt>
      <trkpt lat="45.28533" lon="5.77649">
        <ele>1521.2</ele>
        <time>2026-05-26T18:23:58</time>
      </trkpt>
      <trkpt lat="45.28528" lon="5.7765">
        <ele>1522.5</ele>
        <time>2026-05-26T18:24:04</time>
      </trkpt>
      <trkpt lat="45.28527" lon="5.77651">
        <ele>1522.5</ele>
        <time>2026-05-26T18:24:06</time>
      </trkpt>
      <trkpt lat="45.28519" lon="5.77656">
        <ele>1525.7</ele>
        <time>2026-05-26T18:24:18</time>
      </trkpt>
      <trkpt lat="45.28518" lon="5.77656">
        <ele>1526.6666</ele>
        <time>2026-05-26T18:24:20</time>
      </trkpt>
      <trkpt lat="45.28517" lon="5.77657">
        <ele>1526.6666</ele>
        <time>2026-05-26T18:24:22</time>
      </trkpt>
      <trkpt lat="45.28517" lon="5.77658">
        <ele>1526.6666</ele>
        <time>2026-05-26T18:24:23</time>
      </trkpt>
      <trkpt lat="45.28518" lon="5.77658">
        <ele>1526.6666</ele>
        <time>2026-05-26T18:24:24</time>
      </trkpt>
      <trkpt lat="45.28518" lon="5.77659">
        <ele>1526.6666</ele>
        <time>2026-05-26T18:24:25</time>
      </trkpt>
      <trkpt lat="45.28519" lon="5.77659">
        <ele>1526.6666</ele>
        <time>2026-05-26T18:24:26</time>
      </trkpt>
      <trkpt lat="45.2852" lon="5.77659">
        <ele>1526.6666</ele>
        <time>2026-05-26T18:24:28</time>
      </trkpt>
      <trkpt lat="45.2852" lon="5.7766">
        <ele>1526.6666</ele>
        <time>2026-05-26T18:24:29</time>
      </trkpt>
      <trkpt lat="45.28521" lon="5.7766">
        <ele>1528.7</ele>
        <time>2026-05-26T18:24:30</time>
      </trkpt>
      <trkpt lat="45.28521" lon="5.7766">
        <ele>1528.7</ele>
        <time>2026-05-26T18:24:31</time>
      </trkpt>
      <trkpt lat="45.28522" lon="5.7766">
        <ele>1528.7</ele>
        <time>2026-05-26T18:24:32</time>
      </trkpt>
      <trkpt lat="45.28522" lon="5.77661">
        <ele>1528.7</ele>
        <time>2026-05-26T18:24:33</time>
      </trkpt>
      <trkpt lat="45.28523" lon="5.77661">
        <ele>1528.7</ele>
        <time>2026-05-26T18:24:34</time>
      </trkpt>
      <trkpt lat="45.28523" lon="5.77661">
        <ele>1528.7</ele>
        <time>2026-05-26T18:24:35</time>
      </trkpt>
      <trkpt lat="45.28525" lon="5.77663">
        <ele>1528.7</ele>
        <time>2026-05-26T18:24:38</time>
      </trkpt>
      <trkpt lat="45.28525" lon="5.77664">
        <ele>1528.7</ele>
        <time>2026-05-26T18:24:39</time>
      </trkpt>
      <trkpt lat="45.28526" lon="5.77665">
        <ele>1529.5</ele>
        <time>2026-05-26T18:24:41</time>
      </trkpt>
      <trkpt lat="45.28527" lon="5.77665">
        <ele>1529.5</ele>
        <time>2026-05-26T18:24:43</time>
      </trkpt>
      <trkpt lat="45.2853" lon="5.77667">
        <ele>1529.5</ele>
        <time>2026-05-26T18:24:47</time>
      </trkpt>
      <trkpt lat="45.28531" lon="5.77668">
        <ele>1529.5</ele>
        <time>2026-05-26T18:24:49</time>
      </trkpt>
      <trkpt lat="45.28532" lon="5.77668">
        <ele>1527.6</ele>
        <time>2026-05-26T18:24:50</time>
      </trkpt>
      <trkpt lat="45.28533" lon="5.77669">
        <ele>1527.6</ele>
        <time>2026-05-26T18:24:52</time>
      </trkpt>
      <trkpt lat="45.28533" lon="5.7767">
        <ele>1527.6</ele>
        <time>2026-05-26T18:24:53</time>
      </trkpt>
      <trkpt lat="45.28534" lon="5.77671">
        <ele>1527.6</ele>
        <time>2026-05-26T18:24:55</time>
      </trkpt>
      <trkpt lat="45.28536" lon="5.77672">
        <ele>1527.6</ele>
        <time>2026-05-26T18:24:58</time>
      </trkpt>
      <trkpt lat="45.28537" lon="5.77673">
        <ele>1531.2</ele>
        <time>2026-05-26T18:25:00</time>
      </trkpt>
      <trkpt lat="45.28538" lon="5.77674">
        <ele>1531.2</ele>
        <time>2026-05-26T18:25:01</time>
      </trkpt>
      <trkpt lat="45.28539" lon="5.77675">
        <ele>1531.2</ele>
        <time>2026-05-26T18:25:03</time>
      </trkpt>
      <trkpt lat="45.2854" lon="5.77675">
        <ele>1531.2</ele>
        <time>2026-05-26T18:25:04</time>
      </trkpt>
      <trkpt lat="45.2854" lon="5.77676">
        <ele>1531.2</ele>
        <time>2026-05-26T18:25:05</time>
      </trkpt>
      <trkpt lat="45.28541" lon="5.77677">
        <ele>1531.2</ele>
        <time>2026-05-26T18:25:06</time>
      </trkpt>
      <trkpt lat="45.28543" lon="5.77677">
        <ele>1531.2</ele>
        <time>2026-05-26T18:25:08</time>
      </trkpt>
      <trkpt lat="45.28545" lon="5.77677">
        <ele>1532.1</ele>
        <time>2026-05-26T18:25:11</time>
      </trkpt>
      <trkpt lat="45.28546" lon="5.77677">
        <ele>1532.1</ele>
        <time>2026-05-26T18:25:12</time>
      </trkpt>
      <trkpt lat="45.28547" lon="5.77678">
        <ele>1532.1</ele>
        <time>2026-05-26T18:25:13</time>
      </trkpt>
      <trkpt lat="45.28548" lon="5.77678">
        <ele>1532.1</ele>
        <time>2026-05-26T18:25:14</time>
      </trkpt>
      <trkpt lat="45.28549" lon="5.77678">
        <ele>1532.1</ele>
        <time>2026-05-26T18:25:15</time>
      </trkpt>
      <trkpt lat="45.2855" lon="5.7768">
        <ele>1532.1</ele>
        <time>2026-05-26T18:25:17</time>
      </trkpt>
      <trkpt lat="45.28551" lon="5.7768">
        <ele>1532.1</ele>
        <time>2026-05-26T18:25:18</time>
      </trkpt>
      <trkpt lat="45.28551" lon="5.77681">
        <ele>1532.1</ele>
        <time>2026-05-26T18:25:19</time>
      </trkpt>
      <trkpt lat="45.28552" lon="5.77681">
        <ele>1533.7</ele>
        <time>2026-05-26T18:25:20</time>
      </trkpt>
      <trkpt lat="45.28553" lon="5.77681">
        <ele>1533.7</ele>
        <time>2026-05-26T18:25:21</time>
      </trkpt>
      <trkpt lat="45.28555" lon="5.77685">
        <ele>1533.7</ele>
        <time>2026-05-26T18:25:26</time>
      </trkpt>
      <trkpt lat="45.28556" lon="5.77686">
        <ele>1533.7</ele>
        <time>2026-05-26T18:25:27</time>
      </trkpt>
      <trkpt lat="45.28556" lon="5.77686">
        <ele>1533.7</ele>
        <time>2026-05-26T18:25:28</time>
      </trkpt>
      <trkpt lat="45.2856" lon="5.77693">
        <ele>1535.9667</ele>
        <time>2026-05-26T18:25:36</time>
      </trkpt>
      <trkpt lat="45.28561" lon="5.77693">
        <ele>1535.9667</ele>
        <time>2026-05-26T18:25:37</time>
      </trkpt>
      <trkpt lat="45.2856" lon="5.77695">
        <ele>1535.9667</ele>
        <time>2026-05-26T18:25:38</time>
      </trkpt>
      <trkpt lat="45.2856" lon="5.77697">
        <ele>1536.9</ele>
        <time>2026-05-26T18:25:41</time>
      </trkpt>
      <trkpt lat="45.28554" lon="5.77703">
        <ele>1536.9</ele>
        <time>2026-05-26T18:25:46</time>
      </trkpt>
      <trkpt lat="45.28553" lon="5.77704">
        <ele>1536.9</ele>
        <time>2026-05-26T18:25:47</time>
      </trkpt>
      <trkpt lat="45.28549" lon="5.77706">
        <ele>1538</ele>
        <time>2026-05-26T18:25:50</time>
      </trkpt>
      <trkpt lat="45.28548" lon="5.77707">
        <ele>1538</ele>
        <time>2026-05-26T18:25:52</time>
      </trkpt>
      <trkpt lat="45.28547" lon="5.7771">
        <ele>1538</ele>
        <time>2026-05-26T18:25:55</time>
      </trkpt>
      <trkpt lat="45.28548" lon="5.77711">
        <ele>1538</ele>
        <time>2026-05-26T18:25:57</time>
      </trkpt>
      <trkpt lat="45.28548" lon="5.77712">
        <ele>1538</ele>
        <time>2026-05-26T18:25:59</time>
      </trkpt>
      <trkpt lat="45.28549" lon="5.77713">
        <ele>1537.7</ele>
        <time>2026-05-26T18:26:00</time>
      </trkpt>
      <trkpt lat="45.2855" lon="5.77714">
        <ele>1537.7</ele>
        <time>2026-05-26T18:26:01</time>
      </trkpt>
      <trkpt lat="45.28551" lon="5.77716">
        <ele>1537.7</ele>
        <time>2026-05-26T18:26:05</time>
      </trkpt>
      <trkpt lat="45.28552" lon="5.77716">
        <ele>1537.7</ele>
        <time>2026-05-26T18:26:06</time>
      </trkpt>
      <trkpt lat="45.28554" lon="5.77718">
        <ele>1539.2</ele>
        <time>2026-05-26T18:26:11</time>
      </trkpt>
      <trkpt lat="45.28555" lon="5.77718">
        <ele>1539.2</ele>
        <time>2026-05-26T18:26:12</time>
      </trkpt>
      <trkpt lat="45.28556" lon="5.77718">
        <ele>1539.2</ele>
        <time>2026-05-26T18:26:14</time>
      </trkpt>
      <trkpt lat="45.28557" lon="5.77719">
        <ele>1539.2</ele>
        <time>2026-05-26T18:26:15</time>
      </trkpt>
      <trkpt lat="45.28558" lon="5.77719">
        <ele>1539.2</ele>
        <time>2026-05-26T18:26:16</time>
      </trkpt>
      <trkpt lat="45.28558" lon="5.7772">
        <ele>1539.2</ele>
        <time>2026-05-26T18:26:17</time>
      </trkpt>
      <trkpt lat="45.28558" lon="5.7772">
        <ele>1539.2</ele>
        <time>2026-05-26T18:26:18</time>
      </trkpt>
      <trkpt lat="45.28559" lon="5.77722">
        <ele>1542.8</ele>
        <time>2026-05-26T18:26:21</time>
      </trkpt>
      <trkpt lat="45.28561" lon="5.77724">
        <ele>1542.8</ele>
        <time>2026-05-26T18:26:25</time>
      </trkpt>
      <trkpt lat="45.28562" lon="5.77726">
        <ele>1542.8</ele>
        <time>2026-05-26T18:26:28</time>
      </trkpt>
      <trkpt lat="45.28563" lon="5.77727">
        <ele>1542.8</ele>
        <time>2026-05-26T18:26:29</time>
      </trkpt>
      <trkpt lat="45.28563" lon="5.77727">
        <ele>1544.7333</ele>
        <time>2026-05-26T18:26:30</time>
      </trkpt>
      <trkpt lat="45.28563" lon="5.77728">
        <ele>1544.7333</ele>
        <time>2026-05-26T18:26:31</time>
      </trkpt>
      <trkpt lat="45.28564" lon="5.77728">
        <ele>1544.7333</ele>
        <time>2026-05-26T18:26:32</time>
      </trkpt>
      <trkpt lat="45.28566" lon="5.7773">
        <ele>1544.7333</ele>
        <time>2026-05-26T18:26:37</time>
      </trkpt>
      <trkpt lat="45.28566" lon="5.7773">
        <ele>1544.7333</ele>
        <time>2026-05-26T18:26:38</time>
      </trkpt>
      <trkpt lat="45.28567" lon="5.77733">
        <ele>1545.9</ele>
        <time>2026-05-26T18:26:42</time>
      </trkpt>
      <trkpt lat="45.28567" lon="5.77734">
        <ele>1545.9</ele>
        <time>2026-05-26T18:26:43</time>
      </trkpt>
      <trkpt lat="45.28567" lon="5.77735">
        <ele>1545.9</ele>
        <time>2026-05-26T18:26:44</time>
      </trkpt>
      <trkpt lat="45.28569" lon="5.77739">
        <ele>1545.9</ele>
        <time>2026-05-26T18:26:47</time>
      </trkpt>
      <trkpt lat="45.28569" lon="5.7774">
        <ele>1545.9</ele>
        <time>2026-05-26T18:26:48</time>
      </trkpt>
      <trkpt lat="45.2857" lon="5.77741">
        <ele>1545.9</ele>
        <time>2026-05-26T18:26:49</time>
      </trkpt>
      <trkpt lat="45.2857" lon="5.77741">
        <ele>1547.3</ele>
        <time>2026-05-26T18:26:50</time>
      </trkpt>
      <trkpt lat="45.28571" lon="5.77744">
        <ele>1547.3</ele>
        <time>2026-05-26T18:26:53</time>
      </trkpt>
      <trkpt lat="45.28571" lon="5.77748">
        <ele>1547.3</ele>
        <time>2026-05-26T18:26:58</time>
      </trkpt>
      <trkpt lat="45.28571" lon="5.77748">
        <ele>1547.3</ele>
        <time>2026-05-26T18:26:59</time>
      </trkpt>
      <trkpt lat="45.28571" lon="5.77749">
        <ele>1546.5</ele>
        <time>2026-05-26T18:27:00</time>
      </trkpt>
      <trkpt lat="45.28572" lon="5.7775">
        <ele>1546.5</ele>
        <time>2026-05-26T18:27:03</time>
      </trkpt>
      <trkpt lat="45.28574" lon="5.77755">
        <ele>1546.5</ele>
        <time>2026-05-26T18:27:08</time>
      </trkpt>
      <trkpt lat="45.28574" lon="5.77758">
        <ele>1547.8</ele>
        <time>2026-05-26T18:27:10</time>
      </trkpt>
      <trkpt lat="45.28575" lon="5.77758">
        <ele>1547.8</ele>
        <time>2026-05-26T18:27:11</time>
      </trkpt>
      <trkpt lat="45.28575" lon="5.77759">
        <ele>1547.8</ele>
        <time>2026-05-26T18:27:13</time>
      </trkpt>
      <trkpt lat="45.28575" lon="5.77759">
        <ele>1547.8</ele>
        <time>2026-05-26T18:27:15</time>
      </trkpt>
      <trkpt lat="45.28576" lon="5.7776">
        <ele>1547.8</ele>
        <time>2026-05-26T18:27:18</time>
      </trkpt>
      <trkpt lat="45.28577" lon="5.77761">
        <ele>1547.8</ele>
        <time>2026-05-26T18:27:19</time>
      </trkpt>
      <trkpt lat="45.28578" lon="5.77762">
        <ele>1549.7</ele>
        <time>2026-05-26T18:27:22</time>
      </trkpt>
      <trkpt lat="45.28579" lon="5.77764">
        <ele>1549.7</ele>
        <time>2026-05-26T18:27:26</time>
      </trkpt>
      <trkpt lat="45.28579" lon="5.77765">
        <ele>1549.7</ele>
        <time>2026-05-26T18:27:27</time>
      </trkpt>
      <trkpt lat="45.28579" lon="5.77766">
        <ele>1549.7</ele>
        <time>2026-05-26T18:27:29</time>
      </trkpt>
      <trkpt lat="45.2858" lon="5.77767">
        <ele>1552.7</ele>
        <time>2026-05-26T18:27:30</time>
      </trkpt>
      <trkpt lat="45.28581" lon="5.77767">
        <ele>1552.7</ele>
        <time>2026-05-26T18:27:31</time>
      </trkpt>
      <trkpt lat="45.28581" lon="5.77769">
        <ele>1552.7</ele>
        <time>2026-05-26T18:27:34</time>
      </trkpt>
      <trkpt lat="45.28582" lon="5.77772">
        <ele>1552.7</ele>
        <time>2026-05-26T18:27:37</time>
      </trkpt>
      <trkpt lat="45.28583" lon="5.77774">
        <ele>1552.7</ele>
        <time>2026-05-26T18:27:39</time>
      </trkpt>
      <trkpt lat="45.28587" lon="5.77779">
        <ele>1555.6</ele>
        <time>2026-05-26T18:27:47</time>
      </trkpt>
      <trkpt lat="45.28587" lon="5.7778">
        <ele>1555.6</ele>
        <time>2026-05-26T18:27:48</time>
      </trkpt>
      <trkpt lat="45.28587" lon="5.77781">
        <ele>1555.6</ele>
        <time>2026-05-26T18:27:49</time>
      </trkpt>
      <trkpt lat="45.28587" lon="5.77784">
        <ele>1558.1</ele>
        <time>2026-05-26T18:27:53</time>
      </trkpt>
      <trkpt lat="45.28588" lon="5.77784">
        <ele>1558.1</ele>
        <time>2026-05-26T18:27:54</time>
      </trkpt>
      <trkpt lat="45.28588" lon="5.77788">
        <ele>1558.1</ele>
        <time>2026-05-26T18:27:57</time>
      </trkpt>
      <trkpt lat="45.28588" lon="5.77789">
        <ele>1558.1</ele>
        <time>2026-05-26T18:27:59</time>
      </trkpt>
      <trkpt lat="45.28588" lon="5.77791">
        <ele>1560</ele>
        <time>2026-05-26T18:28:03</time>
      </trkpt>
      <trkpt lat="45.28588" lon="5.77792">
        <ele>1560</ele>
        <time>2026-05-26T18:28:04</time>
      </trkpt>
      <trkpt lat="45.28588" lon="5.77793">
        <ele>1560</ele>
        <time>2026-05-26T18:28:05</time>
      </trkpt>
      <trkpt lat="45.28589" lon="5.77794">
        <ele>1560</ele>
        <time>2026-05-26T18:28:06</time>
      </trkpt>
      <trkpt lat="45.28588" lon="5.77795">
        <ele>1560</ele>
        <time>2026-05-26T18:28:07</time>
      </trkpt>
      <trkpt lat="45.28589" lon="5.77796">
        <ele>1560</ele>
        <time>2026-05-26T18:28:08</time>
      </trkpt>
      <trkpt lat="45.28588" lon="5.77797">
        <ele>1560</ele>
        <time>2026-05-26T18:28:09</time>
      </trkpt>
      <trkpt lat="45.28588" lon="5.77798">
        <ele>1562.8</ele>
        <time>2026-05-26T18:28:10</time>
      </trkpt>
      <trkpt lat="45.28589" lon="5.77799">
        <ele>1562.8</ele>
        <time>2026-05-26T18:28:11</time>
      </trkpt>
      <trkpt lat="45.28589" lon="5.77801">
        <ele>1562.8</ele>
        <time>2026-05-26T18:28:13</time>
      </trkpt>
      <trkpt lat="45.2859" lon="5.77803">
        <ele>1562.8</ele>
        <time>2026-05-26T18:28:16</time>
      </trkpt>
      <trkpt lat="45.28591" lon="5.77805">
        <ele>1562.8</ele>
        <time>2026-05-26T18:28:18</time>
      </trkpt>
      <trkpt lat="45.2859" lon="5.77806">
        <ele>1562.8</ele>
        <time>2026-05-26T18:28:19</time>
      </trkpt>
      <trkpt lat="45.28591" lon="5.77807">
        <ele>1564.6</ele>
        <time>2026-05-26T18:28:21</time>
      </trkpt>
      <trkpt lat="45.28591" lon="5.77808">
        <ele>1564.6</ele>
        <time>2026-05-26T18:28:22</time>
      </trkpt>
      <trkpt lat="45.28592" lon="5.7781">
        <ele>1564.6</ele>
        <time>2026-05-26T18:28:24</time>
      </trkpt>
      <trkpt lat="45.28592" lon="5.77811">
        <ele>1564.6</ele>
        <time>2026-05-26T18:28:26</time>
      </trkpt>
      <trkpt lat="45.28594" lon="5.77817">
        <ele>1566</ele>
        <time>2026-05-26T18:28:32</time>
      </trkpt>
      <trkpt lat="45.28595" lon="5.77821">
        <ele>1566</ele>
        <time>2026-05-26T18:28:36</time>
      </trkpt>
      <trkpt lat="45.28595" lon="5.77824">
        <ele>1566</ele>
        <time>2026-05-26T18:28:39</time>
      </trkpt>
      <trkpt lat="45.28595" lon="5.77825">
        <ele>1568.0667</ele>
        <time>2026-05-26T18:28:40</time>
      </trkpt>
      <trkpt lat="45.28595" lon="5.77825">
        <ele>1568.0667</ele>
        <time>2026-05-26T18:28:41</time>
      </trkpt>
      <trkpt lat="45.28596" lon="5.77827">
        <ele>1568.0667</ele>
        <time>2026-05-26T18:28:44</time>
      </trkpt>
      <trkpt lat="45.28597" lon="5.77827">
        <ele>1568.0667</ele>
        <time>2026-05-26T18:28:45</time>
      </trkpt>
      <trkpt lat="45.28597" lon="5.77828">
        <ele>1568.0667</ele>
        <time>2026-05-26T18:28:47</time>
      </trkpt>
      <trkpt lat="45.28598" lon="5.77829">
        <ele>1568.0667</ele>
        <time>2026-05-26T18:28:48</time>
      </trkpt>
      <trkpt lat="45.286" lon="5.77835">
        <ele>1568.8</ele>
        <time>2026-05-26T18:28:54</time>
      </trkpt>
      <trkpt lat="45.286" lon="5.77836">
        <ele>1568.8</ele>
        <time>2026-05-26T18:28:55</time>
      </trkpt>
      <trkpt lat="45.28601" lon="5.77838">
        <ele>1568.8</ele>
        <time>2026-05-26T18:28:57</time>
      </trkpt>
      <trkpt lat="45.28601" lon="5.77839">
        <ele>1568.8</ele>
        <time>2026-05-26T18:28:58</time>
      </trkpt>
      <trkpt lat="45.28601" lon="5.77843">
        <ele>1569.9</ele>
        <time>2026-05-26T18:29:02</time>
      </trkpt>
      <trkpt lat="45.28601" lon="5.77843">
        <ele>1569.9</ele>
        <time>2026-05-26T18:29:03</time>
      </trkpt>
      <trkpt lat="45.28601" lon="5.77843">
        <ele>1569.9</ele>
        <time>2026-05-26T18:29:04</time>
      </trkpt>
      <trkpt lat="45.28601" lon="5.77844">
        <ele>1569.9</ele>
        <time>2026-05-26T18:29:06</time>
      </trkpt>
      <trkpt lat="45.28601" lon="5.77845">
        <ele>1569.9</ele>
        <time>2026-05-26T18:29:07</time>
      </trkpt>
      <trkpt lat="45.28601" lon="5.77845">
        <ele>1569.9</ele>
        <time>2026-05-26T18:29:08</time>
      </trkpt>
      <trkpt lat="45.28601" lon="5.77845">
        <ele>1569.9</ele>
        <time>2026-05-26T18:29:09</time>
      </trkpt>
      <trkpt lat="45.28602" lon="5.77846">
        <ele>1572</ele>
        <time>2026-05-26T18:29:10</time>
      </trkpt>
      <trkpt lat="45.28602" lon="5.77846">
        <ele>1572</ele>
        <time>2026-05-26T18:29:12</time>
      </trkpt>
      <trkpt lat="45.28602" lon="5.77846">
        <ele>1572</ele>
        <time>2026-05-26T18:29:13</time>
      </trkpt>
      <trkpt lat="45.28602" lon="5.77848">
        <ele>1572</ele>
        <time>2026-05-26T18:29:17</time>
      </trkpt>
      <trkpt lat="45.28602" lon="5.7785">
        <ele>1573.7</ele>
        <time>2026-05-26T18:29:21</time>
      </trkpt>
      <trkpt lat="45.28602" lon="5.77851">
        <ele>1573.7</ele>
        <time>2026-05-26T18:29:22</time>
      </trkpt>
      <trkpt lat="45.28604" lon="5.77854">
        <ele>1573.7</ele>
        <time>2026-05-26T18:29:26</time>
      </trkpt>
      <trkpt lat="45.28605" lon="5.77856">
        <ele>1573.7</ele>
        <time>2026-05-26T18:29:29</time>
      </trkpt>
      <trkpt lat="45.28605" lon="5.77857">
        <ele>1574.2</ele>
        <time>2026-05-26T18:29:30</time>
      </trkpt>
      <trkpt lat="45.28605" lon="5.77858">
        <ele>1574.2</ele>
        <time>2026-05-26T18:29:31</time>
      </trkpt>
      <trkpt lat="45.28605" lon="5.77859">
        <ele>1574.2</ele>
        <time>2026-05-26T18:29:32</time>
      </trkpt>
      <trkpt lat="45.28605" lon="5.7786">
        <ele>1574.2</ele>
        <time>2026-05-26T18:29:33</time>
      </trkpt>
      <trkpt lat="45.28605" lon="5.77863">
        <ele>1574.2</ele>
        <time>2026-05-26T18:29:35</time>
      </trkpt>
      <trkpt lat="45.28606" lon="5.77864">
        <ele>1574.2</ele>
        <time>2026-05-26T18:29:36</time>
      </trkpt>
      <trkpt lat="45.28607" lon="5.77865">
        <ele>1574.2</ele>
        <time>2026-05-26T18:29:38</time>
      </trkpt>
      <trkpt lat="45.28608" lon="5.77866">
        <ele>1576</ele>
        <time>2026-05-26T18:29:40</time>
      </trkpt>
      <trkpt lat="45.2861" lon="5.77868">
        <ele>1576</ele>
        <time>2026-05-26T18:29:44</time>
      </trkpt>
      <trkpt lat="45.2861" lon="5.7787">
        <ele>1576</ele>
        <time>2026-05-26T18:29:46</time>
      </trkpt>
      <trkpt lat="45.2861" lon="5.77871">
        <ele>1576</ele>
        <time>2026-05-26T18:29:47</time>
      </trkpt>
      <trkpt lat="45.2861" lon="5.77871">
        <ele>1576</ele>
        <time>2026-05-26T18:29:48</time>
      </trkpt>
      <trkpt lat="45.2861" lon="5.77872">
        <ele>1576</ele>
        <time>2026-05-26T18:29:49</time>
      </trkpt>
      <trkpt lat="45.28611" lon="5.77873">
        <ele>1576.7</ele>
        <time>2026-05-26T18:29:50</time>
      </trkpt>
      <trkpt lat="45.28611" lon="5.77873">
        <ele>1576.7</ele>
        <time>2026-05-26T18:29:51</time>
      </trkpt>
      <trkpt lat="45.28611" lon="5.77873">
        <ele>1576.7</ele>
        <time>2026-05-26T18:29:52</time>
      </trkpt>
      <trkpt lat="45.28612" lon="5.77872">
        <ele>1576.7</ele>
        <time>2026-05-26T18:29:53</time>
      </trkpt>
      <trkpt lat="45.28613" lon="5.77871">
        <ele>1576.7</ele>
        <time>2026-05-26T18:29:54</time>
      </trkpt>
      <trkpt lat="45.28614" lon="5.77871">
        <ele>1576.7</ele>
        <time>2026-05-26T18:29:55</time>
      </trkpt>
      <trkpt lat="45.28617" lon="5.77872">
        <ele>1580.2</ele>
        <time>2026-05-26T18:30:01</time>
      </trkpt>
      <trkpt lat="45.2862" lon="5.77874">
        <ele>1580.2</ele>
        <time>2026-05-26T18:30:06</time>
      </trkpt>
      <trkpt lat="45.28621" lon="5.77875">
        <ele>1580.2</ele>
        <time>2026-05-26T18:30:09</time>
      </trkpt>
      <trkpt lat="45.28623" lon="5.77877">
        <ele>1586.3667</ele>
        <time>2026-05-26T18:30:11</time>
      </trkpt>
      <trkpt lat="45.28623" lon="5.77878">
        <ele>1586.3667</ele>
        <time>2026-05-26T18:30:12</time>
      </trkpt>
      <trkpt lat="45.28623" lon="5.77878">
        <ele>1586.3667</ele>
        <time>2026-05-26T18:30:13</time>
      </trkpt>
      <trkpt lat="45.28624" lon="5.77879">
        <ele>1586.3667</ele>
        <time>2026-05-26T18:30:15</time>
      </trkpt>
      <trkpt lat="45.28625" lon="5.77879">
        <ele>1586.3667</ele>
        <time>2026-05-26T18:30:17</time>
      </trkpt>
      <trkpt lat="45.28625" lon="5.77879">
        <ele>1586.3667</ele>
        <time>2026-05-26T18:30:18</time>
      </trkpt>
      <trkpt lat="45.28626" lon="5.7788">
        <ele>1587.8</ele>
        <time>2026-05-26T18:30:22</time>
      </trkpt>
      <trkpt lat="45.28627" lon="5.77881">
        <ele>1587.8</ele>
        <time>2026-05-26T18:30:23</time>
      </trkpt>
      <trkpt lat="45.28627" lon="5.77881">
        <ele>1587.8</ele>
        <time>2026-05-26T18:30:25</time>
      </trkpt>
      <trkpt lat="45.28627" lon="5.77882">
        <ele>1587.8</ele>
        <time>2026-05-26T18:30:27</time>
      </trkpt>
      <trkpt lat="45.28629" lon="5.77883">
        <ele>1589.7</ele>
        <time>2026-05-26T18:30:34</time>
      </trkpt>
      <trkpt lat="45.28629" lon="5.77883">
        <ele>1589.7</ele>
        <time>2026-05-26T18:30:35</time>
      </trkpt>
      <trkpt lat="45.2863" lon="5.77884">
        <ele>1589.7</ele>
        <time>2026-05-26T18:30:36</time>
      </trkpt>
      <trkpt lat="45.2863" lon="5.77884">
        <ele>1589.7</ele>
        <time>2026-05-26T18:30:37</time>
      </trkpt>
      <trkpt lat="45.28632" lon="5.77885">
        <ele>1591.9</ele>
        <time>2026-05-26T18:30:40</time>
      </trkpt>
      <trkpt lat="45.28633" lon="5.77885">
        <ele>1591.9</ele>
        <time>2026-05-26T18:30:41</time>
      </trkpt>
      <trkpt lat="45.28636" lon="5.77887">
        <ele>1591.9</ele>
        <time>2026-05-26T18:30:47</time>
      </trkpt>
      <trkpt lat="45.28637" lon="5.77888">
        <ele>1591.9</ele>
        <time>2026-05-26T18:30:48</time>
      </trkpt>
      <trkpt lat="45.28638" lon="5.7789">
        <ele>1593</ele>
        <time>2026-05-26T18:30:50</time>
      </trkpt>
      <trkpt lat="45.28638" lon="5.77891">
        <ele>1593</ele>
        <time>2026-05-26T18:30:52</time>
      </trkpt>
      <trkpt lat="45.28638" lon="5.77891">
        <ele>1593</ele>
        <time>2026-05-26T18:30:53</time>
      </trkpt>
      <trkpt lat="45.28639" lon="5.77891">
        <ele>1593</ele>
        <time>2026-05-26T18:30:54</time>
      </trkpt>
      <trkpt lat="45.28639" lon="5.77891">
        <ele>1593</ele>
        <time>2026-05-26T18:30:55</time>
      </trkpt>
      <trkpt lat="45.2864" lon="5.77891">
        <ele>1593</ele>
        <time>2026-05-26T18:30:56</time>
      </trkpt>
      <trkpt lat="45.2864" lon="5.77891">
        <ele>1593</ele>
        <time>2026-05-26T18:30:57</time>
      </trkpt>
      <trkpt lat="45.28641" lon="5.77891">
        <ele>1593</ele>
        <time>2026-05-26T18:30:58</time>
      </trkpt>
      <trkpt lat="45.28644" lon="5.77893">
        <ele>1595.3</ele>
        <time>2026-05-26T18:31:03</time>
      </trkpt>
      <trkpt lat="45.28645" lon="5.77893">
        <ele>1595.3</ele>
        <time>2026-05-26T18:31:05</time>
      </trkpt>
      <trkpt lat="45.28645" lon="5.77894">
        <ele>1595.3</ele>
        <time>2026-05-26T18:31:06</time>
      </trkpt>
      <trkpt lat="45.28645" lon="5.77894">
        <ele>1595.3</ele>
        <time>2026-05-26T18:31:07</time>
      </trkpt>
      <trkpt lat="45.28646" lon="5.77894">
        <ele>1595.3</ele>
        <time>2026-05-26T18:31:08</time>
      </trkpt>
      <trkpt lat="45.28646" lon="5.77895">
        <ele>1595.3</ele>
        <time>2026-05-26T18:31:09</time>
      </trkpt>
      <trkpt lat="45.28647" lon="5.77896">
        <ele>1597.1</ele>
        <time>2026-05-26T18:31:11</time>
      </trkpt>
      <trkpt lat="45.28648" lon="5.77897">
        <ele>1597.1</ele>
        <time>2026-05-26T18:31:12</time>
      </trkpt>
      <trkpt lat="45.28648" lon="5.77897">
        <ele>1597.1</ele>
        <time>2026-05-26T18:31:14</time>
      </trkpt>
      <trkpt lat="45.28648" lon="5.77898">
        <ele>1597.1</ele>
        <time>2026-05-26T18:31:15</time>
      </trkpt>
      <trkpt lat="45.28648" lon="5.77898">
        <ele>1597.1</ele>
        <time>2026-05-26T18:31:16</time>
      </trkpt>
      <trkpt lat="45.28649" lon="5.77899">
        <ele>1597.1</ele>
        <time>2026-05-26T18:31:17</time>
      </trkpt>
      <trkpt lat="45.28645" lon="5.77903">
        <ele>1599.7</ele>
        <time>2026-05-26T18:31:24</time>
      </trkpt>
      <trkpt lat="45.28644" lon="5.77904">
        <ele>1599.7</ele>
        <time>2026-05-26T18:31:26</time>
      </trkpt>
      <trkpt lat="45.28645" lon="5.77905">
        <ele>1599.7</ele>
        <time>2026-05-26T18:31:28</time>
      </trkpt>
      <trkpt lat="45.28644" lon="5.77906">
        <ele>1599.7</ele>
        <time>2026-05-26T18:31:29</time>
      </trkpt>
      <trkpt lat="45.28642" lon="5.7791">
        <ele>1601</ele>
        <time>2026-05-26T18:31:35</time>
      </trkpt>
      <trkpt lat="45.28641" lon="5.77912">
        <ele>1601</ele>
        <time>2026-05-26T18:31:39</time>
      </trkpt>
      <trkpt lat="45.2864" lon="5.77912">
        <ele>1601.1</ele>
        <time>2026-05-26T18:31:40</time>
      </trkpt>
      <trkpt lat="45.28637" lon="5.77914">
        <ele>1601.1</ele>
        <time>2026-05-26T18:31:45</time>
      </trkpt>
      <trkpt lat="45.28636" lon="5.77915">
        <ele>1601.1</ele>
        <time>2026-05-26T18:31:47</time>
      </trkpt>
      <trkpt lat="45.28636" lon="5.77916">
        <ele>1601.1</ele>
        <time>2026-05-26T18:31:49</time>
      </trkpt>
      <trkpt lat="45.28636" lon="5.77916">
        <ele>1602.6</ele>
        <time>2026-05-26T18:31:50</time>
      </trkpt>
      <trkpt lat="45.28635" lon="5.77916">
        <ele>1602.6</ele>
        <time>2026-05-26T18:31:51</time>
      </trkpt>
      <trkpt lat="45.28635" lon="5.77917">
        <ele>1602.6</ele>
        <time>2026-05-26T18:31:52</time>
      </trkpt>
      <trkpt lat="45.28635" lon="5.77917">
        <ele>1602.6</ele>
        <time>2026-05-26T18:31:53</time>
      </trkpt>
      <trkpt lat="45.28635" lon="5.77918">
        <ele>1602.6</ele>
        <time>2026-05-26T18:31:54</time>
      </trkpt>
      <trkpt lat="45.28636" lon="5.77919">
        <ele>1602.6</ele>
        <time>2026-05-26T18:31:55</time>
      </trkpt>
      <trkpt lat="45.28635" lon="5.7792">
        <ele>1602.6</ele>
        <time>2026-05-26T18:31:56</time>
      </trkpt>
      <trkpt lat="45.28635" lon="5.77921">
        <ele>1602.6</ele>
        <time>2026-05-26T18:31:57</time>
      </trkpt>
      <trkpt lat="45.28635" lon="5.77921">
        <ele>1602.6</ele>
        <time>2026-05-26T18:31:58</time>
      </trkpt>
      <trkpt lat="45.28635" lon="5.77922">
        <ele>1602.6</ele>
        <time>2026-05-26T18:31:59</time>
      </trkpt>
      <trkpt lat="45.28634" lon="5.77922">
        <ele>1602.5</ele>
        <time>2026-05-26T18:32:00</time>
      </trkpt>
      <trkpt lat="45.28631" lon="5.77925">
        <ele>1602.5</ele>
        <time>2026-05-26T18:32:07</time>
      </trkpt>
      <trkpt lat="45.28631" lon="5.77926">
        <ele>1602.5</ele>
        <time>2026-05-26T18:32:08</time>
      </trkpt>
      <trkpt lat="45.28631" lon="5.77926">
        <ele>1602.5</ele>
        <time>2026-05-26T18:32:09</time>
      </trkpt>
      <trkpt lat="45.2863" lon="5.77928">
        <ele>1604</ele>
        <time>2026-05-26T18:32:11</time>
      </trkpt>
      <trkpt lat="45.28629" lon="5.77933">
        <ele>1604</ele>
        <time>2026-05-26T18:32:17</time>
      </trkpt>
      <trkpt lat="45.28629" lon="5.77933">
        <ele>1604</ele>
        <time>2026-05-26T18:32:18</time>
      </trkpt>
      <trkpt lat="45.28628" lon="5.77933">
        <ele>1604</ele>
        <time>2026-05-26T18:32:19</time>
      </trkpt>
      <trkpt lat="45.28628" lon="5.77934">
        <ele>1604.6</ele>
        <time>2026-05-26T18:32:20</time>
      </trkpt>
      <trkpt lat="45.28628" lon="5.77934">
        <ele>1604.6</ele>
        <time>2026-05-26T18:32:22</time>
      </trkpt>
      <trkpt lat="45.28627" lon="5.77935">
        <ele>1604.6</ele>
        <time>2026-05-26T18:32:24</time>
      </trkpt>
      <trkpt lat="45.28626" lon="5.77935">
        <ele>1604.6</ele>
        <time>2026-05-26T18:32:25</time>
      </trkpt>
      <trkpt lat="45.28623" lon="5.77937">
        <ele>1606.7</ele>
        <time>2026-05-26T18:32:31</time>
      </trkpt>
      <trkpt lat="45.28623" lon="5.77938">
        <ele>1606.7</ele>
        <time>2026-05-26T18:32:32</time>
      </trkpt>
      <trkpt lat="45.28623" lon="5.77938">
        <ele>1606.7</ele>
        <time>2026-05-26T18:32:33</time>
      </trkpt>
      <trkpt lat="45.28622" lon="5.77939">
        <ele>1606.7</ele>
        <time>2026-05-26T18:32:34</time>
      </trkpt>
      <trkpt lat="45.28622" lon="5.77939">
        <ele>1606.7</ele>
        <time>2026-05-26T18:32:35</time>
      </trkpt>
      <trkpt lat="45.28622" lon="5.7794">
        <ele>1606.7</ele>
        <time>2026-05-26T18:32:36</time>
      </trkpt>
      <trkpt lat="45.28621" lon="5.7794">
        <ele>1606.7</ele>
        <time>2026-05-26T18:32:38</time>
      </trkpt>
      <trkpt lat="45.2862" lon="5.77941">
        <ele>1606.7</ele>
        <time>2026-05-26T18:32:39</time>
      </trkpt>
      <trkpt lat="45.28619" lon="5.77942">
        <ele>1609.6</ele>
        <time>2026-05-26T18:32:41</time>
      </trkpt>
      <trkpt lat="45.28619" lon="5.77942">
        <ele>1609.6</ele>
        <time>2026-05-26T18:32:42</time>
      </trkpt>
      <trkpt lat="45.28619" lon="5.77942">
        <ele>1609.6</ele>
        <time>2026-05-26T18:32:43</time>
      </trkpt>
      <trkpt lat="45.28618" lon="5.77945">
        <ele>1609.6</ele>
        <time>2026-05-26T18:32:47</time>
      </trkpt>
      <trkpt lat="45.28618" lon="5.77946">
        <ele>1609.6</ele>
        <time>2026-05-26T18:32:48</time>
      </trkpt>
      <trkpt lat="45.28616" lon="5.77949">
        <ele>1611.7</ele>
        <time>2026-05-26T18:32:53</time>
      </trkpt>
      <trkpt lat="45.28613" lon="5.77951">
        <ele>1611.7</ele>
        <time>2026-05-26T18:32:58</time>
      </trkpt>
      <trkpt lat="45.28612" lon="5.77951">
        <ele>1612.8</ele>
        <time>2026-05-26T18:33:00</time>
      </trkpt>
      <trkpt lat="45.28611" lon="5.77953">
        <ele>1612.8</ele>
        <time>2026-05-26T18:33:03</time>
      </trkpt>
      <trkpt lat="45.2861" lon="5.77955">
        <ele>1612.8</ele>
        <time>2026-05-26T18:33:06</time>
      </trkpt>
      <trkpt lat="45.2861" lon="5.77955">
        <ele>1612.8</ele>
        <time>2026-05-26T18:33:07</time>
      </trkpt>
      <trkpt lat="45.2861" lon="5.77956">
        <ele>1612.8</ele>
        <time>2026-05-26T18:33:09</time>
      </trkpt>
      <trkpt lat="45.2861" lon="5.77957">
        <ele>1614.8</ele>
        <time>2026-05-26T18:33:11</time>
      </trkpt>
      <trkpt lat="45.2861" lon="5.77957">
        <ele>1614.8</ele>
        <time>2026-05-26T18:33:12</time>
      </trkpt>
      <trkpt lat="45.28608" lon="5.77959">
        <ele>1614.8</ele>
        <time>2026-05-26T18:33:16</time>
      </trkpt>
      <trkpt lat="45.28603" lon="5.77962">
        <ele>1616.5667</ele>
        <time>2026-05-26T18:33:25</time>
      </trkpt>
      <trkpt lat="45.28601" lon="5.77964">
        <ele>1617.3</ele>
        <time>2026-05-26T18:33:32</time>
      </trkpt>
      <trkpt lat="45.28598" lon="5.77961">
        <ele>1617.3</ele>
        <time>2026-05-26T18:33:36</time>
      </trkpt>
      <trkpt lat="45.28597" lon="5.77961">
        <ele>1617.3</ele>
        <time>2026-05-26T18:33:37</time>
      </trkpt>
      <trkpt lat="45.28596" lon="5.77961">
        <ele>1617.3</ele>
        <time>2026-05-26T18:33:39</time>
      </trkpt>
      <trkpt lat="45.28595" lon="5.77961">
        <ele>1620.5</ele>
        <time>2026-05-26T18:33:40</time>
      </trkpt>
      <trkpt lat="45.28593" lon="5.77962">
        <ele>1620.5</ele>
        <time>2026-05-26T18:33:45</time>
      </trkpt>
      <trkpt lat="45.28592" lon="5.77963">
        <ele>1620.5</ele>
        <time>2026-05-26T18:33:48</time>
      </trkpt>
      <trkpt lat="45.28588" lon="5.77966">
        <ele>1620.6666</ele>
        <time>2026-05-26T18:33:54</time>
      </trkpt>
      <trkpt lat="45.28588" lon="5.77966">
        <ele>1620.6666</ele>
        <time>2026-05-26T18:33:56</time>
      </trkpt>
      <trkpt lat="45.28587" lon="5.77965">
        <ele>1620.6666</ele>
        <time>2026-05-26T18:33:57</time>
      </trkpt>
      <trkpt lat="45.28586" lon="5.77964">
        <ele>1620.6666</ele>
        <time>2026-05-26T18:33:59</time>
      </trkpt>
      <trkpt lat="45.28585" lon="5.77961">
        <ele>1624.7</ele>
        <time>2026-05-26T18:34:02</time>
      </trkpt>
      <trkpt lat="45.28585" lon="5.7796">
        <ele>1624.7</ele>
        <time>2026-05-26T18:34:04</time>
      </trkpt>
      <trkpt lat="45.28586" lon="5.7796">
        <ele>1624.7</ele>
        <time>2026-05-26T18:34:05</time>
      </trkpt>
      <trkpt lat="45.28586" lon="5.77959">
        <ele>1624.7</ele>
        <time>2026-05-26T18:34:06</time>
      </trkpt>
      <trkpt lat="45.28587" lon="5.77959">
        <ele>1627.7</ele>
        <time>2026-05-26T18:34:42</time>
      </trkpt>
      <trkpt lat="45.28581" lon="5.77958">
        <ele>1633.6</ele>
        <time>2026-05-26T18:35:26</time>
      </trkpt>
      <trkpt lat="45.28582" lon="5.7796">
        <ele>1633.6</ele>
        <time>2026-05-26T18:35:56</time>
      </trkpt>
      <trkpt lat="45.28583" lon="5.77961">
        <ele>1634.2</ele>
        <time>2026-05-26T18:35:59</time>
      </trkpt>
      <trkpt lat="45.28584" lon="5.7796">
        <ele>1634.2</ele>
        <time>2026-05-26T18:36:00</time>
      </trkpt>
      <trkpt lat="45.28584" lon="5.77959">
        <ele>1634.2</ele>
        <time>2026-05-26T18:36:01</time>
      </trkpt>
      <trkpt lat="45.28584" lon="5.77959">
        <ele>1634.2</ele>
        <time>2026-05-26T18:36:02</time>
      </trkpt>
      <trkpt lat="45.28585" lon="5.7796">
        <ele>1634.2</ele>
        <time>2026-05-26T18:36:03</time>
      </trkpt>
      <trkpt lat="45.28586" lon="5.77961">
        <ele>1634.2</ele>
        <time>2026-05-26T18:36:04</time>
      </trkpt>
      <trkpt lat="45.28588" lon="5.77964">
        <ele>1634.2</ele>
        <time>2026-05-26T18:36:08</time>
      </trkpt>
      <trkpt lat="45.28588" lon="5.77966">
        <ele>1635.4333</ele>
        <time>2026-05-26T18:36:10</time>
      </trkpt>
      <trkpt lat="45.28588" lon="5.77968">
        <ele>1635.4333</ele>
        <time>2026-05-26T18:36:12</time>
      </trkpt>
      <trkpt lat="45.28587" lon="5.77969">
        <ele>1635.4333</ele>
        <time>2026-05-26T18:36:14</time>
      </trkpt>
      <trkpt lat="45.28586" lon="5.7797">
        <ele>1635.4333</ele>
        <time>2026-05-26T18:36:16</time>
      </trkpt>
      <trkpt lat="45.28586" lon="5.77971">
        <ele>1635.4</ele>
        <time>2026-05-26T18:36:19</time>
      </trkpt>
      <trkpt lat="45.28586" lon="5.77972">
        <ele>1635.4</ele>
        <time>2026-05-26T18:36:20</time>
      </trkpt>
      <trkpt lat="45.28588" lon="5.77976">
        <ele>1635.4</ele>
        <time>2026-05-26T18:36:27</time>
      </trkpt>
      <trkpt lat="45.28588" lon="5.77976">
        <ele>1635.4</ele>
        <time>2026-05-26T18:36:28</time>
      </trkpt>
      <trkpt lat="45.28588" lon="5.77977">
        <ele>1635.3</ele>
        <time>2026-05-26T18:36:29</time>
      </trkpt>
      <trkpt lat="45.28588" lon="5.77978">
        <ele>1635.3</ele>
        <time>2026-05-26T18:36:30</time>
      </trkpt>
      <trkpt lat="45.28588" lon="5.77979">
        <ele>1635.3</ele>
        <time>2026-05-26T18:36:31</time>
      </trkpt>
      <trkpt lat="45.28588" lon="5.77981">
        <ele>1635.3</ele>
        <time>2026-05-26T18:36:33</time>
      </trkpt>
      <trkpt lat="45.28588" lon="5.77983">
        <ele>1635.3</ele>
        <time>2026-05-26T18:36:35</time>
      </trkpt>
      <trkpt lat="45.28589" lon="5.77986">
        <ele>1635.3</ele>
        <time>2026-05-26T18:36:38</time>
      </trkpt>
      <trkpt lat="45.28589" lon="5.77988">
        <ele>1635.1</ele>
        <time>2026-05-26T18:36:40</time>
      </trkpt>
      <trkpt lat="45.28589" lon="5.77988">
        <ele>1635.1</ele>
        <time>2026-05-26T18:36:41</time>
      </trkpt>
      <trkpt lat="45.28589" lon="5.77989">
        <ele>1635.1</ele>
        <time>2026-05-26T18:36:42</time>
      </trkpt>
      <trkpt lat="45.28589" lon="5.77989">
        <ele>1635.1</ele>
        <time>2026-05-26T18:36:43</time>
      </trkpt>
      <trkpt lat="45.2859" lon="5.7799">
        <ele>1635.1</ele>
        <time>2026-05-26T18:36:44</time>
      </trkpt>
      <trkpt lat="45.2859" lon="5.7799">
        <ele>1635.1</ele>
        <time>2026-05-26T18:36:45</time>
      </trkpt>
      <trkpt lat="45.2859" lon="5.77991">
        <ele>1635.1</ele>
        <time>2026-05-26T18:36:46</time>
      </trkpt>
      <trkpt lat="45.2859" lon="5.77993">
        <ele>1635.8</ele>
        <time>2026-05-26T18:36:49</time>
      </trkpt>
      <trkpt lat="45.2859" lon="5.77994">
        <ele>1635.8</ele>
        <time>2026-05-26T18:36:51</time>
      </trkpt>
      <trkpt lat="45.2859" lon="5.77996">
        <ele>1635.8</ele>
        <time>2026-05-26T18:36:54</time>
      </trkpt>
      <trkpt lat="45.28591" lon="5.77997">
        <ele>1635.8</ele>
        <time>2026-05-26T18:36:55</time>
      </trkpt>
      <trkpt lat="45.28593" lon="5.78">
        <ele>1635.5</ele>
        <time>2026-05-26T18:37:01</time>
      </trkpt>
      <trkpt lat="45.28593" lon="5.78001">
        <ele>1635.5</ele>
        <time>2026-05-26T18:37:02</time>
      </trkpt>
      <trkpt lat="45.28595" lon="5.78002">
        <ele>1635.5</ele>
        <time>2026-05-26T18:37:04</time>
      </trkpt>
      <trkpt lat="45.28595" lon="5.78002">
        <ele>1635.5</ele>
        <time>2026-05-26T18:37:06</time>
      </trkpt>
      <trkpt lat="45.28597" lon="5.78003">
        <ele>1636.1</ele>
        <time>2026-05-26T18:37:09</time>
      </trkpt>
      <trkpt lat="45.28599" lon="5.78005">
        <ele>1636.1</ele>
        <time>2026-05-26T18:37:14</time>
      </trkpt>
      <trkpt lat="45.286" lon="5.78005">
        <ele>1636.1</ele>
        <time>2026-05-26T18:37:15</time>
      </trkpt>
      <trkpt lat="45.28601" lon="5.78004">
        <ele>1636.1</ele>
        <time>2026-05-26T18:37:17</time>
      </trkpt>
      <trkpt lat="45.28602" lon="5.78003">
        <ele>1638.6</ele>
        <time>2026-05-26T18:37:19</time>
      </trkpt>
      <trkpt lat="45.28603" lon="5.78004">
        <ele>1638.6</ele>
        <time>2026-05-26T18:37:21</time>
      </trkpt>
      <trkpt lat="45.28604" lon="5.78004">
        <ele>1638.6</ele>
        <time>2026-05-26T18:37:22</time>
      </trkpt>
      <trkpt lat="45.28605" lon="5.78004">
        <ele>1638.6</ele>
        <time>2026-05-26T18:37:23</time>
      </trkpt>
      <trkpt lat="45.28605" lon="5.78004">
        <ele>1638.6</ele>
        <time>2026-05-26T18:37:24</time>
      </trkpt>
      <trkpt lat="45.28606" lon="5.78004">
        <ele>1638.6</ele>
        <time>2026-05-26T18:37:25</time>
      </trkpt>
      <trkpt lat="45.28606" lon="5.78004">
        <ele>1638.6</ele>
        <time>2026-05-26T18:37:26</time>
      </trkpt>
      <trkpt lat="45.28607" lon="5.78005">
        <ele>1638.6</ele>
        <time>2026-05-26T18:37:27</time>
      </trkpt>
      <trkpt lat="45.28607" lon="5.78005">
        <ele>1638.6</ele>
        <time>2026-05-26T18:37:28</time>
      </trkpt>
      <trkpt lat="45.28608" lon="5.78005">
        <ele>1642.7667</ele>
        <time>2026-05-26T18:37:29</time>
      </trkpt>
      <trkpt lat="45.28608" lon="5.78006">
        <ele>1642.7667</ele>
        <time>2026-05-26T18:37:30</time>
      </trkpt>
      <trkpt lat="45.28611" lon="5.78008">
        <ele>1642.7667</ele>
        <time>2026-05-26T18:37:33</time>
      </trkpt>
      <trkpt lat="45.28612" lon="5.78008">
        <ele>1642.7667</ele>
        <time>2026-05-26T18:37:34</time>
      </trkpt>
      <trkpt lat="45.28615" lon="5.78011">
        <ele>1644.1</ele>
        <time>2026-05-26T18:37:39</time>
      </trkpt>
      <trkpt lat="45.28615" lon="5.78011">
        <ele>1644.1</ele>
        <time>2026-05-26T18:37:40</time>
      </trkpt>
      <trkpt lat="45.28616" lon="5.78012">
        <ele>1644.1</ele>
        <time>2026-05-26T18:37:41</time>
      </trkpt>
      <trkpt lat="45.28618" lon="5.78014">
        <ele>1644.1</ele>
        <time>2026-05-26T18:37:45</time>
      </trkpt>
      <trkpt lat="45.28619" lon="5.78015">
        <ele>1644.1</ele>
        <time>2026-05-26T18:37:47</time>
      </trkpt>
      <trkpt lat="45.2862" lon="5.78015">
        <ele>1644.9</ele>
        <time>2026-05-26T18:37:49</time>
      </trkpt>
      <trkpt lat="45.2862" lon="5.78016">
        <ele>1644.9</ele>
        <time>2026-05-26T18:37:50</time>
      </trkpt>
      <trkpt lat="45.28621" lon="5.78017">
        <ele>1644.9</ele>
        <time>2026-05-26T18:37:52</time>
      </trkpt>
      <trkpt lat="45.28622" lon="5.78018">
        <ele>1644.9</ele>
        <time>2026-05-26T18:37:54</time>
      </trkpt>
      <trkpt lat="45.28623" lon="5.78019">
        <ele>1644.9</ele>
        <time>2026-05-26T18:37:55</time>
      </trkpt>
      <trkpt lat="45.28623" lon="5.7802">
        <ele>1644.9</ele>
        <time>2026-05-26T18:37:56</time>
      </trkpt>
      <trkpt lat="45.28623" lon="5.7802">
        <ele>1644.9</ele>
        <time>2026-05-26T18:37:57</time>
      </trkpt>
      <trkpt lat="45.28624" lon="5.78022">
        <ele>1646.1</ele>
        <time>2026-05-26T18:37:59</time>
      </trkpt>
      <trkpt lat="45.28625" lon="5.78022">
        <ele>1646.1</ele>
        <time>2026-05-26T18:38:00</time>
      </trkpt>
      <trkpt lat="45.28625" lon="5.78022">
        <ele>1646.1</ele>
        <time>2026-05-26T18:38:01</time>
      </trkpt>
      <trkpt lat="45.28628" lon="5.78023">
        <ele>1646.1</ele>
        <time>2026-05-26T18:38:04</time>
      </trkpt>
      <trkpt lat="45.28629" lon="5.78023">
        <ele>1646.1</ele>
        <time>2026-05-26T18:38:06</time>
      </trkpt>
      <trkpt lat="45.2863" lon="5.78023">
        <ele>1646.1</ele>
        <time>2026-05-26T18:38:07</time>
      </trkpt>
      <trkpt lat="45.28631" lon="5.78023">
        <ele>1646.1</ele>
        <time>2026-05-26T18:38:08</time>
      </trkpt>
      <trkpt lat="45.28632" lon="5.78023">
        <ele>1640.8</ele>
        <time>2026-05-26T18:38:09</time>
      </trkpt>
      <trkpt lat="45.28633" lon="5.78023">
        <ele>1640.8</ele>
        <time>2026-05-26T18:38:11</time>
      </trkpt>
      <trkpt lat="45.28634" lon="5.78023">
        <ele>1640.8</ele>
        <time>2026-05-26T18:38:12</time>
      </trkpt>
      <trkpt lat="45.28634" lon="5.78023">
        <ele>1640.8</ele>
        <time>2026-05-26T18:38:14</time>
      </trkpt>
      <trkpt lat="45.28635" lon="5.78023">
        <ele>1640.8</ele>
        <time>2026-05-26T18:38:15</time>
      </trkpt>
      <trkpt lat="45.28636" lon="5.78023">
        <ele>1640.8</ele>
        <time>2026-05-26T18:38:17</time>
      </trkpt>
      <trkpt lat="45.28638" lon="5.78023">
        <ele>1642.0333</ele>
        <time>2026-05-26T18:38:21</time>
      </trkpt>
      <trkpt lat="45.28639" lon="5.78023">
        <ele>1642.0333</ele>
        <time>2026-05-26T18:38:23</time>
      </trkpt>
      <trkpt lat="45.2864" lon="5.78024">
        <ele>1642.0333</ele>
        <time>2026-05-26T18:38:24</time>
      </trkpt>
      <trkpt lat="45.28641" lon="5.78025">
        <ele>1642.0333</ele>
        <time>2026-05-26T18:38:26</time>
      </trkpt>
      <trkpt lat="45.28641" lon="5.78025">
        <ele>1642.0333</ele>
        <time>2026-05-26T18:38:27</time>
      </trkpt>
      <trkpt lat="45.28642" lon="5.78026">
        <ele>1642.0333</ele>
        <time>2026-05-26T18:38:28</time>
      </trkpt>
      <trkpt lat="45.28642" lon="5.78027">
        <ele>1646.4</ele>
        <time>2026-05-26T18:38:29</time>
      </trkpt>
      <trkpt lat="45.28642" lon="5.78028">
        <ele>1646.4</ele>
        <time>2026-05-26T18:38:30</time>
      </trkpt>
      <trkpt lat="45.28643" lon="5.78028">
        <ele>1646.4</ele>
        <time>2026-05-26T18:38:31</time>
      </trkpt>
      <trkpt lat="45.28643" lon="5.78028">
        <ele>1646.4</ele>
        <time>2026-05-26T18:38:32</time>
      </trkpt>
      <trkpt lat="45.28645" lon="5.78029">
        <ele>1646.4</ele>
        <time>2026-05-26T18:38:35</time>
      </trkpt>
      <trkpt lat="45.28646" lon="5.78029">
        <ele>1646.4</ele>
        <time>2026-05-26T18:38:37</time>
      </trkpt>
      <trkpt lat="45.28647" lon="5.78029">
        <ele>1652.8667</ele>
        <time>2026-05-26T18:38:39</time>
      </trkpt>
      <trkpt lat="45.28648" lon="5.7803">
        <ele>1652.8667</ele>
        <time>2026-05-26T18:38:41</time>
      </trkpt>
      <trkpt lat="45.28649" lon="5.7803">
        <ele>1652.8667</ele>
        <time>2026-05-26T18:38:42</time>
      </trkpt>
      <trkpt lat="45.28651" lon="5.78029">
        <ele>1652.8667</ele>
        <time>2026-05-26T18:38:46</time>
      </trkpt>
      <trkpt lat="45.28653" lon="5.78029">
        <ele>1652.8667</ele>
        <time>2026-05-26T18:38:48</time>
      </trkpt>
      <trkpt lat="45.28653" lon="5.78029">
        <ele>1656</ele>
        <time>2026-05-26T18:38:49</time>
      </trkpt>
      <trkpt lat="45.28655" lon="5.78028">
        <ele>1656</ele>
        <time>2026-05-26T18:38:51</time>
      </trkpt>
      <trkpt lat="45.28656" lon="5.78028">
        <ele>1656</ele>
        <time>2026-05-26T18:38:52</time>
      </trkpt>
      <trkpt lat="45.28656" lon="5.78028">
        <ele>1656</ele>
        <time>2026-05-26T18:38:53</time>
      </trkpt>
      <trkpt lat="45.28658" lon="5.78029">
        <ele>1656</ele>
        <time>2026-05-26T18:38:55</time>
      </trkpt>
      <trkpt lat="45.28658" lon="5.78029">
        <ele>1656</ele>
        <time>2026-05-26T18:38:57</time>
      </trkpt>
      <trkpt lat="45.2866" lon="5.78029">
        <ele>1659.1</ele>
        <time>2026-05-26T18:38:59</time>
      </trkpt>
      <trkpt lat="45.2866" lon="5.78029">
        <ele>1659.1</ele>
        <time>2026-05-26T18:39:00</time>
      </trkpt>
      <trkpt lat="45.28662" lon="5.7803">
        <ele>1659.1</ele>
        <time>2026-05-26T18:39:04</time>
      </trkpt>
      <trkpt lat="45.28662" lon="5.7803">
        <ele>1659.1</ele>
        <time>2026-05-26T18:39:05</time>
      </trkpt>
      <trkpt lat="45.28663" lon="5.78031">
        <ele>1659.1</ele>
        <time>2026-05-26T18:39:06</time>
      </trkpt>
      <trkpt lat="45.28664" lon="5.78031">
        <ele>1659.1</ele>
        <time>2026-05-26T18:39:07</time>
      </trkpt>
      <trkpt lat="45.28665" lon="5.78031">
        <ele>1660.6</ele>
        <time>2026-05-26T18:39:09</time>
      </trkpt>
      <trkpt lat="45.28666" lon="5.78032">
        <ele>1660.6</ele>
        <time>2026-05-26T18:39:11</time>
      </trkpt>
      <trkpt lat="45.28668" lon="5.78033">
        <ele>1660.6</ele>
        <time>2026-05-26T18:39:15</time>
      </trkpt>
      <trkpt lat="45.28669" lon="5.78033">
        <ele>1660.6</ele>
        <time>2026-05-26T18:39:16</time>
      </trkpt>
      <trkpt lat="45.28669" lon="5.78033">
        <ele>1660.6</ele>
        <time>2026-05-26T18:39:17</time>
      </trkpt>
      <trkpt lat="45.2867" lon="5.78032">
        <ele>1660.6</ele>
        <time>2026-05-26T18:39:18</time>
      </trkpt>
      <trkpt lat="45.28672" lon="5.78031">
        <ele>1662</ele>
        <time>2026-05-26T18:39:20</time>
      </trkpt>
      <trkpt lat="45.28672" lon="5.7803">
        <ele>1662</ele>
        <time>2026-05-26T18:39:22</time>
      </trkpt>
      <trkpt lat="45.28672" lon="5.7803">
        <ele>1662</ele>
        <time>2026-05-26T18:39:23</time>
      </trkpt>
      <trkpt lat="45.28672" lon="5.7803">
        <ele>1662</ele>
        <time>2026-05-26T18:39:24</time>
      </trkpt>
      <trkpt lat="45.28672" lon="5.7803">
        <ele>1662</ele>
        <time>2026-05-26T18:39:25</time>
      </trkpt>
      <trkpt lat="45.28673" lon="5.7803">
        <ele>1662</ele>
        <time>2026-05-26T18:39:26</time>
      </trkpt>
      <trkpt lat="45.28673" lon="5.78031">
        <ele>1662</ele>
        <time>2026-05-26T18:39:27</time>
      </trkpt>
      <trkpt lat="45.28674" lon="5.7803">
        <ele>1664.1</ele>
        <time>2026-05-26T18:39:29</time>
      </trkpt>
      <trkpt lat="45.28675" lon="5.7803">
        <ele>1664.1</ele>
        <time>2026-05-26T18:39:30</time>
      </trkpt>
      <trkpt lat="45.2868" lon="5.78027">
        <ele>1664.1</ele>
        <time>2026-05-26T18:39:35</time>
      </trkpt>
      <trkpt lat="45.2868" lon="5.78026">
        <ele>1664.1</ele>
        <time>2026-05-26T18:39:36</time>
      </trkpt>
      <trkpt lat="45.28682" lon="5.78024">
        <ele>1664.1</ele>
        <time>2026-05-26T18:39:38</time>
      </trkpt>
      <trkpt lat="45.28685" lon="5.78023">
        <ele>1663.5</ele>
        <time>2026-05-26T18:39:41</time>
      </trkpt>
      <trkpt lat="45.28688" lon="5.78022">
        <ele>1663.5</ele>
        <time>2026-05-26T18:39:43</time>
      </trkpt>
      <trkpt lat="45.28688" lon="5.78022">
        <ele>1663.5</ele>
        <time>2026-05-26T18:39:44</time>
      </trkpt>
      <trkpt lat="45.2869" lon="5.78021">
        <ele>1663.5</ele>
        <time>2026-05-26T18:39:46</time>
      </trkpt>
      <trkpt lat="45.28691" lon="5.78021">
        <ele>1663.5</ele>
        <time>2026-05-26T18:39:47</time>
      </trkpt>
      <trkpt lat="45.28692" lon="5.78021">
        <ele>1663.5</ele>
        <time>2026-05-26T18:39:48</time>
      </trkpt>
      <trkpt lat="45.28693" lon="5.78021">
        <ele>1665.8</ele>
        <time>2026-05-26T18:39:49</time>
      </trkpt>
      <trkpt lat="45.28694" lon="5.78021">
        <ele>1665.8</ele>
        <time>2026-05-26T18:39:51</time>
      </trkpt>
      <trkpt lat="45.28695" lon="5.78021">
        <ele>1665.8</ele>
        <time>2026-05-26T18:39:52</time>
      </trkpt>
      <trkpt lat="45.28696" lon="5.78021">
        <ele>1665.8</ele>
        <time>2026-05-26T18:39:54</time>
      </trkpt>
      <trkpt lat="45.28697" lon="5.78021">
        <ele>1665.8</ele>
        <time>2026-05-26T18:39:55</time>
      </trkpt>
      <trkpt lat="45.28698" lon="5.7802">
        <ele>1665.8</ele>
        <time>2026-05-26T18:39:56</time>
      </trkpt>
      <trkpt lat="45.28698" lon="5.7802">
        <ele>1665.8</ele>
        <time>2026-05-26T18:39:57</time>
      </trkpt>
      <trkpt lat="45.28699" lon="5.7802">
        <ele>1665.8</ele>
        <time>2026-05-26T18:39:58</time>
      </trkpt>
      <trkpt lat="45.287" lon="5.78021">
        <ele>1666.6</ele>
        <time>2026-05-26T18:39:59</time>
      </trkpt>
      <trkpt lat="45.28701" lon="5.78021">
        <ele>1666.6</ele>
        <time>2026-05-26T18:40:00</time>
      </trkpt>
      <trkpt lat="45.28701" lon="5.78021">
        <ele>1666.6</ele>
        <time>2026-05-26T18:40:01</time>
      </trkpt>
      <trkpt lat="45.28703" lon="5.78021">
        <ele>1666.6</ele>
        <time>2026-05-26T18:40:03</time>
      </trkpt>
      <trkpt lat="45.28703" lon="5.78021">
        <ele>1666.6</ele>
        <time>2026-05-26T18:40:04</time>
      </trkpt>
      <trkpt lat="45.28705" lon="5.78022">
        <ele>1666.6</ele>
        <time>2026-05-26T18:40:06</time>
      </trkpt>
      <trkpt lat="45.28706" lon="5.78022">
        <ele>1666.6</ele>
        <time>2026-05-26T18:40:07</time>
      </trkpt>
      <trkpt lat="45.28706" lon="5.78022">
        <ele>1666.6</ele>
        <time>2026-05-26T18:40:08</time>
      </trkpt>
      <trkpt lat="45.28706" lon="5.78023">
        <ele>1667.7333</ele>
        <time>2026-05-26T18:40:10</time>
      </trkpt>
      <trkpt lat="45.28706" lon="5.78023">
        <ele>1667.7333</ele>
        <time>2026-05-26T18:40:11</time>
      </trkpt>
      <trkpt lat="45.28706" lon="5.78024">
        <ele>1667.7333</ele>
        <time>2026-05-26T18:40:12</time>
      </trkpt>
      <trkpt lat="45.28706" lon="5.78024">
        <ele>1667.7333</ele>
        <time>2026-05-26T18:40:13</time>
      </trkpt>
      <trkpt lat="45.28706" lon="5.78024">
        <ele>1667.7333</ele>
        <time>2026-05-26T18:40:14</time>
      </trkpt>
      <trkpt lat="45.28706" lon="5.78024">
        <ele>1667.7333</ele>
        <time>2026-05-26T18:40:15</time>
      </trkpt>
      <trkpt lat="45.28706" lon="5.78025">
        <ele>1667.8334</ele>
        <time>2026-05-26T18:40:23</time>
      </trkpt>
      <trkpt lat="45.28705" lon="5.78025">
        <ele>1667.8334</ele>
        <time>2026-05-26T18:40:24</time>
      </trkpt>
      <trkpt lat="45.28705" lon="5.78025">
        <ele>1667.8334</ele>
        <time>2026-05-26T18:40:25</time>
      </trkpt>
      <trkpt lat="45.28702" lon="5.78026">
        <ele>1667.8334</ele>
        <time>2026-05-26T18:40:28</time>
      </trkpt>
      <trkpt lat="45.28701" lon="5.78027">
        <ele>1667.7</ele>
        <time>2026-05-26T18:40:29</time>
      </trkpt>
      <trkpt lat="45.287" lon="5.78027">
        <ele>1667.7</ele>
        <time>2026-05-26T18:40:31</time>
      </trkpt>
      <trkpt lat="45.28699" lon="5.78029">
        <ele>1667.7</ele>
        <time>2026-05-26T18:40:34</time>
      </trkpt>
      <trkpt lat="45.28696" lon="5.78033">
        <ele>1667.7</ele>
        <time>2026-05-26T18:40:38</time>
      </trkpt>
      <trkpt lat="45.28695" lon="5.78034">
        <ele>1668.2667</ele>
        <time>2026-05-26T18:40:40</time>
      </trkpt>
      <trkpt lat="45.28695" lon="5.78035">
        <ele>1668.2667</ele>
        <time>2026-05-26T18:40:41</time>
      </trkpt>
      <trkpt lat="45.28694" lon="5.78037">
        <ele>1668.2667</ele>
        <time>2026-05-26T18:40:43</time>
      </trkpt>
      <trkpt lat="45.28694" lon="5.78037">
        <ele>1668.2667</ele>
        <time>2026-05-26T18:40:45</time>
      </trkpt>
      <trkpt lat="45.28694" lon="5.78037">
        <ele>1668.2667</ele>
        <time>2026-05-26T18:40:46</time>
      </trkpt>
      <trkpt lat="45.28693" lon="5.78036">
        <ele>1668.2667</ele>
        <time>2026-05-26T18:40:47</time>
      </trkpt>
      <trkpt lat="45.28693" lon="5.78036">
        <ele>1668.2667</ele>
        <time>2026-05-26T18:40:48</time>
      </trkpt>
      <trkpt lat="45.28693" lon="5.78035">
        <ele>1669</ele>
        <time>2026-05-26T18:40:50</time>
      </trkpt>
      <trkpt lat="45.28692" lon="5.78038">
        <ele>1669</ele>
        <time>2026-05-26T18:40:57</time>
      </trkpt>
      <trkpt lat="45.28691" lon="5.7804">
        <ele>1669</ele>
        <time>2026-05-26T18:40:58</time>
      </trkpt>
      <trkpt lat="45.28691" lon="5.78041">
        <ele>1671.1666</ele>
        <time>2026-05-26T18:40:59</time>
      </trkpt>
      <trkpt lat="45.2869" lon="5.78042">
        <ele>1671.1666</ele>
        <time>2026-05-26T18:41:00</time>
      </trkpt>
      <trkpt lat="45.2869" lon="5.78044">
        <ele>1671.1666</ele>
        <time>2026-05-26T18:41:01</time>
      </trkpt>
      <trkpt lat="45.28688" lon="5.78047">
        <ele>1671.1666</ele>
        <time>2026-05-26T18:41:04</time>
      </trkpt>
      <trkpt lat="45.28688" lon="5.78048">
        <ele>1671.1666</ele>
        <time>2026-05-26T18:41:05</time>
      </trkpt>
      <trkpt lat="45.28688" lon="5.78051">
        <ele>1671.1666</ele>
        <time>2026-05-26T18:41:07</time>
      </trkpt>
      <trkpt lat="45.28687" lon="5.78053">
        <ele>1673.1</ele>
        <time>2026-05-26T18:41:09</time>
      </trkpt>
      <trkpt lat="45.28687" lon="5.78056">
        <ele>1673.1</ele>
        <time>2026-05-26T18:41:11</time>
      </trkpt>
      <trkpt lat="45.28687" lon="5.78057">
        <ele>1673.1</ele>
        <time>2026-05-26T18:41:12</time>
      </trkpt>
      <trkpt lat="45.28686" lon="5.78057">
        <ele>1673.1</ele>
        <time>2026-05-26T18:41:13</time>
      </trkpt>
      <trkpt lat="45.28685" lon="5.78059">
        <ele>1673.1</ele>
        <time>2026-05-26T18:41:14</time>
      </trkpt>
      <trkpt lat="45.28685" lon="5.78059">
        <ele>1673.1</ele>
        <time>2026-05-26T18:41:15</time>
      </trkpt>
      <trkpt lat="45.28682" lon="5.78063">
        <ele>1672.5</ele>
        <time>2026-05-26T18:41:19</time>
      </trkpt>
      <trkpt lat="45.28681" lon="5.78064">
        <ele>1672.5</ele>
        <time>2026-05-26T18:41:20</time>
      </trkpt>
      <trkpt lat="45.2868" lon="5.78065">
        <ele>1672.5</ele>
        <time>2026-05-26T18:41:21</time>
      </trkpt>
      <trkpt lat="45.28679" lon="5.78065">
        <ele>1672.5</ele>
        <time>2026-05-26T18:41:22</time>
      </trkpt>
      <trkpt lat="45.28677" lon="5.78067">
        <ele>1672.5</ele>
        <time>2026-05-26T18:41:26</time>
      </trkpt>
      <trkpt lat="45.28676" lon="5.78069">
        <ele>1672.5</ele>
        <time>2026-05-26T18:41:28</time>
      </trkpt>
      <trkpt lat="45.28675" lon="5.7807">
        <ele>1674.2</ele>
        <time>2026-05-26T18:41:29</time>
      </trkpt>
      <trkpt lat="45.28674" lon="5.7807">
        <ele>1674.2</ele>
        <time>2026-05-26T18:41:30</time>
      </trkpt>
      <trkpt lat="45.28673" lon="5.78071">
        <ele>1674.2</ele>
        <time>2026-05-26T18:41:31</time>
      </trkpt>
      <trkpt lat="45.28671" lon="5.78073">
        <ele>1674.2</ele>
        <time>2026-05-26T18:41:35</time>
      </trkpt>
      <trkpt lat="45.2867" lon="5.78074">
        <ele>1674.2</ele>
        <time>2026-05-26T18:41:36</time>
      </trkpt>
      <trkpt lat="45.28669" lon="5.78075">
        <ele>1674.2</ele>
        <time>2026-05-26T18:41:37</time>
      </trkpt>
      <trkpt lat="45.28669" lon="5.78076">
        <ele>1674.2</ele>
        <time>2026-05-26T18:41:38</time>
      </trkpt>
      <trkpt lat="45.28669" lon="5.78076">
        <ele>1675.9</ele>
        <time>2026-05-26T18:41:39</time>
      </trkpt>
      <trkpt lat="45.28667" lon="5.78079">
        <ele>1675.9</ele>
        <time>2026-05-26T18:41:42</time>
      </trkpt>
      <trkpt lat="45.28667" lon="5.78079">
        <ele>1675.9</ele>
        <time>2026-05-26T18:41:44</time>
      </trkpt>
      <trkpt lat="45.28665" lon="5.78081">
        <ele>1675.9</ele>
        <time>2026-05-26T18:41:46</time>
      </trkpt>
      <trkpt lat="45.28662" lon="5.78084">
        <ele>1676.8</ele>
        <time>2026-05-26T18:41:51</time>
      </trkpt>
      <trkpt lat="45.28661" lon="5.78085">
        <ele>1676.8</ele>
        <time>2026-05-26T18:41:53</time>
      </trkpt>
      <trkpt lat="45.28661" lon="5.78086">
        <ele>1676.8</ele>
        <time>2026-05-26T18:41:54</time>
      </trkpt>
      <trkpt lat="45.2866" lon="5.78086">
        <ele>1676.8</ele>
        <time>2026-05-26T18:41:55</time>
      </trkpt>
      <trkpt lat="45.28658" lon="5.78087">
        <ele>1676.8</ele>
        <time>2026-05-26T18:41:57</time>
      </trkpt>
      <trkpt lat="45.28648" lon="5.78094">
        <ele>1678.6</ele>
        <time>2026-05-26T18:42:08</time>
      </trkpt>
      <trkpt lat="45.28648" lon="5.78094">
        <ele>1678.6</ele>
        <time>2026-05-26T18:42:09</time>
      </trkpt>
      <trkpt lat="45.28644" lon="5.78094">
        <ele>1681.6333</ele>
        <time>2026-05-26T18:42:13</time>
      </trkpt>
      <trkpt lat="45.28644" lon="5.78094">
        <ele>1681.6333</ele>
        <time>2026-05-26T18:42:14</time>
      </trkpt>
      <trkpt lat="45.28643" lon="5.78095">
        <ele>1681.6333</ele>
        <time>2026-05-26T18:42:15</time>
      </trkpt>
      <trkpt lat="45.28641" lon="5.78096">
        <ele>1681.6333</ele>
        <time>2026-05-26T18:42:17</time>
      </trkpt>
      <trkpt lat="45.28641" lon="5.78097">
        <ele>1681.6333</ele>
        <time>2026-05-26T18:42:18</time>
      </trkpt>
      <trkpt lat="45.2864" lon="5.78097">
        <ele>1681.6333</ele>
        <time>2026-05-26T18:42:19</time>
      </trkpt>
      <trkpt lat="45.2864" lon="5.78097">
        <ele>1682.9</ele>
        <time>2026-05-26T18:42:20</time>
      </trkpt>
      <trkpt lat="45.28639" lon="5.78097">
        <ele>1682.9</ele>
        <time>2026-05-26T18:42:21</time>
      </trkpt>
      <trkpt lat="45.28638" lon="5.78097">
        <ele>1682.9</ele>
        <time>2026-05-26T18:42:22</time>
      </trkpt>
      <trkpt lat="45.28637" lon="5.78098">
        <ele>1682.9</ele>
        <time>2026-05-26T18:42:25</time>
      </trkpt>
      <trkpt lat="45.28634" lon="5.781">
        <ele>1683.3</ele>
        <time>2026-05-26T18:42:29</time>
      </trkpt>
      <trkpt lat="45.28629" lon="5.78103">
        <ele>1684.3</ele>
        <time>2026-05-26T18:42:37</time>
      </trkpt>
      <trkpt lat="45.28627" lon="5.78104">
        <ele>1684.3</ele>
        <time>2026-05-26T18:42:42</time>
      </trkpt>
      <trkpt lat="45.28625" lon="5.78104">
        <ele>1684.6</ele>
        <time>2026-05-26T18:42:44</time>
      </trkpt>
      <trkpt lat="45.28623" lon="5.78105">
        <ele>1684.6</ele>
        <time>2026-05-26T18:42:47</time>
      </trkpt>
      <trkpt lat="45.28622" lon="5.78105">
        <ele>1684.6</ele>
        <time>2026-05-26T18:42:48</time>
      </trkpt>
      <trkpt lat="45.2862" lon="5.78105">
        <ele>1686.7333</ele>
        <time>2026-05-26T18:42:50</time>
      </trkpt>
      <trkpt lat="45.28616" lon="5.78106">
        <ele>1686.7333</ele>
        <time>2026-05-26T18:42:55</time>
      </trkpt>
      <trkpt lat="45.28616" lon="5.78106">
        <ele>1686.7333</ele>
        <time>2026-05-26T18:42:55</time>
      </trkpt>
      <trkpt lat="45.2861" lon="5.78111">
        <ele>1687.9667</ele>
        <time>2026-05-26T18:43:03</time>
      </trkpt>
      <trkpt lat="45.28608" lon="5.78113">
        <ele>1688.9</ele>
        <time>2026-05-26T18:43:08</time>
      </trkpt>
      <trkpt lat="45.28607" lon="5.78113">
        <ele>1688.9</ele>
        <time>2026-05-26T18:43:08</time>
      </trkpt>
      <trkpt lat="45.28606" lon="5.78114">
        <ele>1688.9</ele>
        <time>2026-05-26T18:43:11</time>
      </trkpt>
      <trkpt lat="45.28605" lon="5.78115">
        <ele>1690.3</ele>
        <time>2026-05-26T18:43:13</time>
      </trkpt>
      <trkpt lat="45.28605" lon="5.78116">
        <ele>1690.3</ele>
        <time>2026-05-26T18:43:13</time>
      </trkpt>
      <trkpt lat="45.28605" lon="5.78117">
        <ele>1690.3</ele>
        <time>2026-05-26T18:43:15</time>
      </trkpt>
      <trkpt lat="45.28605" lon="5.78118">
        <ele>1690.3</ele>
        <time>2026-05-26T18:43:16</time>
      </trkpt>
      <trkpt lat="45.28605" lon="5.78118">
        <ele>1690.3</ele>
        <time>2026-05-26T18:43:16</time>
      </trkpt>
      <trkpt lat="45.28606" lon="5.78118">
        <ele>1690.3</ele>
        <time>2026-05-26T18:43:17</time>
      </trkpt>
      <trkpt lat="45.28606" lon="5.78118">
        <ele>1690.3</ele>
        <time>2026-05-26T18:43:18</time>
      </trkpt>
      <trkpt lat="45.28608" lon="5.78119">
        <ele>1691</ele>
        <time>2026-05-26T18:43:21</time>
      </trkpt>
      <trkpt lat="45.28609" lon="5.78118">
        <ele>1691</ele>
        <time>2026-05-26T18:43:23</time>
      </trkpt>
      <trkpt lat="45.2861" lon="5.78118">
        <ele>1691</ele>
        <time>2026-05-26T18:43:24</time>
      </trkpt>
      <trkpt lat="45.2861" lon="5.78118">
        <ele>1691</ele>
        <time>2026-05-26T18:43:24</time>
      </trkpt>
      <trkpt lat="45.28611" lon="5.78118">
        <ele>1691</ele>
        <time>2026-05-26T18:43:26</time>
      </trkpt>
      <trkpt lat="45.28612" lon="5.78117">
        <ele>1693</ele>
        <time>2026-05-26T18:43:28</time>
      </trkpt>
      <trkpt lat="45.28615" lon="5.78116">
        <ele>1693</ele>
        <time>2026-05-26T18:43:33</time>
      </trkpt>
      <trkpt lat="45.28615" lon="5.78115">
        <ele>1693</ele>
        <time>2026-05-26T18:43:34</time>
      </trkpt>
      <trkpt lat="45.28616" lon="5.78115">
        <ele>1697.8334</ele>
        <time>2026-05-26T18:43:35</time>
      </trkpt>
      <trkpt lat="45.28617" lon="5.78115">
        <ele>1697.8334</ele>
        <time>2026-05-26T18:43:37</time>
      </trkpt>
      <trkpt lat="45.28618" lon="5.78115">
        <ele>1697.8334</ele>
        <time>2026-05-26T18:43:38</time>
      </trkpt>
      <trkpt lat="45.28618" lon="5.78115">
        <ele>1697.8334</ele>
        <time>2026-05-26T18:43:39</time>
      </trkpt>
      <trkpt lat="45.2862" lon="5.78116">
        <ele>1697.8334</ele>
        <time>2026-05-26T18:43:41</time>
      </trkpt>
      <trkpt lat="45.28624" lon="5.78119">
        <ele>1700.3</ele>
        <time>2026-05-26T18:43:47</time>
      </trkpt>
      <trkpt lat="45.28625" lon="5.78119">
        <ele>1700.3</ele>
        <time>2026-05-26T18:43:48</time>
      </trkpt>
      <trkpt lat="45.28627" lon="5.7812">
        <ele>1701.8</ele>
        <time>2026-05-26T18:43:51</time>
      </trkpt>
      <trkpt lat="45.28637" lon="5.78128">
        <ele>1702.7</ele>
        <time>2026-05-26T18:44:05</time>
      </trkpt>
      <trkpt lat="45.28638" lon="5.78128">
        <ele>1702.7</ele>
        <time>2026-05-26T18:44:07</time>
      </trkpt>
      <trkpt lat="45.2864" lon="5.78129">
        <ele>1702.7</ele>
        <time>2026-05-26T18:44:09</time>
      </trkpt>
      <trkpt lat="45.28644" lon="5.7813">
        <ele>1703.6333</ele>
        <time>2026-05-26T18:44:13</time>
      </trkpt>
      <trkpt lat="45.28649" lon="5.7813">
        <ele>1704.2</ele>
        <time>2026-05-26T18:44:19</time>
      </trkpt>
      <trkpt lat="45.28651" lon="5.7813">
        <ele>1704.2</ele>
        <time>2026-05-26T18:44:21</time>
      </trkpt>
      <trkpt lat="45.28657" lon="5.78132">
        <ele>1704.7</ele>
        <time>2026-05-26T18:44:28</time>
      </trkpt>
      <trkpt lat="45.28658" lon="5.78132">
        <ele>1704.7</ele>
        <time>2026-05-26T18:44:29</time>
      </trkpt>
      <trkpt lat="45.2866" lon="5.78132">
        <ele>1705.1</ele>
        <time>2026-05-26T18:44:31</time>
      </trkpt>
      <trkpt lat="45.28662" lon="5.78131">
        <ele>1705.1</ele>
        <time>2026-05-26T18:44:33</time>
      </trkpt>
      <trkpt lat="45.28663" lon="5.78131">
        <ele>1705.1</ele>
        <time>2026-05-26T18:44:34</time>
      </trkpt>
      <trkpt lat="45.28664" lon="5.78132">
        <ele>1705.1</ele>
        <time>2026-05-26T18:44:35</time>
      </trkpt>
      <trkpt lat="45.28667" lon="5.78134">
        <ele>1705</ele>
        <time>2026-05-26T18:44:39</time>
      </trkpt>
      <trkpt lat="45.2867" lon="5.78135">
        <ele>1705</ele>
        <time>2026-05-26T18:44:42</time>
      </trkpt>
      <trkpt lat="45.2867" lon="5.78135">
        <ele>1705</ele>
        <time>2026-05-26T18:44:43</time>
      </trkpt>
      <trkpt lat="45.28672" lon="5.78135">
        <ele>1706</ele>
        <time>2026-05-26T18:44:45</time>
      </trkpt>
      <trkpt lat="45.28672" lon="5.78135">
        <ele>1706</ele>
        <time>2026-05-26T18:44:46</time>
      </trkpt>
      <trkpt lat="45.28674" lon="5.78136">
        <ele>1706</ele>
        <time>2026-05-26T18:44:48</time>
      </trkpt>
      <trkpt lat="45.28675" lon="5.78136">
        <ele>1706</ele>
        <time>2026-05-26T18:44:49</time>
      </trkpt>
      <trkpt lat="45.28676" lon="5.78136">
        <ele>1706</ele>
        <time>2026-05-26T18:44:50</time>
      </trkpt>
      <trkpt lat="45.28677" lon="5.78136">
        <ele>1706.2</ele>
        <time>2026-05-26T18:44:52</time>
      </trkpt>
      <trkpt lat="45.2868" lon="5.78134">
        <ele>1706.2</ele>
        <time>2026-05-26T18:44:55</time>
      </trkpt>
      <trkpt lat="45.28682" lon="5.78135">
        <ele>1706.2</ele>
        <time>2026-05-26T18:44:57</time>
      </trkpt>
      <trkpt lat="45.28683" lon="5.78135">
        <ele>1706.2</ele>
        <time>2026-05-26T18:44:58</time>
      </trkpt>
      <trkpt lat="45.28684" lon="5.78135">
        <ele>1707.5</ele>
        <time>2026-05-26T18:45:00</time>
      </trkpt>
      <trkpt lat="45.28685" lon="5.78135">
        <ele>1707.5</ele>
        <time>2026-05-26T18:45:02</time>
      </trkpt>
      <trkpt lat="45.28687" lon="5.78135">
        <ele>1707.5</ele>
        <time>2026-05-26T18:45:05</time>
      </trkpt>
      <trkpt lat="45.28689" lon="5.78135">
        <ele>1708.4</ele>
        <time>2026-05-26T18:45:07</time>
      </trkpt>
      <trkpt lat="45.28689" lon="5.78135">
        <ele>1708.4</ele>
        <time>2026-05-26T18:45:08</time>
      </trkpt>
      <trkpt lat="45.28697" lon="5.78134">
        <ele>1710.6</ele>
        <time>2026-05-26T18:45:19</time>
      </trkpt>
      <trkpt lat="45.28699" lon="5.78135">
        <ele>1710.6</ele>
        <time>2026-05-26T18:45:21</time>
      </trkpt>
      <trkpt lat="45.28702" lon="5.78134">
        <ele>1710.6</ele>
        <time>2026-05-26T18:45:25</time>
      </trkpt>
      <trkpt lat="45.28704" lon="5.78134">
        <ele>1712.8</ele>
        <time>2026-05-26T18:45:30</time>
      </trkpt>
      <trkpt lat="45.28705" lon="5.78133">
        <ele>1712.8</ele>
        <time>2026-05-26T18:45:30</time>
      </trkpt>
      <trkpt lat="45.28708" lon="5.78134">
        <ele>1713.6</ele>
        <time>2026-05-26T18:45:36</time>
      </trkpt>
      <trkpt lat="45.28714" lon="5.78137">
        <ele>1714.4</ele>
        <time>2026-05-26T18:45:43</time>
      </trkpt>
      <trkpt lat="45.28717" lon="5.7814">
        <ele>1714.4</ele>
        <time>2026-05-26T18:45:48</time>
      </trkpt>
      <trkpt lat="45.28718" lon="5.7814">
        <ele>1715.6</ele>
        <time>2026-05-26T18:45:49</time>
      </trkpt>
      <trkpt lat="45.28718" lon="5.78141">
        <ele>1715.6</ele>
        <time>2026-05-26T18:45:49</time>
      </trkpt>
      <trkpt lat="45.28718" lon="5.78141">
        <ele>1715.6</ele>
        <time>2026-05-26T18:45:50</time>
      </trkpt>
      <trkpt lat="45.28718" lon="5.78142">
        <ele>1715.6</ele>
        <time>2026-05-26T18:45:51</time>
      </trkpt>
      <trkpt lat="45.28717" lon="5.78142">
        <ele>1715.6</ele>
        <time>2026-05-26T18:45:51</time>
      </trkpt>
      <trkpt lat="45.28717" lon="5.78143">
        <ele>1715.6</ele>
        <time>2026-05-26T18:45:52</time>
      </trkpt>
      <trkpt lat="45.28716" lon="5.78143">
        <ele>1715.6</ele>
        <time>2026-05-26T18:45:54</time>
      </trkpt>
      <trkpt lat="45.28712" lon="5.78145">
        <ele>1716.4</ele>
        <time>2026-05-26T18:46:00</time>
      </trkpt>
      <trkpt lat="45.28711" lon="5.78146">
        <ele>1716.8</ele>
        <time>2026-05-26T18:46:03</time>
      </trkpt>
      <trkpt lat="45.28709" lon="5.78147">
        <ele>1716.8</ele>
        <time>2026-05-26T18:46:05</time>
      </trkpt>
      <trkpt lat="45.28708" lon="5.7815">
        <ele>1716.8</ele>
        <time>2026-05-26T18:46:08</time>
      </trkpt>
      <trkpt lat="45.28707" lon="5.78152">
        <ele>1716.8</ele>
        <time>2026-05-26T18:46:10</time>
      </trkpt>
      <trkpt lat="45.28707" lon="5.78153">
        <ele>1717.3</ele>
        <time>2026-05-26T18:46:11</time>
      </trkpt>
      <trkpt lat="45.28706" lon="5.78153">
        <ele>1717.3</ele>
        <time>2026-05-26T18:46:12</time>
      </trkpt>
      <trkpt lat="45.28705" lon="5.78154">
        <ele>1717.3</ele>
        <time>2026-05-26T18:46:14</time>
      </trkpt>
      <trkpt lat="45.28703" lon="5.78156">
        <ele>1719.0333</ele>
        <time>2026-05-26T18:46:18</time>
      </trkpt>
      <trkpt lat="45.28702" lon="5.78156">
        <ele>1719.0333</ele>
        <time>2026-05-26T18:46:19</time>
      </trkpt>
      <trkpt lat="45.28701" lon="5.78157">
        <ele>1719.0333</ele>
        <time>2026-05-26T18:46:20</time>
      </trkpt>
      <trkpt lat="45.28701" lon="5.78158">
        <ele>1719.0333</ele>
        <time>2026-05-26T18:46:21</time>
      </trkpt>
      <trkpt lat="45.287" lon="5.78158">
        <ele>1719.0333</ele>
        <time>2026-05-26T18:46:22</time>
      </trkpt>
      <trkpt lat="45.287" lon="5.78159">
        <ele>1719.0333</ele>
        <time>2026-05-26T18:46:23</time>
      </trkpt>
      <trkpt lat="45.28699" lon="5.7816">
        <ele>1720</ele>
        <time>2026-05-26T18:46:27</time>
      </trkpt>
      <trkpt lat="45.28699" lon="5.78162">
        <ele>1720</ele>
        <time>2026-05-26T18:46:29</time>
      </trkpt>
      <trkpt lat="45.28698" lon="5.78165">
        <ele>1719.7</ele>
        <time>2026-05-26T18:46:33</time>
      </trkpt>
      <trkpt lat="45.28697" lon="5.78168">
        <ele>1719.7</ele>
        <time>2026-05-26T18:46:36</time>
      </trkpt>
      <trkpt lat="45.28697" lon="5.78168">
        <ele>1719.7</ele>
        <time>2026-05-26T18:46:37</time>
      </trkpt>
      <trkpt lat="45.28696" lon="5.78169">
        <ele>1719.7</ele>
        <time>2026-05-26T18:46:38</time>
      </trkpt>
      <trkpt lat="45.28693" lon="5.78171">
        <ele>1722</ele>
        <time>2026-05-26T18:46:43</time>
      </trkpt>
      <trkpt lat="45.28692" lon="5.78174">
        <ele>1722</ele>
        <time>2026-05-26T18:46:47</time>
      </trkpt>
      <trkpt lat="45.2869" lon="5.78178">
        <ele>1723</ele>
        <time>2026-05-26T18:46:53</time>
      </trkpt>
      <trkpt lat="45.2869" lon="5.78179">
        <ele>1723</ele>
        <time>2026-05-26T18:46:54</time>
      </trkpt>
      <trkpt lat="45.2869" lon="5.7818">
        <ele>1723</ele>
        <time>2026-05-26T18:46:55</time>
      </trkpt>
      <trkpt lat="45.2869" lon="5.7818">
        <ele>1723</ele>
        <time>2026-05-26T18:46:55</time>
      </trkpt>
      <trkpt lat="45.2869" lon="5.78183">
        <ele>1723.3</ele>
        <time>2026-05-26T18:46:57</time>
      </trkpt>
      <trkpt lat="45.2869" lon="5.78183">
        <ele>1723.3</ele>
        <time>2026-05-26T18:46:58</time>
      </trkpt>
      <trkpt lat="45.28689" lon="5.78184">
        <ele>1723.3</ele>
        <time>2026-05-26T18:46:59</time>
      </trkpt>
      <trkpt lat="45.28689" lon="5.78185">
        <ele>1723.3</ele>
        <time>2026-05-26T18:47:00</time>
      </trkpt>
      <trkpt lat="45.2869" lon="5.78186">
        <ele>1723.3</ele>
        <time>2026-05-26T18:47:02</time>
      </trkpt>
      <trkpt lat="45.2869" lon="5.78186">
        <ele>1723.3</ele>
        <time>2026-05-26T18:47:03</time>
      </trkpt>
      <trkpt lat="45.2869" lon="5.78187">
        <ele>1724.7333</ele>
        <time>2026-05-26T18:47:04</time>
      </trkpt>
      <trkpt lat="45.2869" lon="5.78187">
        <ele>1724.7333</ele>
        <time>2026-05-26T18:47:05</time>
      </trkpt>
      <trkpt lat="45.28689" lon="5.78188">
        <ele>1724.7333</ele>
        <time>2026-05-26T18:47:07</time>
      </trkpt>
      <trkpt lat="45.28689" lon="5.78189">
        <ele>1724.7333</ele>
        <time>2026-05-26T18:47:09</time>
      </trkpt>
      <trkpt lat="45.28689" lon="5.78189">
        <ele>1724.7333</ele>
        <time>2026-05-26T18:47:10</time>
      </trkpt>
      <trkpt lat="45.28689" lon="5.78189">
        <ele>1726.7</ele>
        <time>2026-05-26T18:47:12</time>
      </trkpt>
      <trkpt lat="45.28687" lon="5.78191">
        <ele>1726.7</ele>
        <time>2026-05-26T18:47:15</time>
      </trkpt>
      <trkpt lat="45.28684" lon="5.78194">
        <ele>1727.7</ele>
        <time>2026-05-26T18:47:18</time>
      </trkpt>
      <trkpt lat="45.28684" lon="5.78195">
        <ele>1727.7</ele>
        <time>2026-05-26T18:47:19</time>
      </trkpt>
      <trkpt lat="45.28683" lon="5.78196">
        <ele>1727.7</ele>
        <time>2026-05-26T18:47:22</time>
      </trkpt>
      <trkpt lat="45.28682" lon="5.78197">
        <ele>1727.7</ele>
        <time>2026-05-26T18:47:24</time>
      </trkpt>
      <trkpt lat="45.28681" lon="5.78198">
        <ele>1727.7</ele>
        <time>2026-05-26T18:47:25</time>
      </trkpt>
      <trkpt lat="45.28681" lon="5.78199">
        <ele>1729</ele>
        <time>2026-05-26T18:47:27</time>
      </trkpt>
      <trkpt lat="45.2868" lon="5.782">
        <ele>1729</ele>
        <time>2026-05-26T18:47:28</time>
      </trkpt>
      <trkpt lat="45.28679" lon="5.78202">
        <ele>1729</ele>
        <time>2026-05-26T18:47:32</time>
      </trkpt>
      <trkpt lat="45.28678" lon="5.78203">
        <ele>1730.3</ele>
        <time>2026-05-26T18:47:34</time>
      </trkpt>
      <trkpt lat="45.28677" lon="5.78203">
        <ele>1730.3</ele>
        <time>2026-05-26T18:47:36</time>
      </trkpt>
      <trkpt lat="45.28677" lon="5.78204">
        <ele>1730.3</ele>
        <time>2026-05-26T18:47:37</time>
      </trkpt>
      <trkpt lat="45.28676" lon="5.78206">
        <ele>1732.3</ele>
        <time>2026-05-26T18:47:42</time>
      </trkpt>
      <trkpt lat="45.28675" lon="5.78207">
        <ele>1732.3</ele>
        <time>2026-05-26T18:47:43</time>
      </trkpt>
      <trkpt lat="45.28675" lon="5.78207">
        <ele>1732.3</ele>
        <time>2026-05-26T18:47:44</time>
      </trkpt>
      <trkpt lat="45.28672" lon="5.7821">
        <ele>1732.3</ele>
        <time>2026-05-26T18:47:49</time>
      </trkpt>
      <trkpt lat="45.28671" lon="5.78211">
        <ele>1734.1</ele>
        <time>2026-05-26T18:47:51</time>
      </trkpt>
      <trkpt lat="45.2867" lon="5.78211">
        <ele>1734.1</ele>
        <time>2026-05-26T18:47:52</time>
      </trkpt>
      <trkpt lat="45.2867" lon="5.78212">
        <ele>1734.1</ele>
        <time>2026-05-26T18:47:53</time>
      </trkpt>
      <trkpt lat="45.2867" lon="5.78212">
        <ele>1734.1</ele>
        <time>2026-05-26T18:47:54</time>
      </trkpt>
      <trkpt lat="45.28668" lon="5.78213">
        <ele>1737.6333</ele>
        <time>2026-05-26T18:47:58</time>
      </trkpt>
      <trkpt lat="45.28668" lon="5.78213">
        <ele>1737.6333</ele>
        <time>2026-05-26T18:47:59</time>
      </trkpt>
      <trkpt lat="45.28665" lon="5.78214">
        <ele>1737.6333</ele>
        <time>2026-05-26T18:48:05</time>
      </trkpt>
      <trkpt lat="45.28664" lon="5.78214">
        <ele>1737.6333</ele>
        <time>2026-05-26T18:48:06</time>
      </trkpt>
      <trkpt lat="45.28664" lon="5.78215">
        <ele>1738.7</ele>
        <time>2026-05-26T18:48:06</time>
      </trkpt>
      <trkpt lat="45.28664" lon="5.78215">
        <ele>1738.7</ele>
        <time>2026-05-26T18:48:07</time>
      </trkpt>
      <trkpt lat="45.28663" lon="5.78216">
        <ele>1738.7</ele>
        <time>2026-05-26T18:48:08</time>
      </trkpt>
      <trkpt lat="45.28663" lon="5.78217">
        <ele>1738.7</ele>
        <time>2026-05-26T18:48:09</time>
      </trkpt>
      <trkpt lat="45.28663" lon="5.78217">
        <ele>1738.7</ele>
        <time>2026-05-26T18:48:10</time>
      </trkpt>
      <trkpt lat="45.28662" lon="5.78217">
        <ele>1738.7</ele>
        <time>2026-05-26T18:48:11</time>
      </trkpt>
      <trkpt lat="45.28661" lon="5.78217">
        <ele>1738.7</ele>
        <time>2026-05-26T18:48:12</time>
      </trkpt>
      <trkpt lat="45.2866" lon="5.78218">
        <ele>1740.7667</ele>
        <time>2026-05-26T18:48:15</time>
      </trkpt>
      <trkpt lat="45.28659" lon="5.78219">
        <ele>1740.7667</ele>
        <time>2026-05-26T18:48:16</time>
      </trkpt>
      <trkpt lat="45.28659" lon="5.78219">
        <ele>1740.7667</ele>
        <time>2026-05-26T18:48:17</time>
      </trkpt>
      <trkpt lat="45.28659" lon="5.78219">
        <ele>1740.7667</ele>
        <time>2026-05-26T18:48:18</time>
      </trkpt>
      <trkpt lat="45.28659" lon="5.7822">
        <ele>1740.7667</ele>
        <time>2026-05-26T18:48:19</time>
      </trkpt>
      <trkpt lat="45.28659" lon="5.7822">
        <ele>1740.7667</ele>
        <time>2026-05-26T18:48:20</time>
      </trkpt>
      <trkpt lat="45.28659" lon="5.7822">
        <ele>1740.7667</ele>
        <time>2026-05-26T18:48:21</time>
      </trkpt>
      <trkpt lat="45.28658" lon="5.7822">
        <ele>1740.7667</ele>
        <time>2026-05-26T18:48:22</time>
      </trkpt>
      <trkpt lat="45.28658" lon="5.78221">
        <ele>1741.7667</ele>
        <time>2026-05-26T18:48:23</time>
      </trkpt>
      <trkpt lat="45.28658" lon="5.78221">
        <ele>1741.7667</ele>
        <time>2026-05-26T18:48:24</time>
      </trkpt>
      <trkpt lat="45.28657" lon="5.78222">
        <ele>1741.7667</ele>
        <time>2026-05-26T18:48:25</time>
      </trkpt>
      <trkpt lat="45.28657" lon="5.78223">
        <ele>1741.7667</ele>
        <time>2026-05-26T18:48:28</time>
      </trkpt>
      <trkpt lat="45.28657" lon="5.78223">
        <ele>1741.7667</ele>
        <time>2026-05-26T18:48:28</time>
      </trkpt>
      <trkpt lat="45.28658" lon="5.78224">
        <ele>1741.7667</ele>
        <time>2026-05-26T18:48:29</time>
      </trkpt>
      <trkpt lat="45.28658" lon="5.78224">
        <ele>1743.5</ele>
        <time>2026-05-26T18:48:30</time>
      </trkpt>
      <trkpt lat="45.28659" lon="5.78224">
        <ele>1743.5</ele>
        <time>2026-05-26T18:48:31</time>
      </trkpt>
      <trkpt lat="45.2866" lon="5.78223">
        <ele>1743.5</ele>
        <time>2026-05-26T18:48:32</time>
      </trkpt>
      <trkpt lat="45.2866" lon="5.78223">
        <ele>1743.5</ele>
        <time>2026-05-26T18:48:32</time>
      </trkpt>
      <trkpt lat="45.28661" lon="5.78223">
        <ele>1743.5</ele>
        <time>2026-05-26T18:48:33</time>
      </trkpt>
      <trkpt lat="45.28662" lon="5.78223">
        <ele>1743.5</ele>
        <time>2026-05-26T18:48:35</time>
      </trkpt>
      <trkpt lat="45.28662" lon="5.78223">
        <ele>1743.5</ele>
        <time>2026-05-26T18:48:35</time>
      </trkpt>
      <trkpt lat="45.28663" lon="5.78223">
        <ele>1743.5</ele>
        <time>2026-05-26T18:48:36</time>
      </trkpt>
      <trkpt lat="45.28663" lon="5.78223">
        <ele>1743.5</ele>
        <time>2026-05-26T18:48:37</time>
      </trkpt>
      <trkpt lat="45.28663" lon="5.78223">
        <ele>1744.9333</ele>
        <time>2026-05-26T18:48:38</time>
      </trkpt>
      <trkpt lat="45.28664" lon="5.78223">
        <ele>1744.9333</ele>
        <time>2026-05-26T18:48:39</time>
      </trkpt>
      <trkpt lat="45.28664" lon="5.78224">
        <ele>1744.9333</ele>
        <time>2026-05-26T18:48:40</time>
      </trkpt>
      <trkpt lat="45.28665" lon="5.78224">
        <ele>1744.9333</ele>
        <time>2026-05-26T18:48:41</time>
      </trkpt>
      <trkpt lat="45.28665" lon="5.78225">
        <ele>1744.9333</ele>
        <time>2026-05-26T18:48:43</time>
      </trkpt>
      <trkpt lat="45.28666" lon="5.78225">
        <ele>1744.9333</ele>
        <time>2026-05-26T18:48:43</time>
      </trkpt>
      <trkpt lat="45.28666" lon="5.78226">
        <ele>1744.9333</ele>
        <time>2026-05-26T18:48:44</time>
      </trkpt>
      <trkpt lat="45.28666" lon="5.78227">
        <ele>1744.9333</ele>
        <time>2026-05-26T18:48:45</time>
      </trkpt>
      <trkpt lat="45.28667" lon="5.7823">
        <ele>1746.4</ele>
        <time>2026-05-26T18:48:48</time>
      </trkpt>
      <trkpt lat="45.28667" lon="5.78231">
        <ele>1746.4</ele>
        <time>2026-05-26T18:48:49</time>
      </trkpt>
      <trkpt lat="45.28668" lon="5.78231">
        <ele>1746.4</ele>
        <time>2026-05-26T18:48:50</time>
      </trkpt>
      <trkpt lat="45.28668" lon="5.78231">
        <ele>1746.4</ele>
        <time>2026-05-26T18:48:51</time>
      </trkpt>
      <trkpt lat="45.28669" lon="5.78231">
        <ele>1746.4</ele>
        <time>2026-05-26T18:48:52</time>
      </trkpt>
      <trkpt lat="45.28669" lon="5.78231">
        <ele>1746.4</ele>
        <time>2026-05-26T18:48:53</time>
      </trkpt>
      <trkpt lat="45.28672" lon="5.78234">
        <ele>1749.6</ele>
        <time>2026-05-26T18:49:00</time>
      </trkpt>
      <trkpt lat="45.28672" lon="5.78234">
        <ele>1750.9</ele>
        <time>2026-05-26T18:49:02</time>
      </trkpt>
      <trkpt lat="45.28672" lon="5.78235">
        <ele>1750.9</ele>
        <time>2026-05-26T18:49:03</time>
      </trkpt>
      <trkpt lat="45.28673" lon="5.78235">
        <ele>1750.9</ele>
        <time>2026-05-26T18:49:05</time>
      </trkpt>
      <trkpt lat="45.28673" lon="5.78236">
        <ele>1750.9</ele>
        <time>2026-05-26T18:49:06</time>
      </trkpt>
      <trkpt lat="45.28674" lon="5.78237">
        <ele>1750.9</ele>
        <time>2026-05-26T18:49:08</time>
      </trkpt>
      <trkpt lat="45.28675" lon="5.78238">
        <ele>1752.6</ele>
        <time>2026-05-26T18:49:11</time>
      </trkpt>
      <trkpt lat="45.28676" lon="5.78238">
        <ele>1752.6</ele>
        <time>2026-05-26T18:49:12</time>
      </trkpt>
      <trkpt lat="45.28676" lon="5.78239">
        <ele>1752.6</ele>
        <time>2026-05-26T18:49:14</time>
      </trkpt>
      <trkpt lat="45.28677" lon="5.78239">
        <ele>1752.6</ele>
        <time>2026-05-26T18:49:14</time>
      </trkpt>
      <trkpt lat="45.28678" lon="5.7824">
        <ele>1752.6</ele>
        <time>2026-05-26T18:49:17</time>
      </trkpt>
      <trkpt lat="45.28678" lon="5.7824">
        <ele>1755.4</ele>
        <time>2026-05-26T18:49:18</time>
      </trkpt>
      <trkpt lat="45.28678" lon="5.7824">
        <ele>1755.4</ele>
        <time>2026-05-26T18:49:19</time>
      </trkpt>
      <trkpt lat="45.28679" lon="5.78239">
        <ele>1755.4</ele>
        <time>2026-05-26T18:49:22</time>
      </trkpt>
      <trkpt lat="45.2868" lon="5.7824">
        <ele>1755.4</ele>
        <time>2026-05-26T18:49:23</time>
      </trkpt>
      <trkpt lat="45.28681" lon="5.78242">
        <ele>1758.7333</ele>
        <time>2026-05-26T18:49:27</time>
      </trkpt>
      <trkpt lat="45.28683" lon="5.78244">
        <ele>1758.7333</ele>
        <time>2026-05-26T18:49:30</time>
      </trkpt>
      <trkpt lat="45.28686" lon="5.78244">
        <ele>1759.5</ele>
        <time>2026-05-26T18:49:37</time>
      </trkpt>
      <trkpt lat="45.28687" lon="5.78244">
        <ele>1759.5</ele>
        <time>2026-05-26T18:49:39</time>
      </trkpt>
      <trkpt lat="45.28687" lon="5.78244">
        <ele>1759.5</ele>
        <time>2026-05-26T18:49:40</time>
      </trkpt>
      <trkpt lat="45.28688" lon="5.78245">
        <ele>1759.5</ele>
        <time>2026-05-26T18:49:42</time>
      </trkpt>
      <trkpt lat="45.28689" lon="5.78245">
        <ele>1760.6</ele>
        <time>2026-05-26T18:49:43</time>
      </trkpt>
      <trkpt lat="45.28689" lon="5.78245">
        <ele>1760.6</ele>
        <time>2026-05-26T18:49:43</time>
      </trkpt>
      <trkpt lat="45.28689" lon="5.78245">
        <ele>1760.6</ele>
        <time>2026-05-26T18:49:44</time>
      </trkpt>
      <trkpt lat="45.28689" lon="5.78246">
        <ele>1760.6</ele>
        <time>2026-05-26T18:49:45</time>
      </trkpt>
      <trkpt lat="45.28689" lon="5.78247">
        <ele>1760.6</ele>
        <time>2026-05-26T18:49:46</time>
      </trkpt>
      <trkpt lat="45.28689" lon="5.78248">
        <ele>1760.6</ele>
        <time>2026-05-26T18:49:47</time>
      </trkpt>
      <trkpt lat="45.28689" lon="5.78248">
        <ele>1760.6</ele>
        <time>2026-05-26T18:49:47</time>
      </trkpt>
      <trkpt lat="45.28689" lon="5.78249">
        <ele>1760.6</ele>
        <time>2026-05-26T18:49:48</time>
      </trkpt>
      <trkpt lat="45.28689" lon="5.7825">
        <ele>1760.6</ele>
        <time>2026-05-26T18:49:50</time>
      </trkpt>
      <trkpt lat="45.28689" lon="5.78251">
        <ele>1762.3</ele>
        <time>2026-05-26T18:49:51</time>
      </trkpt>
      <trkpt lat="45.28689" lon="5.78251">
        <ele>1762.3</ele>
        <time>2026-05-26T18:49:52</time>
      </trkpt>
      <trkpt lat="45.28689" lon="5.78252">
        <ele>1762.3</ele>
        <time>2026-05-26T18:49:53</time>
      </trkpt>
      <trkpt lat="45.28688" lon="5.78254">
        <ele>1762.3</ele>
        <time>2026-05-26T18:49:57</time>
      </trkpt>
      <trkpt lat="45.28689" lon="5.78255">
        <ele>1762.3</ele>
        <time>2026-05-26T18:49:58</time>
      </trkpt>
      <trkpt lat="45.28688" lon="5.78257">
        <ele>1763.4</ele>
        <time>2026-05-26T18:50:00</time>
      </trkpt>
      <trkpt lat="45.28687" lon="5.78259">
        <ele>1763.4</ele>
        <time>2026-05-26T18:50:03</time>
      </trkpt>
      <trkpt lat="45.28686" lon="5.78261">
        <ele>1763.4</ele>
        <time>2026-05-26T18:50:06</time>
      </trkpt>
      <trkpt lat="45.28685" lon="5.78261">
        <ele>1763.4</ele>
        <time>2026-05-26T18:50:06</time>
      </trkpt>
      <trkpt lat="45.28682" lon="5.78263">
        <ele>1761.7</ele>
        <time>2026-05-26T18:50:10</time>
      </trkpt>
      <trkpt lat="45.28681" lon="5.78264">
        <ele>1761.7</ele>
        <time>2026-05-26T18:50:12</time>
      </trkpt>
      <trkpt lat="45.28679" lon="5.78264">
        <ele>1761.7</ele>
        <time>2026-05-26T18:50:14</time>
      </trkpt>
      <trkpt lat="45.28677" lon="5.78264">
        <ele>1761.7333</ele>
        <time>2026-05-26T18:50:15</time>
      </trkpt>
      <trkpt lat="45.28677" lon="5.78264">
        <ele>1761.7333</ele>
        <time>2026-05-26T18:50:16</time>
      </trkpt>
      <trkpt lat="45.28669" lon="5.7826">
        <ele>1761.9</ele>
        <time>2026-05-26T18:50:23</time>
      </trkpt>
      <trkpt lat="45.28668" lon="5.7826">
        <ele>1761.9</ele>
        <time>2026-05-26T18:50:24</time>
      </trkpt>
      <trkpt lat="45.28666" lon="5.78259">
        <ele>1761.9</ele>
        <time>2026-05-26T18:50:26</time>
      </trkpt>
      <trkpt lat="45.28666" lon="5.78259">
        <ele>1761.9</ele>
        <time>2026-05-26T18:50:27</time>
      </trkpt>
      <trkpt lat="45.28665" lon="5.78259">
        <ele>1761.9</ele>
        <time>2026-05-26T18:50:27</time>
      </trkpt>
      <trkpt lat="45.28665" lon="5.78258">
        <ele>1761.9</ele>
        <time>2026-05-26T18:50:28</time>
      </trkpt>
      <trkpt lat="45.28664" lon="5.78258">
        <ele>1761.9</ele>
        <time>2026-05-26T18:50:29</time>
      </trkpt>
      <trkpt lat="45.28661" lon="5.78257">
        <ele>1762.7333</ele>
        <time>2026-05-26T18:50:32</time>
      </trkpt>
      <trkpt lat="45.28661" lon="5.78257">
        <ele>1762.7333</ele>
        <time>2026-05-26T18:50:32</time>
      </trkpt>
      <trkpt lat="45.2866" lon="5.78256">
        <ele>1762.7333</ele>
        <time>2026-05-26T18:50:34</time>
      </trkpt>
      <trkpt lat="45.28659" lon="5.78256">
        <ele>1762.7333</ele>
        <time>2026-05-26T18:50:34</time>
      </trkpt>
      <trkpt lat="45.28654" lon="5.78254">
        <ele>1764</ele>
        <time>2026-05-26T18:50:39</time>
      </trkpt>
      <trkpt lat="45.28653" lon="5.78253">
        <ele>1764</ele>
        <time>2026-05-26T18:50:40</time>
      </trkpt>
      <trkpt lat="45.28653" lon="5.78252">
        <ele>1764</ele>
        <time>2026-05-26T18:50:41</time>
      </trkpt>
      <trkpt lat="45.28652" lon="5.78252">
        <ele>1764</ele>
        <time>2026-05-26T18:50:43</time>
      </trkpt>
      <trkpt lat="45.28651" lon="5.78251">
        <ele>1764</ele>
        <time>2026-05-26T18:50:43</time>
      </trkpt>
      <trkpt lat="45.28651" lon="5.78251">
        <ele>1764</ele>
        <time>2026-05-26T18:50:44</time>
      </trkpt>
      <trkpt lat="45.28651" lon="5.7825">
        <ele>1765</ele>
        <time>2026-05-26T18:50:45</time>
      </trkpt>
      <trkpt lat="45.2865" lon="5.78248">
        <ele>1765</ele>
        <time>2026-05-26T18:50:46</time>
      </trkpt>
      <trkpt lat="45.28651" lon="5.78248">
        <ele>1765</ele>
        <time>2026-05-26T18:50:47</time>
      </trkpt>
      <trkpt lat="45.28651" lon="5.78248">
        <ele>1765</ele>
        <time>2026-05-26T18:50:49</time>
      </trkpt>
      <trkpt lat="45.28651" lon="5.78247">
        <ele>1765</ele>
        <time>2026-05-26T18:50:52</time>
      </trkpt>
      <trkpt lat="45.28651" lon="5.78247">
        <ele>1765</ele>
        <time>2026-05-26T18:50:53</time>
      </trkpt>
      <trkpt lat="45.28651" lon="5.78247">
        <ele>1767.8667</ele>
        <time>2026-05-26T18:50:55</time>
      </trkpt>
      <trkpt lat="45.28651" lon="5.78246">
        <ele>1767.8667</ele>
        <time>2026-05-26T18:50:57</time>
      </trkpt>
      <trkpt lat="45.2865" lon="5.78245">
        <ele>1767.8667</ele>
        <time>2026-05-26T18:50:58</time>
      </trkpt>
      <trkpt lat="45.28649" lon="5.78245">
        <ele>1767.8667</ele>
        <time>2026-05-26T18:50:59</time>
      </trkpt>
      <trkpt lat="45.28649" lon="5.78245">
        <ele>1767.8667</ele>
        <time>2026-05-26T18:51:00</time>
      </trkpt>
      <trkpt lat="45.28647" lon="5.78244">
        <ele>1768.5</ele>
        <time>2026-05-26T18:51:02</time>
      </trkpt>
      <trkpt lat="45.28645" lon="5.78244">
        <ele>1768.5</ele>
        <time>2026-05-26T18:51:03</time>
      </trkpt>
      <trkpt lat="45.28644" lon="5.78244">
        <ele>1768.5</ele>
        <time>2026-05-26T18:51:04</time>
      </trkpt>
      <trkpt lat="45.28643" lon="5.78244">
        <ele>1768.5</ele>
        <time>2026-05-26T18:51:05</time>
      </trkpt>
      <trkpt lat="45.28642" lon="5.78245">
        <ele>1768.5</ele>
        <time>2026-05-26T18:51:06</time>
      </trkpt>
      <trkpt lat="45.28641" lon="5.78246">
        <ele>1768.5</ele>
        <time>2026-05-26T18:51:07</time>
      </trkpt>
      <trkpt lat="45.2864" lon="5.78247">
        <ele>1769.1</ele>
        <time>2026-05-26T18:51:09</time>
      </trkpt>
      <trkpt lat="45.28639" lon="5.78247">
        <ele>1769.1</ele>
        <time>2026-05-26T18:51:10</time>
      </trkpt>
      <trkpt lat="45.28637" lon="5.78247">
        <ele>1769.1</ele>
        <time>2026-05-26T18:51:13</time>
      </trkpt>
      <trkpt lat="45.28632" lon="5.78246">
        <ele>1770.2</ele>
        <time>2026-05-26T18:51:19</time>
      </trkpt>
      <trkpt lat="45.2863" lon="5.78244">
        <ele>1770.2</ele>
        <time>2026-05-26T18:51:22</time>
      </trkpt>
      <trkpt lat="45.2863" lon="5.78244">
        <ele>1770.7</ele>
        <time>2026-05-26T18:51:23</time>
      </trkpt>
      <trkpt lat="45.28629" lon="5.78244">
        <ele>1770.7</ele>
        <time>2026-05-26T18:51:24</time>
      </trkpt>
      <trkpt lat="45.28628" lon="5.78245">
        <ele>1770.7</ele>
        <time>2026-05-26T18:51:26</time>
      </trkpt>
      <trkpt lat="45.28626" lon="5.78245">
        <ele>1771.9</ele>
        <time>2026-05-26T18:51:30</time>
      </trkpt>
      <trkpt lat="45.28625" lon="5.78245">
        <ele>1771.9</ele>
        <time>2026-05-26T18:51:32</time>
      </trkpt>
      <trkpt lat="45.28625" lon="5.78245">
        <ele>1771.9</ele>
        <time>2026-05-26T18:51:33</time>
      </trkpt>
      <trkpt lat="45.28624" lon="5.78246">
        <ele>1771.9</ele>
        <time>2026-05-26T18:51:34</time>
      </trkpt>
      <trkpt lat="45.28623" lon="5.78246">
        <ele>1771.9</ele>
        <time>2026-05-26T18:51:36</time>
      </trkpt>
      <trkpt lat="45.28622" lon="5.78246">
        <ele>1772.7</ele>
        <time>2026-05-26T18:51:38</time>
      </trkpt>
      <trkpt lat="45.28621" lon="5.78246">
        <ele>1772.7</ele>
        <time>2026-05-26T18:51:40</time>
      </trkpt>
      <trkpt lat="45.28621" lon="5.78246">
        <ele>1772.7</ele>
        <time>2026-05-26T18:51:41</time>
      </trkpt>
      <trkpt lat="45.28619" lon="5.78246">
        <ele>1772.7</ele>
        <time>2026-05-26T18:51:43</time>
      </trkpt>
      <trkpt lat="45.28619" lon="5.78246">
        <ele>1772.7</ele>
        <time>2026-05-26T18:51:44</time>
      </trkpt>
      <trkpt lat="45.28618" lon="5.78247">
        <ele>1773.3</ele>
        <time>2026-05-26T18:51:46</time>
      </trkpt>
      <trkpt lat="45.28618" lon="5.78247">
        <ele>1773.3</ele>
        <time>2026-05-26T18:51:46</time>
      </trkpt>
      <trkpt lat="45.28618" lon="5.78248">
        <ele>1773.3</ele>
        <time>2026-05-26T18:51:47</time>
      </trkpt>
      <trkpt lat="45.28618" lon="5.78249">
        <ele>1773.3</ele>
        <time>2026-05-26T18:51:48</time>
      </trkpt>
      <trkpt lat="45.28619" lon="5.7825">
        <ele>1773.3</ele>
        <time>2026-05-26T18:51:49</time>
      </trkpt>
      <trkpt lat="45.28619" lon="5.7825">
        <ele>1773.3</ele>
        <time>2026-05-26T18:51:50</time>
      </trkpt>
      <trkpt lat="45.2862" lon="5.7825">
        <ele>1773.3</ele>
        <time>2026-05-26T18:51:51</time>
      </trkpt>
      <trkpt lat="45.2862" lon="5.7825">
        <ele>1773.3</ele>
        <time>2026-05-26T18:51:52</time>
      </trkpt>
      <trkpt lat="45.2862" lon="5.7825">
        <ele>1776.1</ele>
        <time>2026-05-26T18:51:53</time>
      </trkpt>
      <trkpt lat="45.28621" lon="5.7825">
        <ele>1776.1</ele>
        <time>2026-05-26T18:51:54</time>
      </trkpt>
      <trkpt lat="45.28621" lon="5.7825">
        <ele>1776.1</ele>
        <time>2026-05-26T18:51:55</time>
      </trkpt>
      <trkpt lat="45.28622" lon="5.78251">
        <ele>1776.1</ele>
        <time>2026-05-26T18:51:57</time>
      </trkpt>
      <trkpt lat="45.28622" lon="5.78251">
        <ele>1776.1</ele>
        <time>2026-05-26T18:51:58</time>
      </trkpt>
      <trkpt lat="45.28622" lon="5.78251">
        <ele>1776.1</ele>
        <time>2026-05-26T18:51:58</time>
      </trkpt>
      <trkpt lat="45.28623" lon="5.78252">
        <ele>1776.1</ele>
        <time>2026-05-26T18:52:00</time>
      </trkpt>
      <trkpt lat="45.28623" lon="5.78253">
        <ele>1776.9</ele>
        <time>2026-05-26T18:52:00</time>
      </trkpt>
      <trkpt lat="45.28623" lon="5.78253">
        <ele>1776.9</ele>
        <time>2026-05-26T18:52:01</time>
      </trkpt>
      <trkpt lat="45.28624" lon="5.78254">
        <ele>1776.9</ele>
        <time>2026-05-26T18:52:03</time>
      </trkpt>
      <trkpt lat="45.28624" lon="5.78254">
        <ele>1776.9</ele>
        <time>2026-05-26T18:52:04</time>
      </trkpt>
      <trkpt lat="45.28625" lon="5.78255">
        <ele>1776.9</ele>
        <time>2026-05-26T18:52:04</time>
      </trkpt>
      <trkpt lat="45.28625" lon="5.78255">
        <ele>1776.9</ele>
        <time>2026-05-26T18:52:05</time>
      </trkpt>
      <trkpt lat="45.28625" lon="5.78257">
        <ele>1776.9</ele>
        <time>2026-05-26T18:52:07</time>
      </trkpt>
      <trkpt lat="45.28625" lon="5.78257">
        <ele>1776.9</ele>
        <time>2026-05-26T18:52:08</time>
      </trkpt>
      <trkpt lat="45.28625" lon="5.78257">
        <ele>1778.8</ele>
        <time>2026-05-26T18:52:09</time>
      </trkpt>
      <trkpt lat="45.28624" lon="5.78257">
        <ele>1778.8</ele>
        <time>2026-05-26T18:52:09</time>
      </trkpt>
      <trkpt lat="45.28624" lon="5.78257">
        <ele>1778.8</ele>
        <time>2026-05-26T18:52:10</time>
      </trkpt>
      <trkpt lat="45.28623" lon="5.78258">
        <ele>1778.8</ele>
        <time>2026-05-26T18:52:15</time>
      </trkpt>
      <trkpt lat="45.28622" lon="5.78259">
        <ele>1780.5</ele>
        <time>2026-05-26T18:52:17</time>
      </trkpt>
      <trkpt lat="45.28617" lon="5.78261">
        <ele>1780.5</ele>
        <time>2026-05-26T18:52:22</time>
      </trkpt>
      <trkpt lat="45.28616" lon="5.78261">
        <ele>1780.5</ele>
        <time>2026-05-26T18:52:22</time>
      </trkpt>
      <trkpt lat="45.28614" lon="5.78259">
        <ele>1781</ele>
        <time>2026-05-26T18:52:24</time>
      </trkpt>
      <trkpt lat="45.28611" lon="5.78258">
        <ele>1781</ele>
        <time>2026-05-26T18:52:30</time>
      </trkpt>
      <trkpt lat="45.2861" lon="5.78258">
        <ele>1781</ele>
        <time>2026-05-26T18:52:31</time>
      </trkpt>
      <trkpt lat="45.28608" lon="5.78257">
        <ele>1781</ele>
        <time>2026-05-26T18:52:34</time>
      </trkpt>
      <trkpt lat="45.28608" lon="5.78258">
        <ele>1781</ele>
        <time>2026-05-26T18:52:35</time>
      </trkpt>
      <trkpt lat="45.28608" lon="5.78258">
        <ele>1781</ele>
        <time>2026-05-26T18:52:36</time>
      </trkpt>
      <trkpt lat="45.28608" lon="5.78259">
        <ele>1781</ele>
        <time>2026-05-26T18:52:38</time>
      </trkpt>
      <trkpt lat="45.28607" lon="5.78259">
        <ele>1781</ele>
        <time>2026-05-26T18:52:38</time>
      </trkpt>
      <trkpt lat="45.28607" lon="5.78258">
        <ele>1781.5</ele>
        <time>2026-05-26T18:52:39</time>
      </trkpt>
      <trkpt lat="45.28606" lon="5.78258">
        <ele>1781.5</ele>
        <time>2026-05-26T18:52:41</time>
      </trkpt>
      <trkpt lat="45.28605" lon="5.78258">
        <ele>1781.5</ele>
        <time>2026-05-26T18:52:43</time>
      </trkpt>
      <trkpt lat="45.28604" lon="5.78258">
        <ele>1781.5</ele>
        <time>2026-05-26T18:52:46</time>
      </trkpt>
      <trkpt lat="45.28603" lon="5.78258">
        <ele>1782.9333</ele>
        <time>2026-05-26T18:52:47</time>
      </trkpt>
      <trkpt lat="45.28603" lon="5.78259">
        <ele>1782.9333</ele>
        <time>2026-05-26T18:52:48</time>
      </trkpt>
      <trkpt lat="45.28602" lon="5.78259">
        <ele>1782.9333</ele>
        <time>2026-05-26T18:52:49</time>
      </trkpt>
      <trkpt lat="45.28602" lon="5.7826">
        <ele>1782.9333</ele>
        <time>2026-05-26T18:52:50</time>
      </trkpt>
      <trkpt lat="45.28603" lon="5.7826">
        <ele>1782.9333</ele>
        <time>2026-05-26T18:52:50</time>
      </trkpt>
      <trkpt lat="45.28603" lon="5.7826">
        <ele>1782.9333</ele>
        <time>2026-05-26T18:52:51</time>
      </trkpt>
      <trkpt lat="45.28604" lon="5.78261">
        <ele>1785</ele>
        <time>2026-05-26T18:52:55</time>
      </trkpt>
      <trkpt lat="45.28604" lon="5.78261">
        <ele>1785</ele>
        <time>2026-05-26T18:52:56</time>
      </trkpt>
      <trkpt lat="45.28605" lon="5.78262">
        <ele>1785</ele>
        <time>2026-05-26T18:52:57</time>
      </trkpt>
      <trkpt lat="45.28605" lon="5.78263">
        <ele>1785</ele>
        <time>2026-05-26T18:52:59</time>
      </trkpt>
      <trkpt lat="45.28605" lon="5.78263">
        <ele>1785</ele>
        <time>2026-05-26T18:53:00</time>
      </trkpt>
      <trkpt lat="45.28605" lon="5.78263">
        <ele>1785</ele>
        <time>2026-05-26T18:53:01</time>
      </trkpt>
      <trkpt lat="45.28605" lon="5.78263">
        <ele>1785</ele>
        <time>2026-05-26T18:53:01</time>
      </trkpt>
      <trkpt lat="45.28605" lon="5.78263">
        <ele>1785</ele>
        <time>2026-05-26T18:53:02</time>
      </trkpt>
      <trkpt lat="45.28605" lon="5.78263">
        <ele>1787.0667</ele>
        <time>2026-05-26T18:53:03</time>
      </trkpt>
      <trkpt lat="45.28605" lon="5.78263">
        <ele>1787.0667</ele>
        <time>2026-05-26T18:53:04</time>
      </trkpt>
      <trkpt lat="45.28605" lon="5.78263">
        <ele>1787.0667</ele>
        <time>2026-05-26T18:53:05</time>
      </trkpt>
      <trkpt lat="45.28605" lon="5.78263">
        <ele>1787.0667</ele>
        <time>2026-05-26T18:53:07</time>
      </trkpt>
      <trkpt lat="45.28605" lon="5.78263">
        <ele>1787.0667</ele>
        <time>2026-05-26T18:53:10</time>
      </trkpt>
      <trkpt lat="45.28605" lon="5.78263">
        <ele>1787.9</ele>
        <time>2026-05-26T18:53:11</time>
      </trkpt>
      <trkpt lat="45.28605" lon="5.78263">
        <ele>1787.9</ele>
        <time>2026-05-26T18:53:12</time>
      </trkpt>
      <trkpt lat="45.28605" lon="5.78263">
        <ele>1787.9</ele>
        <time>2026-05-26T18:53:13</time>
      </trkpt>
      <trkpt lat="45.28605" lon="5.78263">
        <ele>1787.9</ele>
        <time>2026-05-26T18:53:14</time>
      </trkpt>
      <trkpt lat="45.28605" lon="5.78263">
        <ele>1787.9</ele>
        <time>2026-05-26T18:53:15</time>
      </trkpt>
      <trkpt lat="45.28605" lon="5.78263">
        <ele>1787.9</ele>
        <time>2026-05-26T18:53:16</time>
      </trkpt>
      <trkpt lat="45.28605" lon="5.78263">
        <ele>1787.9</ele>
        <time>2026-05-26T18:53:17</time>
      </trkpt>
      <trkpt lat="45.28605" lon="5.78263">
        <ele>1787.9</ele>
        <time>2026-05-26T18:53:17</time>
      </trkpt>
      <trkpt lat="45.28604" lon="5.78263">
        <ele>1787.9</ele>
        <time>2026-05-26T18:53:18</time>
      </trkpt>
      <trkpt lat="45.28604" lon="5.78263">
        <ele>1787.9</ele>
        <time>2026-05-26T18:53:19</time>
      </trkpt>
      <trkpt lat="45.28603" lon="5.78263">
        <ele>1787.9</ele>
        <time>2026-05-26T18:53:20</time>
      </trkpt>
      <trkpt lat="45.28597" lon="5.78266">
        <ele>1787.9</ele>
        <time>2026-05-26T18:53:23</time>
      </trkpt>
      <trkpt lat="45.28595" lon="5.78266">
        <ele>1787.9</ele>
        <time>2026-05-26T18:53:24</time>
      </trkpt>
      <trkpt lat="45.28591" lon="5.78264">
        <ele>1787.9</ele>
        <time>2026-05-26T18:53:27</time>
      </trkpt>
      <trkpt lat="45.28589" lon="5.78263">
        <ele>1792.2333</ele>
        <time>2026-05-26T18:53:30</time>
      </trkpt>
      <trkpt lat="45.28587" lon="5.78263">
        <ele>1792.2333</ele>
        <time>2026-05-26T18:53:32</time>
      </trkpt>
      <trkpt lat="45.28584" lon="5.78264">
        <ele>1792.2333</ele>
        <time>2026-05-26T18:53:36</time>
      </trkpt>
      <trkpt lat="45.28582" lon="5.78263">
        <ele>1791.6</ele>
        <time>2026-05-26T18:53:38</time>
      </trkpt>
      <trkpt lat="45.28581" lon="5.78263">
        <ele>1791.6</ele>
        <time>2026-05-26T18:53:40</time>
      </trkpt>
      <trkpt lat="45.2858" lon="5.78263">
        <ele>1791.6</ele>
        <time>2026-05-26T18:53:42</time>
      </trkpt>
      <trkpt lat="45.28578" lon="5.78264">
        <ele>1791.4</ele>
        <time>2026-05-26T18:53:46</time>
      </trkpt>
      <trkpt lat="45.28577" lon="5.78264">
        <ele>1791.4</ele>
        <time>2026-05-26T18:53:47</time>
      </trkpt>
      <trkpt lat="45.28576" lon="5.78264">
        <ele>1791.4</ele>
        <time>2026-05-26T18:53:49</time>
      </trkpt>
      <trkpt lat="45.28573" lon="5.78263">
        <ele>1791.7</ele>
        <time>2026-05-26T18:53:53</time>
      </trkpt>
      <trkpt lat="45.28572" lon="5.78263">
        <ele>1791.7</ele>
        <time>2026-05-26T18:53:54</time>
      </trkpt>
      <trkpt lat="45.2857" lon="5.78263">
        <ele>1791.7</ele>
        <time>2026-05-26T18:53:56</time>
      </trkpt>
      <trkpt lat="45.28564" lon="5.78263">
        <ele>1793</ele>
        <time>2026-05-26T18:54:03</time>
      </trkpt>
      <trkpt lat="45.28563" lon="5.78264">
        <ele>1793.8</ele>
        <time>2026-05-26T18:54:06</time>
      </trkpt>
      <trkpt lat="45.28562" lon="5.78264">
        <ele>1793.8</ele>
        <time>2026-05-26T18:54:07</time>
      </trkpt>
      <trkpt lat="45.28558" lon="5.78262">
        <ele>1793.8</ele>
        <time>2026-05-26T18:54:11</time>
      </trkpt>
      <trkpt lat="45.28554" lon="5.78261">
        <ele>1794.9333</ele>
        <time>2026-05-26T18:54:15</time>
      </trkpt>
      <trkpt lat="45.28552" lon="5.78261">
        <ele>1794.9333</ele>
        <time>2026-05-26T18:54:17</time>
      </trkpt>
      <trkpt lat="45.28551" lon="5.78261">
        <ele>1794.9333</ele>
        <time>2026-05-26T18:54:18</time>
      </trkpt>
      <trkpt lat="45.28551" lon="5.78262">
        <ele>1794.9333</ele>
        <time>2026-05-26T18:54:19</time>
      </trkpt>
      <trkpt lat="45.28549" lon="5.78263">
        <ele>1795.8</ele>
        <time>2026-05-26T18:54:21</time>
      </trkpt>
      <trkpt lat="45.28549" lon="5.78263">
        <ele>1795.8</ele>
        <time>2026-05-26T18:54:22</time>
      </trkpt>
      <trkpt lat="45.28548" lon="5.78263">
        <ele>1795.8</ele>
        <time>2026-05-26T18:54:23</time>
      </trkpt>
      <trkpt lat="45.28546" lon="5.78261">
        <ele>1795.8</ele>
        <time>2026-05-26T18:54:25</time>
      </trkpt>
      <trkpt lat="45.28546" lon="5.78261">
        <ele>1795.8</ele>
        <time>2026-05-26T18:54:26</time>
      </trkpt>
      <trkpt lat="45.28545" lon="5.78261">
        <ele>1795.8</ele>
        <time>2026-05-26T18:54:27</time>
      </trkpt>
      <trkpt lat="45.28544" lon="5.78261">
        <ele>1797.5</ele>
        <time>2026-05-26T18:54:28</time>
      </trkpt>
      <trkpt lat="45.28538" lon="5.7826">
        <ele>1797.5</ele>
        <time>2026-05-26T18:54:34</time>
      </trkpt>
      <trkpt lat="45.28535" lon="5.7826">
        <ele>1799.1</ele>
        <time>2026-05-26T18:54:37</time>
      </trkpt>
      <trkpt lat="45.28534" lon="5.78259">
        <ele>1799.1</ele>
        <time>2026-05-26T18:54:40</time>
      </trkpt>
      <trkpt lat="45.28533" lon="5.78259">
        <ele>1799.1</ele>
        <time>2026-05-26T18:54:40</time>
      </trkpt>
      <trkpt lat="45.28532" lon="5.78259">
        <ele>1799.1</ele>
        <time>2026-05-26T18:54:42</time>
      </trkpt>
      <trkpt lat="45.28532" lon="5.78259">
        <ele>1799.9</ele>
        <time>2026-05-26T18:54:43</time>
      </trkpt>
      <trkpt lat="45.2853" lon="5.78259">
        <ele>1799.9</ele>
        <time>2026-05-26T18:54:44</time>
      </trkpt>
      <trkpt lat="45.28528" lon="5.78259">
        <ele>1799.9</ele>
        <time>2026-05-26T18:54:48</time>
      </trkpt>
      <trkpt lat="45.28527" lon="5.78259">
        <ele>1799.9</ele>
        <time>2026-05-26T18:54:49</time>
      </trkpt>
      <trkpt lat="45.28526" lon="5.78259">
        <ele>1799.9</ele>
        <time>2026-05-26T18:54:50</time>
      </trkpt>
      <trkpt lat="45.28524" lon="5.78258">
        <ele>1799.8</ele>
        <time>2026-05-26T18:54:52</time>
      </trkpt>
      <trkpt lat="45.28522" lon="5.78258">
        <ele>1799.8</ele>
        <time>2026-05-26T18:54:55</time>
      </trkpt>
      <trkpt lat="45.28521" lon="5.78257">
        <ele>1799.8</ele>
        <time>2026-05-26T18:54:56</time>
      </trkpt>
      <trkpt lat="45.28518" lon="5.78256">
        <ele>1802.4</ele>
        <time>2026-05-26T18:55:00</time>
      </trkpt>
      <trkpt lat="45.28516" lon="5.78255">
        <ele>1802.4</ele>
        <time>2026-05-26T18:55:01</time>
      </trkpt>
      <trkpt lat="45.28514" lon="5.78256">
        <ele>1802.4</ele>
        <time>2026-05-26T18:55:04</time>
      </trkpt>
      <trkpt lat="45.28512" lon="5.78256">
        <ele>1803.6666</ele>
        <time>2026-05-26T18:55:07</time>
      </trkpt>
      <trkpt lat="45.28511" lon="5.78257">
        <ele>1803.6666</ele>
        <time>2026-05-26T18:55:09</time>
      </trkpt>
      <trkpt lat="45.2851" lon="5.78258">
        <ele>1803.6666</ele>
        <time>2026-05-26T18:55:10</time>
      </trkpt>
      <trkpt lat="45.28509" lon="5.78258">
        <ele>1806.5</ele>
        <time>2026-05-26T18:55:12</time>
      </trkpt>
      <trkpt lat="45.28504" lon="5.78256">
        <ele>1806.5</ele>
        <time>2026-05-26T18:55:18</time>
      </trkpt>
      <trkpt lat="45.28504" lon="5.78256">
        <ele>1806.5</ele>
        <time>2026-05-26T18:55:19</time>
      </trkpt>
      <trkpt lat="45.28502" lon="5.78257">
        <ele>1806.8</ele>
        <time>2026-05-26T18:55:21</time>
      </trkpt>
      <trkpt lat="45.285" lon="5.78256">
        <ele>1806.8</ele>
        <time>2026-05-26T18:55:24</time>
      </trkpt>
      <trkpt lat="45.28498" lon="5.78256">
        <ele>1806.8</ele>
        <time>2026-05-26T18:55:27</time>
      </trkpt>
      <trkpt lat="45.28497" lon="5.78256">
        <ele>1807.3</ele>
        <time>2026-05-26T18:55:29</time>
      </trkpt>
      <trkpt lat="45.28496" lon="5.78256">
        <ele>1807.3</ele>
        <time>2026-05-26T18:55:30</time>
      </trkpt>
      <trkpt lat="45.28496" lon="5.78256">
        <ele>1807.3</ele>
        <time>2026-05-26T18:55:31</time>
      </trkpt>
      <trkpt lat="45.28495" lon="5.78255">
        <ele>1807.3</ele>
        <time>2026-05-26T18:55:32</time>
      </trkpt>
      <trkpt lat="45.28494" lon="5.78255">
        <ele>1807.3</ele>
        <time>2026-05-26T18:55:34</time>
      </trkpt>
      <trkpt lat="45.28492" lon="5.78255">
        <ele>1808.1</ele>
        <time>2026-05-26T18:55:37</time>
      </trkpt>
      <trkpt lat="45.2849" lon="5.78255">
        <ele>1808.1</ele>
        <time>2026-05-26T18:55:39</time>
      </trkpt>
      <trkpt lat="45.28487" lon="5.78254">
        <ele>1808.5</ele>
        <time>2026-05-26T18:55:43</time>
      </trkpt>
      <trkpt lat="45.28486" lon="5.78253">
        <ele>1808.5</ele>
        <time>2026-05-26T18:55:45</time>
      </trkpt>
      <trkpt lat="45.28484" lon="5.78252">
        <ele>1808.5</ele>
        <time>2026-05-26T18:55:48</time>
      </trkpt>
      <trkpt lat="45.28481" lon="5.78252">
        <ele>1810.1</ele>
        <time>2026-05-26T18:55:51</time>
      </trkpt>
      <trkpt lat="45.28478" lon="5.7825">
        <ele>1810.1</ele>
        <time>2026-05-26T18:55:54</time>
      </trkpt>
      <trkpt lat="45.28478" lon="5.7825">
        <ele>1810.1</ele>
        <time>2026-05-26T18:55:55</time>
      </trkpt>
      <trkpt lat="45.28471" lon="5.78251">
        <ele>1812.6</ele>
        <time>2026-05-26T18:56:02</time>
      </trkpt>
      <trkpt lat="45.28469" lon="5.78251">
        <ele>1812.6</ele>
        <time>2026-05-26T18:56:05</time>
      </trkpt>
      <trkpt lat="45.28468" lon="5.78251">
        <ele>1812.3</ele>
        <time>2026-05-26T18:56:05</time>
      </trkpt>
      <trkpt lat="45.28468" lon="5.78251">
        <ele>1812.3</ele>
        <time>2026-05-26T18:56:06</time>
      </trkpt>
      <trkpt lat="45.28467" lon="5.78251">
        <ele>1812.3</ele>
        <time>2026-05-26T18:56:07</time>
      </trkpt>
      <trkpt lat="45.28467" lon="5.78252">
        <ele>1812.3</ele>
        <time>2026-05-26T18:56:08</time>
      </trkpt>
      <trkpt lat="45.28467" lon="5.78253">
        <ele>1812.3</ele>
        <time>2026-05-26T18:56:08</time>
      </trkpt>
      <trkpt lat="45.28468" lon="5.78254">
        <ele>1812.3</ele>
        <time>2026-05-26T18:56:09</time>
      </trkpt>
      <trkpt lat="45.28468" lon="5.78255">
        <ele>1812.3</ele>
        <time>2026-05-26T18:56:10</time>
      </trkpt>
      <trkpt lat="45.28469" lon="5.78255">
        <ele>1812.3</ele>
        <time>2026-05-26T18:56:11</time>
      </trkpt>
      <trkpt lat="45.2847" lon="5.78256">
        <ele>1812.3</ele>
        <time>2026-05-26T18:56:12</time>
      </trkpt>
      <trkpt lat="45.28471" lon="5.78256">
        <ele>1812.9667</ele>
        <time>2026-05-26T18:56:13</time>
      </trkpt>
      <trkpt lat="45.28472" lon="5.78256">
        <ele>1812.9667</ele>
        <time>2026-05-26T18:56:14</time>
      </trkpt>
      <trkpt lat="45.28473" lon="5.78256">
        <ele>1812.9667</ele>
        <time>2026-05-26T18:56:15</time>
      </trkpt>
      <trkpt lat="45.28473" lon="5.78257">
        <ele>1812.9667</ele>
        <time>2026-05-26T18:56:16</time>
      </trkpt>
      <trkpt lat="45.28478" lon="5.78262">
        <ele>1814.6</ele>
        <time>2026-05-26T18:56:23</time>
      </trkpt>
      <trkpt lat="45.28479" lon="5.78263">
        <ele>1814.6</ele>
        <time>2026-05-26T18:56:25</time>
      </trkpt>
      <trkpt lat="45.2848" lon="5.78264">
        <ele>1814.6</ele>
        <time>2026-05-26T18:56:27</time>
      </trkpt>
      <trkpt lat="45.2848" lon="5.78265">
        <ele>1815.1</ele>
        <time>2026-05-26T18:56:28</time>
      </trkpt>
      <trkpt lat="45.2848" lon="5.78266">
        <ele>1815.1</ele>
        <time>2026-05-26T18:56:28</time>
      </trkpt>
      <trkpt lat="45.28479" lon="5.78266">
        <ele>1815.1</ele>
        <time>2026-05-26T18:56:29</time>
      </trkpt>
      <trkpt lat="45.28479" lon="5.78266">
        <ele>1815.1</ele>
        <time>2026-05-26T18:56:30</time>
      </trkpt>
      <trkpt lat="45.28476" lon="5.78265">
        <ele>1815.1</ele>
        <time>2026-05-26T18:56:34</time>
      </trkpt>
      <trkpt lat="45.28475" lon="5.78265">
        <ele>1816</ele>
        <time>2026-05-26T18:56:35</time>
      </trkpt>
      <trkpt lat="45.28473" lon="5.78265">
        <ele>1816</ele>
        <time>2026-05-26T18:56:37</time>
      </trkpt>
      <trkpt lat="45.28466" lon="5.78263">
        <ele>1817.3</ele>
        <time>2026-05-26T18:56:44</time>
      </trkpt>
      <trkpt lat="45.28462" lon="5.78264">
        <ele>1819.6</ele>
        <time>2026-05-26T18:56:50</time>
      </trkpt>
      <trkpt lat="45.2846" lon="5.78264">
        <ele>1819.6</ele>
        <time>2026-05-26T18:56:52</time>
      </trkpt>
      <trkpt lat="45.2846" lon="5.78265">
        <ele>1819.6</ele>
        <time>2026-05-26T18:56:54</time>
      </trkpt>
      <trkpt lat="45.28459" lon="5.78265">
        <ele>1819.6</ele>
        <time>2026-05-26T18:56:54</time>
      </trkpt>
      <trkpt lat="45.28458" lon="5.78265">
        <ele>1819.6</ele>
        <time>2026-05-26T18:56:56</time>
      </trkpt>
      <trkpt lat="45.28458" lon="5.78265">
        <ele>1820.1</ele>
        <time>2026-05-26T18:56:57</time>
      </trkpt>
      <trkpt lat="45.28458" lon="5.78265">
        <ele>1820.1</ele>
        <time>2026-05-26T18:56:57</time>
      </trkpt>
      <trkpt lat="45.28457" lon="5.78265">
        <ele>1820.1</ele>
        <time>2026-05-26T18:56:59</time>
      </trkpt>
      <trkpt lat="45.28456" lon="5.78265">
        <ele>1820.1</ele>
        <time>2026-05-26T18:57:01</time>
      </trkpt>
      <trkpt lat="45.28455" lon="5.78265">
        <ele>1820.1</ele>
        <time>2026-05-26T18:57:03</time>
      </trkpt>
      <trkpt lat="45.28453" lon="5.78265">
        <ele>1822.3</ele>
        <time>2026-05-26T18:57:05</time>
      </trkpt>
      <trkpt lat="45.28452" lon="5.78264">
        <ele>1822.3</ele>
        <time>2026-05-26T18:57:07</time>
      </trkpt>
      <trkpt lat="45.2845" lon="5.78263">
        <ele>1822.3</ele>
        <time>2026-05-26T18:57:09</time>
      </trkpt>
      <trkpt lat="45.28446" lon="5.78264">
        <ele>1823.6</ele>
        <time>2026-05-26T18:57:14</time>
      </trkpt>
      <trkpt lat="45.28446" lon="5.78264">
        <ele>1823.6</ele>
        <time>2026-05-26T18:57:15</time>
      </trkpt>
      <trkpt lat="45.28444" lon="5.78263">
        <ele>1824.5333</ele>
        <time>2026-05-26T18:57:18</time>
      </trkpt>
      <trkpt lat="45.28443" lon="5.78263">
        <ele>1824.5333</ele>
        <time>2026-05-26T18:57:19</time>
      </trkpt>
      <trkpt lat="45.28442" lon="5.78263">
        <ele>1824.5333</ele>
        <time>2026-05-26T18:57:20</time>
      </trkpt>
      <trkpt lat="45.28439" lon="5.78264">
        <ele>1824.5333</ele>
        <time>2026-05-26T18:57:23</time>
      </trkpt>
      <trkpt lat="45.28438" lon="5.78265">
        <ele>1824.5333</ele>
        <time>2026-05-26T18:57:24</time>
      </trkpt>
      <trkpt lat="45.28435" lon="5.78265">
        <ele>1824.8</ele>
        <time>2026-05-26T18:57:27</time>
      </trkpt>
      <trkpt lat="45.28434" lon="5.78265">
        <ele>1824.8</ele>
        <time>2026-05-26T18:57:28</time>
      </trkpt>
      <trkpt lat="45.28434" lon="5.78265">
        <ele>1824.8</ele>
        <time>2026-05-26T18:57:29</time>
      </trkpt>
      <trkpt lat="45.28432" lon="5.78264">
        <ele>1824.8</ele>
        <time>2026-05-26T18:57:31</time>
      </trkpt>
      <trkpt lat="45.2843" lon="5.78264">
        <ele>1824.8</ele>
        <time>2026-05-26T18:57:33</time>
      </trkpt>
      <trkpt lat="45.28429" lon="5.78265">
        <ele>1826.9</ele>
        <time>2026-05-26T18:57:35</time>
      </trkpt>
      <trkpt lat="45.28428" lon="5.78266">
        <ele>1826.9</ele>
        <time>2026-05-26T18:57:36</time>
      </trkpt>
      <trkpt lat="45.28428" lon="5.78266">
        <ele>1826.9</ele>
        <time>2026-05-26T18:57:37</time>
      </trkpt>
      <trkpt lat="45.28428" lon="5.78267">
        <ele>1826.9</ele>
        <time>2026-05-26T18:57:37</time>
      </trkpt>
      <trkpt lat="45.28428" lon="5.78268">
        <ele>1826.9</ele>
        <time>2026-05-26T18:57:38</time>
      </trkpt>
      <trkpt lat="45.2843" lon="5.78271">
        <ele>1826.9</ele>
        <time>2026-05-26T18:57:42</time>
      </trkpt>
      <trkpt lat="45.28431" lon="5.78271">
        <ele>1829.7</ele>
        <time>2026-05-26T18:57:43</time>
      </trkpt>
      <trkpt lat="45.28431" lon="5.78271">
        <ele>1829.7</ele>
        <time>2026-05-26T18:57:44</time>
      </trkpt>
      <trkpt lat="45.28434" lon="5.78272">
        <ele>1829.7</ele>
        <time>2026-05-26T18:57:46</time>
      </trkpt>
      <trkpt lat="45.28435" lon="5.78273">
        <ele>1829.7</ele>
        <time>2026-05-26T18:57:48</time>
      </trkpt>
      <trkpt lat="45.28436" lon="5.78273">
        <ele>1829.7</ele>
        <time>2026-05-26T18:57:49</time>
      </trkpt>
      <trkpt lat="45.28437" lon="5.78275">
        <ele>1830.7</ele>
        <time>2026-05-26T18:57:51</time>
      </trkpt>
      <trkpt lat="45.28438" lon="5.78276">
        <ele>1830.7</ele>
        <time>2026-05-26T18:57:52</time>
      </trkpt>
      <trkpt lat="45.28438" lon="5.78277">
        <ele>1830.7</ele>
        <time>2026-05-26T18:57:53</time>
      </trkpt>
      <trkpt lat="45.28438" lon="5.78278">
        <ele>1830.7</ele>
        <time>2026-05-26T18:57:54</time>
      </trkpt>
      <trkpt lat="45.28438" lon="5.78278">
        <ele>1830.7</ele>
        <time>2026-05-26T18:57:54</time>
      </trkpt>
      <trkpt lat="45.28437" lon="5.78279">
        <ele>1830.7</ele>
        <time>2026-05-26T18:57:55</time>
      </trkpt>
      <trkpt lat="45.28435" lon="5.78282">
        <ele>1833</ele>
        <time>2026-05-26T18:57:58</time>
      </trkpt>
      <trkpt lat="45.28434" lon="5.78282">
        <ele>1833</ele>
        <time>2026-05-26T18:57:59</time>
      </trkpt>
      <trkpt lat="45.28433" lon="5.78283">
        <ele>1833</ele>
        <time>2026-05-26T18:58:02</time>
      </trkpt>
      <trkpt lat="45.28433" lon="5.78284">
        <ele>1833</ele>
        <time>2026-05-26T18:58:03</time>
      </trkpt>
      <trkpt lat="45.28432" lon="5.78285">
        <ele>1833.3</ele>
        <time>2026-05-26T18:58:04</time>
      </trkpt>
      <trkpt lat="45.28431" lon="5.78286">
        <ele>1833.3</ele>
        <time>2026-05-26T18:58:06</time>
      </trkpt>
      <trkpt lat="45.28428" lon="5.78287">
        <ele>1833.3</ele>
        <time>2026-05-26T18:58:10</time>
      </trkpt>
      <trkpt lat="45.28427" lon="5.78288">
        <ele>1833.6</ele>
        <time>2026-05-26T18:58:12</time>
      </trkpt>
      <trkpt lat="45.28426" lon="5.78288">
        <ele>1833.6</ele>
        <time>2026-05-26T18:58:13</time>
      </trkpt>
      <trkpt lat="45.28425" lon="5.78288">
        <ele>1833.6</ele>
        <time>2026-05-26T18:58:14</time>
      </trkpt>
      <trkpt lat="45.28424" lon="5.78287">
        <ele>1833.6</ele>
        <time>2026-05-26T18:58:16</time>
      </trkpt>
      <trkpt lat="45.28423" lon="5.78288">
        <ele>1833.6</ele>
        <time>2026-05-26T18:58:17</time>
      </trkpt>
      <trkpt lat="45.28423" lon="5.78288">
        <ele>1833.6</ele>
        <time>2026-05-26T18:58:17</time>
      </trkpt>
      <trkpt lat="45.28422" lon="5.78289">
        <ele>1833.5</ele>
        <time>2026-05-26T18:58:19</time>
      </trkpt>
      <trkpt lat="45.28419" lon="5.78292">
        <ele>1833.5</ele>
        <time>2026-05-26T18:58:26</time>
      </trkpt>
      <trkpt lat="45.28418" lon="5.78292">
        <ele>1833.6</ele>
        <time>2026-05-26T18:58:27</time>
      </trkpt>
      <trkpt lat="45.28417" lon="5.78294">
        <ele>1833.6</ele>
        <time>2026-05-26T18:58:29</time>
      </trkpt>
      <trkpt lat="45.28416" lon="5.78295">
        <ele>1833.6</ele>
        <time>2026-05-26T18:58:31</time>
      </trkpt>
      <trkpt lat="45.28415" lon="5.78296">
        <ele>1833.6</ele>
        <time>2026-05-26T18:58:32</time>
      </trkpt>
      <trkpt lat="45.28415" lon="5.78298">
        <ele>1835.5333</ele>
        <time>2026-05-26T18:58:35</time>
      </trkpt>
      <trkpt lat="45.28414" lon="5.783">
        <ele>1835.5333</ele>
        <time>2026-05-26T18:58:37</time>
      </trkpt>
      <trkpt lat="45.28414" lon="5.78301">
        <ele>1835.5333</ele>
        <time>2026-05-26T18:58:38</time>
      </trkpt>
      <trkpt lat="45.28413" lon="5.78303">
        <ele>1835.5333</ele>
        <time>2026-05-26T18:58:41</time>
      </trkpt>
      <trkpt lat="45.28413" lon="5.78305">
        <ele>1838</ele>
        <time>2026-05-26T18:58:43</time>
      </trkpt>
      <trkpt lat="45.28412" lon="5.78305">
        <ele>1838</ele>
        <time>2026-05-26T18:58:44</time>
      </trkpt>
      <trkpt lat="45.28411" lon="5.78305">
        <ele>1838</ele>
        <time>2026-05-26T18:58:45</time>
      </trkpt>
      <trkpt lat="45.2841" lon="5.78306">
        <ele>1838</ele>
        <time>2026-05-26T18:58:47</time>
      </trkpt>
      <trkpt lat="45.28409" lon="5.78306">
        <ele>1838</ele>
        <time>2026-05-26T18:58:48</time>
      </trkpt>
      <trkpt lat="45.28408" lon="5.78308">
        <ele>1838.5</ele>
        <time>2026-05-26T18:58:51</time>
      </trkpt>
      <trkpt lat="45.28407" lon="5.78308">
        <ele>1838.5</ele>
        <time>2026-05-26T18:58:53</time>
      </trkpt>
      <trkpt lat="45.28407" lon="5.78308">
        <ele>1838.5</ele>
        <time>2026-05-26T18:58:54</time>
      </trkpt>
      <trkpt lat="45.28406" lon="5.78309">
        <ele>1838.5</ele>
        <time>2026-05-26T18:58:56</time>
      </trkpt>
      <trkpt lat="45.28405" lon="5.7831">
        <ele>1839.8</ele>
        <time>2026-05-26T18:58:58</time>
      </trkpt>
      <trkpt lat="45.28405" lon="5.78311">
        <ele>1839.8</ele>
        <time>2026-05-26T18:58:59</time>
      </trkpt>
      <trkpt lat="45.28405" lon="5.78313">
        <ele>1839.8</ele>
        <time>2026-05-26T18:59:01</time>
      </trkpt>
      <trkpt lat="45.28404" lon="5.78313">
        <ele>1839.8</ele>
        <time>2026-05-26T18:59:02</time>
      </trkpt>
      <trkpt lat="45.28403" lon="5.78314">
        <ele>1839.8</ele>
        <time>2026-05-26T18:59:04</time>
      </trkpt>
      <trkpt lat="45.28402" lon="5.78315">
        <ele>1839.6</ele>
        <time>2026-05-26T18:59:05</time>
      </trkpt>
      <trkpt lat="45.28401" lon="5.78316">
        <ele>1839.6</ele>
        <time>2026-05-26T18:59:07</time>
      </trkpt>
      <trkpt lat="45.28401" lon="5.78316">
        <ele>1839.6</ele>
        <time>2026-05-26T18:59:07</time>
      </trkpt>
      <trkpt lat="45.284" lon="5.78317">
        <ele>1839.6</ele>
        <time>2026-05-26T18:59:08</time>
      </trkpt>
      <trkpt lat="45.28399" lon="5.78317">
        <ele>1839.6</ele>
        <time>2026-05-26T18:59:09</time>
      </trkpt>
      <trkpt lat="45.28396" lon="5.78317">
        <ele>1841.1</ele>
        <time>2026-05-26T18:59:13</time>
      </trkpt>
      <trkpt lat="45.28395" lon="5.78318">
        <ele>1841.1</ele>
        <time>2026-05-26T18:59:14</time>
      </trkpt>
      <trkpt lat="45.28395" lon="5.78319">
        <ele>1841.1</ele>
        <time>2026-05-26T18:59:16</time>
      </trkpt>
      <trkpt lat="45.28395" lon="5.78319">
        <ele>1841.1</ele>
        <time>2026-05-26T18:59:17</time>
      </trkpt>
      <trkpt lat="45.28394" lon="5.78319">
        <ele>1841.1</ele>
        <time>2026-05-26T18:59:17</time>
      </trkpt>
      <trkpt lat="45.28394" lon="5.78321">
        <ele>1843.5</ele>
        <time>2026-05-26T18:59:21</time>
      </trkpt>
      <trkpt lat="45.28393" lon="5.78322">
        <ele>1843.5</ele>
        <time>2026-05-26T18:59:22</time>
      </trkpt>
      <trkpt lat="45.28393" lon="5.78323">
        <ele>1843.5</ele>
        <time>2026-05-26T18:59:24</time>
      </trkpt>
      <trkpt lat="45.28393" lon="5.78324">
        <ele>1843.5</ele>
        <time>2026-05-26T18:59:25</time>
      </trkpt>
      <trkpt lat="45.28392" lon="5.78324">
        <ele>1843.5</ele>
        <time>2026-05-26T18:59:26</time>
      </trkpt>
      <trkpt lat="45.28392" lon="5.78326">
        <ele>1844.3</ele>
        <time>2026-05-26T18:59:29</time>
      </trkpt>
      <trkpt lat="45.28392" lon="5.78326">
        <ele>1844.3</ele>
        <time>2026-05-26T18:59:31</time>
      </trkpt>
      <trkpt lat="45.28392" lon="5.78326">
        <ele>1844.3</ele>
        <time>2026-05-26T18:59:31</time>
      </trkpt>
      <trkpt lat="45.28392" lon="5.78326">
        <ele>1844.3</ele>
        <time>2026-05-26T18:59:32</time>
      </trkpt>
      <trkpt lat="45.28392" lon="5.78326">
        <ele>1844.3</ele>
        <time>2026-05-26T18:59:33</time>
      </trkpt>
      <trkpt lat="45.28391" lon="5.78326">
        <ele>1844.3</ele>
        <time>2026-05-26T18:59:34</time>
      </trkpt>
      <trkpt lat="45.28391" lon="5.78327">
        <ele>1844.3</ele>
        <time>2026-05-26T18:59:34</time>
      </trkpt>
      <trkpt lat="45.2839" lon="5.78328">
        <ele>1844.9</ele>
        <time>2026-05-26T18:59:37</time>
      </trkpt>
      <trkpt lat="45.2839" lon="5.78329">
        <ele>1844.9</ele>
        <time>2026-05-26T18:59:38</time>
      </trkpt>
      <trkpt lat="45.28389" lon="5.7833">
        <ele>1844.9</ele>
        <time>2026-05-26T18:59:39</time>
      </trkpt>
      <trkpt lat="45.28389" lon="5.7833">
        <ele>1844.9</ele>
        <time>2026-05-26T18:59:40</time>
      </trkpt>
      <trkpt lat="45.28389" lon="5.78331">
        <ele>1844.9</ele>
        <time>2026-05-26T18:59:41</time>
      </trkpt>
      <trkpt lat="45.28389" lon="5.78332">
        <ele>1844.9</ele>
        <time>2026-05-26T18:59:42</time>
      </trkpt>
      <trkpt lat="45.28389" lon="5.78332">
        <ele>1846.6</ele>
        <time>2026-05-26T18:59:43</time>
      </trkpt>
      <trkpt lat="45.28389" lon="5.78333">
        <ele>1846.6</ele>
        <time>2026-05-26T18:59:44</time>
      </trkpt>
      <trkpt lat="45.28389" lon="5.78334">
        <ele>1846.6</ele>
        <time>2026-05-26T18:59:46</time>
      </trkpt>
      <trkpt lat="45.28389" lon="5.78334">
        <ele>1846.6</ele>
        <time>2026-05-26T18:59:46</time>
      </trkpt>
      <trkpt lat="45.28388" lon="5.78334">
        <ele>1846.6</ele>
        <time>2026-05-26T18:59:47</time>
      </trkpt>
      <trkpt lat="45.28387" lon="5.78334">
        <ele>1846.6</ele>
        <time>2026-05-26T18:59:49</time>
      </trkpt>
      <trkpt lat="45.28387" lon="5.78334">
        <ele>1846.6</ele>
        <time>2026-05-26T18:59:50</time>
      </trkpt>
      <trkpt lat="45.28386" lon="5.78335">
        <ele>1848.1</ele>
        <time>2026-05-26T18:59:52</time>
      </trkpt>
      <trkpt lat="45.28385" lon="5.78336">
        <ele>1848.1</ele>
        <time>2026-05-26T18:59:54</time>
      </trkpt>
      <trkpt lat="45.28385" lon="5.78336">
        <ele>1848.1</ele>
        <time>2026-05-26T18:59:55</time>
      </trkpt>
      <trkpt lat="45.28384" lon="5.78336">
        <ele>1848.1</ele>
        <time>2026-05-26T18:59:56</time>
      </trkpt>
      <trkpt lat="45.28383" lon="5.78336">
        <ele>1848.1</ele>
        <time>2026-05-26T18:59:57</time>
      </trkpt>
      <trkpt lat="45.28382" lon="5.78337">
        <ele>1850.1</ele>
        <time>2026-05-26T19:00:00</time>
      </trkpt>
      <trkpt lat="45.28379" lon="5.78339">
        <ele>1850.1</ele>
        <time>2026-05-26T19:00:05</time>
      </trkpt>
      <trkpt lat="45.28378" lon="5.7834">
        <ele>1852.4</ele>
        <time>2026-05-26T19:00:08</time>
      </trkpt>
      <trkpt lat="45.28377" lon="5.78341">
        <ele>1852.4</ele>
        <time>2026-05-26T19:00:11</time>
      </trkpt>
      <trkpt lat="45.28376" lon="5.78341">
        <ele>1852.4</ele>
        <time>2026-05-26T19:00:13</time>
      </trkpt>
      <trkpt lat="45.28374" lon="5.78342">
        <ele>1853.4</ele>
        <time>2026-05-26T19:00:16</time>
      </trkpt>
      <trkpt lat="45.28373" lon="5.78342">
        <ele>1853.4</ele>
        <time>2026-05-26T19:00:17</time>
      </trkpt>
      <trkpt lat="45.28373" lon="5.78342">
        <ele>1853.4</ele>
        <time>2026-05-26T19:00:18</time>
      </trkpt>
      <trkpt lat="45.28373" lon="5.78343">
        <ele>1853.4</ele>
        <time>2026-05-26T19:00:19</time>
      </trkpt>
      <trkpt lat="45.28372" lon="5.78343">
        <ele>1853.4</ele>
        <time>2026-05-26T19:00:19</time>
      </trkpt>
      <trkpt lat="45.28371" lon="5.78343">
        <ele>1855.1</ele>
        <time>2026-05-26T19:00:22</time>
      </trkpt>
      <trkpt lat="45.2837" lon="5.78343">
        <ele>1855.1</ele>
        <time>2026-05-26T19:00:24</time>
      </trkpt>
      <trkpt lat="45.28369" lon="5.78344">
        <ele>1857.2</ele>
        <time>2026-05-26T19:00:29</time>
      </trkpt>
      <trkpt lat="45.28368" lon="5.78344">
        <ele>1857.2</ele>
        <time>2026-05-26T19:00:31</time>
      </trkpt>
      <trkpt lat="45.28368" lon="5.78344">
        <ele>1857.2</ele>
        <time>2026-05-26T19:00:32</time>
      </trkpt>
      <trkpt lat="45.28364" lon="5.78344">
        <ele>1857.8667</ele>
        <time>2026-05-26T19:00:38</time>
      </trkpt>
      <trkpt lat="45.28363" lon="5.78344">
        <ele>1857.8667</ele>
        <time>2026-05-26T19:00:39</time>
      </trkpt>
      <trkpt lat="45.28362" lon="5.78343">
        <ele>1857.8667</ele>
        <time>2026-05-26T19:00:40</time>
      </trkpt>
      <trkpt lat="45.28361" lon="5.78343">
        <ele>1857.8667</ele>
        <time>2026-05-26T19:00:41</time>
      </trkpt>
      <trkpt lat="45.2836" lon="5.78344">
        <ele>1857.8667</ele>
        <time>2026-05-26T19:00:42</time>
      </trkpt>
      <trkpt lat="45.2836" lon="5.78345">
        <ele>1857.8667</ele>
        <time>2026-05-26T19:00:43</time>
      </trkpt>
      <trkpt lat="45.28359" lon="5.78346">
        <ele>1857.8667</ele>
        <time>2026-05-26T19:00:44</time>
      </trkpt>
      <trkpt lat="45.28359" lon="5.78346">
        <ele>1859.3667</ele>
        <time>2026-05-26T19:00:45</time>
      </trkpt>
      <trkpt lat="45.28358" lon="5.78347">
        <ele>1859.3667</ele>
        <time>2026-05-26T19:00:47</time>
      </trkpt>
      <trkpt lat="45.28357" lon="5.78347">
        <ele>1859.3667</ele>
        <time>2026-05-26T19:00:49</time>
      </trkpt>
      <trkpt lat="45.28355" lon="5.78349">
        <ele>1860.5</ele>
        <time>2026-05-26T19:00:53</time>
      </trkpt>
      <trkpt lat="45.28353" lon="5.78349">
        <ele>1860.5</ele>
        <time>2026-05-26T19:00:57</time>
      </trkpt>
      <trkpt lat="45.28353" lon="5.7835">
        <ele>1860.5</ele>
        <time>2026-05-26T19:00:58</time>
      </trkpt>
      <trkpt lat="45.28353" lon="5.7835">
        <ele>1860.5</ele>
        <time>2026-05-26T19:00:58</time>
      </trkpt>
      <trkpt lat="45.28352" lon="5.78351">
        <ele>1860.5</ele>
        <time>2026-05-26T19:01:00</time>
      </trkpt>
      <trkpt lat="45.28351" lon="5.78352">
        <ele>1862.1</ele>
        <time>2026-05-26T19:01:02</time>
      </trkpt>
      <trkpt lat="45.28349" lon="5.78352">
        <ele>1862.1</ele>
        <time>2026-05-26T19:01:05</time>
      </trkpt>
      <trkpt lat="45.28348" lon="5.78352">
        <ele>1862.1</ele>
        <time>2026-05-26T19:01:08</time>
      </trkpt>
      <trkpt lat="45.28347" lon="5.78353">
        <ele>1864.6333</ele>
        <time>2026-05-26T19:01:09</time>
      </trkpt>
      <trkpt lat="45.28347" lon="5.78353">
        <ele>1864.6333</ele>
        <time>2026-05-26T19:01:10</time>
      </trkpt>
      <trkpt lat="45.28347" lon="5.78353">
        <ele>1864.6333</ele>
        <time>2026-05-26T19:01:11</time>
      </trkpt>
      <trkpt lat="45.28346" lon="5.78353">
        <ele>1864.6333</ele>
        <time>2026-05-26T19:01:12</time>
      </trkpt>
      <trkpt lat="45.28345" lon="5.78353">
        <ele>1864.6333</ele>
        <time>2026-05-26T19:01:15</time>
      </trkpt>
      <trkpt lat="45.28344" lon="5.78353">
        <ele>1864.6333</ele>
        <time>2026-05-26T19:01:16</time>
      </trkpt>
      <trkpt lat="45.28344" lon="5.78354">
        <ele>1866.0667</ele>
        <time>2026-05-26T19:01:17</time>
      </trkpt>
      <trkpt lat="45.28343" lon="5.78355">
        <ele>1866.0667</ele>
        <time>2026-05-26T19:01:19</time>
      </trkpt>
      <trkpt lat="45.28342" lon="5.78355">
        <ele>1866.0667</ele>
        <time>2026-05-26T19:01:20</time>
      </trkpt>
      <trkpt lat="45.28342" lon="5.78355">
        <ele>1866.0667</ele>
        <time>2026-05-26T19:01:21</time>
      </trkpt>
      <trkpt lat="45.28341" lon="5.78355">
        <ele>1866.0667</ele>
        <time>2026-05-26T19:01:22</time>
      </trkpt>
      <trkpt lat="45.28341" lon="5.78356">
        <ele>1866.0667</ele>
        <time>2026-05-26T19:01:23</time>
      </trkpt>
      <trkpt lat="45.28341" lon="5.78356">
        <ele>1866.0667</ele>
        <time>2026-05-26T19:01:24</time>
      </trkpt>
      <trkpt lat="45.2834" lon="5.78357">
        <ele>1866.3667</ele>
        <time>2026-05-26T19:01:26</time>
      </trkpt>
      <trkpt lat="45.28338" lon="5.78357">
        <ele>1866.3667</ele>
        <time>2026-05-26T19:01:28</time>
      </trkpt>
      <trkpt lat="45.28338" lon="5.78357">
        <ele>1866.3667</ele>
        <time>2026-05-26T19:01:29</time>
      </trkpt>
      <trkpt lat="45.28335" lon="5.78359">
        <ele>1867.5</ele>
        <time>2026-05-26T19:01:34</time>
      </trkpt>
      <trkpt lat="45.28334" lon="5.78359">
        <ele>1867.5</ele>
        <time>2026-05-26T19:01:36</time>
      </trkpt>
      <trkpt lat="45.28334" lon="5.78359">
        <ele>1867.5</ele>
        <time>2026-05-26T19:01:37</time>
      </trkpt>
      <trkpt lat="45.28332" lon="5.78361">
        <ele>1869.6</ele>
        <time>2026-05-26T19:01:43</time>
      </trkpt>
      <trkpt lat="45.28331" lon="5.78362">
        <ele>1869.6</ele>
        <time>2026-05-26T19:01:46</time>
      </trkpt>
      <trkpt lat="45.28331" lon="5.78362">
        <ele>1869.6</ele>
        <time>2026-05-26T19:01:47</time>
      </trkpt>
      <trkpt lat="45.2833" lon="5.78363">
        <ele>1871.5</ele>
        <time>2026-05-26T19:01:49</time>
      </trkpt>
      <trkpt lat="45.2833" lon="5.78364">
        <ele>1871.5</ele>
        <time>2026-05-26T19:01:51</time>
      </trkpt>
      <trkpt lat="45.28328" lon="5.78365">
        <ele>1871.5</ele>
        <time>2026-05-26T19:01:55</time>
      </trkpt>
      <trkpt lat="45.28328" lon="5.78365">
        <ele>1871.5</ele>
        <time>2026-05-26T19:01:56</time>
      </trkpt>
      <trkpt lat="45.28327" lon="5.78366">
        <ele>1874.1</ele>
        <time>2026-05-26T19:02:00</time>
      </trkpt>
      <trkpt lat="45.28327" lon="5.78366">
        <ele>1874.1</ele>
        <time>2026-05-26T19:02:01</time>
      </trkpt>
      <trkpt lat="45.28326" lon="5.78366">
        <ele>1874.1</ele>
        <time>2026-05-26T19:02:02</time>
      </trkpt>
      <trkpt lat="45.28324" lon="5.78367">
        <ele>1876.8</ele>
        <time>2026-05-26T19:02:05</time>
      </trkpt>
      <trkpt lat="45.28324" lon="5.78367">
        <ele>1876.8</ele>
        <time>2026-05-26T19:02:06</time>
      </trkpt>
      <trkpt lat="45.28321" lon="5.78369">
        <ele>1876.8</ele>
        <time>2026-05-26T19:02:11</time>
      </trkpt>
      <trkpt lat="45.28321" lon="5.78369">
        <ele>1876.8</ele>
        <time>2026-05-26T19:02:12</time>
      </trkpt>
      <trkpt lat="45.28321" lon="5.78369">
        <ele>1877.9</ele>
        <time>2026-05-26T19:02:12</time>
      </trkpt>
      <trkpt lat="45.2832" lon="5.78371">
        <ele>1877.9</ele>
        <time>2026-05-26T19:02:16</time>
      </trkpt>
      <trkpt lat="45.2832" lon="5.78373">
        <ele>1877.9</ele>
        <time>2026-05-26T19:02:18</time>
      </trkpt>
      <trkpt lat="45.28319" lon="5.78373">
        <ele>1877.9</ele>
        <time>2026-05-26T19:02:19</time>
      </trkpt>
      <trkpt lat="45.28316" lon="5.78375">
        <ele>1878.3</ele>
        <time>2026-05-26T19:02:27</time>
      </trkpt>
      <trkpt lat="45.28316" lon="5.78375">
        <ele>1878.3</ele>
        <time>2026-05-26T19:02:27</time>
      </trkpt>
      <trkpt lat="45.28315" lon="5.78375">
        <ele>1880.1</ele>
        <time>2026-05-26T19:02:28</time>
      </trkpt>
      <trkpt lat="45.28315" lon="5.78376">
        <ele>1880.1</ele>
        <time>2026-05-26T19:02:29</time>
      </trkpt>
      <trkpt lat="45.28315" lon="5.78376">
        <ele>1880.1</ele>
        <time>2026-05-26T19:02:30</time>
      </trkpt>
      <trkpt lat="45.28314" lon="5.78376">
        <ele>1880.1</ele>
        <time>2026-05-26T19:02:32</time>
      </trkpt>
      <trkpt lat="45.28314" lon="5.78376">
        <ele>1880.1</ele>
        <time>2026-05-26T19:02:33</time>
      </trkpt>
      <trkpt lat="45.28313" lon="5.78377">
        <ele>1880.1</ele>
        <time>2026-05-26T19:02:35</time>
      </trkpt>
      <trkpt lat="45.28312" lon="5.78377">
        <ele>1881.4</ele>
        <time>2026-05-26T19:02:36</time>
      </trkpt>
      <trkpt lat="45.28311" lon="5.78379">
        <ele>1881.4</ele>
        <time>2026-05-26T19:02:39</time>
      </trkpt>
      <trkpt lat="45.2831" lon="5.7838">
        <ele>1881.4</ele>
        <time>2026-05-26T19:02:42</time>
      </trkpt>
      <trkpt lat="45.2831" lon="5.7838">
        <ele>1881.4</ele>
        <time>2026-05-26T19:02:42</time>
      </trkpt>
      <trkpt lat="45.2831" lon="5.7838">
        <ele>1881.4</ele>
        <time>2026-05-26T19:02:43</time>
      </trkpt>
      <trkpt lat="45.28309" lon="5.7838">
        <ele>1883.4667</ele>
        <time>2026-05-26T19:02:45</time>
      </trkpt>
      <trkpt lat="45.28308" lon="5.7838">
        <ele>1883.4667</ele>
        <time>2026-05-26T19:02:46</time>
      </trkpt>
      <trkpt lat="45.28307" lon="5.7838">
        <ele>1883.4667</ele>
        <time>2026-05-26T19:02:47</time>
      </trkpt>
      <trkpt lat="45.28307" lon="5.7838">
        <ele>1883.4667</ele>
        <time>2026-05-26T19:02:48</time>
      </trkpt>
      <trkpt lat="45.28306" lon="5.7838">
        <ele>1883.4667</ele>
        <time>2026-05-26T19:02:49</time>
      </trkpt>
      <trkpt lat="45.28304" lon="5.78381">
        <ele>1885.5</ele>
        <time>2026-05-26T19:02:53</time>
      </trkpt>
      <trkpt lat="45.28304" lon="5.78381">
        <ele>1885.5</ele>
        <time>2026-05-26T19:02:54</time>
      </trkpt>
      <trkpt lat="45.28301" lon="5.78381">
        <ele>1885.5</ele>
        <time>2026-05-26T19:02:59</time>
      </trkpt>
      <trkpt lat="45.283" lon="5.78381">
        <ele>1886.9</ele>
        <time>2026-05-26T19:03:00</time>
      </trkpt>
      <trkpt lat="45.283" lon="5.78382">
        <ele>1886.9</ele>
        <time>2026-05-26T19:03:02</time>
      </trkpt>
      <trkpt lat="45.28299" lon="5.78382">
        <ele>1886.9</ele>
        <time>2026-05-26T19:03:02</time>
      </trkpt>
      <trkpt lat="45.28299" lon="5.78382">
        <ele>1886.9</ele>
        <time>2026-05-26T19:03:03</time>
      </trkpt>
      <trkpt lat="45.28299" lon="5.78383">
        <ele>1886.9</ele>
        <time>2026-05-26T19:03:04</time>
      </trkpt>
      <trkpt lat="45.28299" lon="5.78384">
        <ele>1886.9</ele>
        <time>2026-05-26T19:03:06</time>
      </trkpt>
      <trkpt lat="45.28298" lon="5.78384">
        <ele>1886.9</ele>
        <time>2026-05-26T19:03:07</time>
      </trkpt>
      <trkpt lat="45.28298" lon="5.78385">
        <ele>1889.1</ele>
        <time>2026-05-26T19:03:10</time>
      </trkpt>
      <trkpt lat="45.28298" lon="5.78386">
        <ele>1889.1</ele>
        <time>2026-05-26T19:03:12</time>
      </trkpt>
      <trkpt lat="45.28297" lon="5.78386">
        <ele>1889.1</ele>
        <time>2026-05-26T19:03:13</time>
      </trkpt>
      <trkpt lat="45.28297" lon="5.78386">
        <ele>1889.1</ele>
        <time>2026-05-26T19:03:13</time>
      </trkpt>
      <trkpt lat="45.28297" lon="5.78386">
        <ele>1889.1</ele>
        <time>2026-05-26T19:03:14</time>
      </trkpt>
      <trkpt lat="45.28296" lon="5.78386">
        <ele>1889.1</ele>
        <time>2026-05-26T19:03:15</time>
      </trkpt>
      <trkpt lat="45.28296" lon="5.78386">
        <ele>1889.1</ele>
        <time>2026-05-26T19:03:16</time>
      </trkpt>
      <trkpt lat="45.28296" lon="5.78387">
        <ele>1890.4</ele>
        <time>2026-05-26T19:03:17</time>
      </trkpt>
      <trkpt lat="45.28296" lon="5.78387">
        <ele>1890.4</ele>
        <time>2026-05-26T19:03:17</time>
      </trkpt>
      <trkpt lat="45.28296" lon="5.78388">
        <ele>1890.4</ele>
        <time>2026-05-26T19:03:18</time>
      </trkpt>
      <trkpt lat="45.28296" lon="5.78389">
        <ele>1890.4</ele>
        <time>2026-05-26T19:03:19</time>
      </trkpt>
      <trkpt lat="45.28296" lon="5.78389">
        <ele>1890.4</ele>
        <time>2026-05-26T19:03:20</time>
      </trkpt>
      <trkpt lat="45.28297" lon="5.7839">
        <ele>1890.4</ele>
        <time>2026-05-26T19:03:22</time>
      </trkpt>
      <trkpt lat="45.28298" lon="5.78391">
        <ele>1891.7</ele>
        <time>2026-05-26T19:03:25</time>
      </trkpt>
      <trkpt lat="45.28298" lon="5.78392">
        <ele>1891.7</ele>
        <time>2026-05-26T19:03:26</time>
      </trkpt>
      <trkpt lat="45.28298" lon="5.78395">
        <ele>1891.7</ele>
        <time>2026-05-26T19:03:29</time>
      </trkpt>
      <trkpt lat="45.28298" lon="5.78397">
        <ele>1891.7</ele>
        <time>2026-05-26T19:03:32</time>
      </trkpt>
      <trkpt lat="45.28298" lon="5.78398">
        <ele>1892.3</ele>
        <time>2026-05-26T19:03:34</time>
      </trkpt>
      <trkpt lat="45.28298" lon="5.78399">
        <ele>1892.3</ele>
        <time>2026-05-26T19:03:35</time>
      </trkpt>
      <trkpt lat="45.28298" lon="5.784">
        <ele>1892.3</ele>
        <time>2026-05-26T19:03:36</time>
      </trkpt>
      <trkpt lat="45.28297" lon="5.784">
        <ele>1892.3</ele>
        <time>2026-05-26T19:03:37</time>
      </trkpt>
      <trkpt lat="45.28297" lon="5.78402">
        <ele>1892.3</ele>
        <time>2026-05-26T19:03:39</time>
      </trkpt>
      <trkpt lat="45.28296" lon="5.78402">
        <ele>1892.3</ele>
        <time>2026-05-26T19:03:40</time>
      </trkpt>
      <trkpt lat="45.28296" lon="5.78402">
        <ele>1892.3</ele>
        <time>2026-05-26T19:03:41</time>
      </trkpt>
      <trkpt lat="45.28296" lon="5.78402">
        <ele>1894.3334</ele>
        <time>2026-05-26T19:03:42</time>
      </trkpt>
      <trkpt lat="45.28296" lon="5.78402">
        <ele>1894.3334</ele>
        <time>2026-05-26T19:03:43</time>
      </trkpt>
      <trkpt lat="45.28295" lon="5.78402">
        <ele>1894.3334</ele>
        <time>2026-05-26T19:03:43</time>
      </trkpt>
      <trkpt lat="45.28295" lon="5.78403">
        <ele>1894.3334</ele>
        <time>2026-05-26T19:03:44</time>
      </trkpt>
      <trkpt lat="45.28295" lon="5.78404">
        <ele>1894.3334</ele>
        <time>2026-05-26T19:03:45</time>
      </trkpt>
      <trkpt lat="45.28295" lon="5.78404">
        <ele>1894.3334</ele>
        <time>2026-05-26T19:03:46</time>
      </trkpt>
      <trkpt lat="45.28296" lon="5.78405">
        <ele>1894.3334</ele>
        <time>2026-05-26T19:03:47</time>
      </trkpt>
      <trkpt lat="45.28296" lon="5.78405">
        <ele>1894.3334</ele>
        <time>2026-05-26T19:03:48</time>
      </trkpt>
      <trkpt lat="45.28296" lon="5.78405">
        <ele>1894.3334</ele>
        <time>2026-05-26T19:03:49</time>
      </trkpt>
      <trkpt lat="45.28297" lon="5.78407">
        <ele>1896.3</ele>
        <time>2026-05-26T19:03:50</time>
      </trkpt>
      <trkpt lat="45.28297" lon="5.78408">
        <ele>1896.3</ele>
        <time>2026-05-26T19:03:52</time>
      </trkpt>
      <trkpt lat="45.28297" lon="5.78409">
        <ele>1896.3</ele>
        <time>2026-05-26T19:03:53</time>
      </trkpt>
      <trkpt lat="45.28297" lon="5.78409">
        <ele>1896.3</ele>
        <time>2026-05-26T19:03:54</time>
      </trkpt>
      <trkpt lat="45.28298" lon="5.78409">
        <ele>1896.3</ele>
        <time>2026-05-26T19:03:56</time>
      </trkpt>
      <trkpt lat="45.28298" lon="5.78409">
        <ele>1896.3</ele>
        <time>2026-05-26T19:03:56</time>
      </trkpt>
      <trkpt lat="45.28299" lon="5.7841">
        <ele>1896.3</ele>
        <time>2026-05-26T19:03:57</time>
      </trkpt>
      <trkpt lat="45.28299" lon="5.78411">
        <ele>1899.7</ele>
        <time>2026-05-26T19:03:58</time>
      </trkpt>
      <trkpt lat="45.28299" lon="5.78412">
        <ele>1899.7</ele>
        <time>2026-05-26T19:03:59</time>
      </trkpt>
      <trkpt lat="45.28298" lon="5.78415">
        <ele>1899.7</ele>
        <time>2026-05-26T19:04:03</time>
      </trkpt>
      <trkpt lat="45.28298" lon="5.78417">
        <ele>1899.7</ele>
        <time>2026-05-26T19:04:05</time>
      </trkpt>
      <trkpt lat="45.28298" lon="5.78417">
        <ele>1899.7</ele>
        <time>2026-05-26T19:04:06</time>
      </trkpt>
      <trkpt lat="45.28299" lon="5.78417">
        <ele>1900</ele>
        <time>2026-05-26T19:04:07</time>
      </trkpt>
      <trkpt lat="45.28299" lon="5.78418">
        <ele>1900</ele>
        <time>2026-05-26T19:04:08</time>
      </trkpt>
      <trkpt lat="45.283" lon="5.78418">
        <ele>1900</ele>
        <time>2026-05-26T19:04:11</time>
      </trkpt>
      <trkpt lat="45.28301" lon="5.7842">
        <ele>1900.9</ele>
        <time>2026-05-26T19:04:15</time>
      </trkpt>
      <trkpt lat="45.28301" lon="5.78421">
        <ele>1900.9</ele>
        <time>2026-05-26T19:04:16</time>
      </trkpt>
      <trkpt lat="45.28301" lon="5.78422">
        <ele>1900.9</ele>
        <time>2026-05-26T19:04:17</time>
      </trkpt>
      <trkpt lat="45.28301" lon="5.78422">
        <ele>1900.9</ele>
        <time>2026-05-26T19:04:18</time>
      </trkpt>
      <trkpt lat="45.28301" lon="5.78423">
        <ele>1900.9</ele>
        <time>2026-05-26T19:04:19</time>
      </trkpt>
      <trkpt lat="45.28301" lon="5.78423">
        <ele>1900.9</ele>
        <time>2026-05-26T19:04:19</time>
      </trkpt>
      <trkpt lat="45.28302" lon="5.78425">
        <ele>1900.9</ele>
        <time>2026-05-26T19:04:21</time>
      </trkpt>
      <trkpt lat="45.28302" lon="5.78427">
        <ele>1902.6</ele>
        <time>2026-05-26T19:04:24</time>
      </trkpt>
      <trkpt lat="45.28302" lon="5.78427">
        <ele>1902.6</ele>
        <time>2026-05-26T19:04:24</time>
      </trkpt>
      <trkpt lat="45.28301" lon="5.78428">
        <ele>1902.6</ele>
        <time>2026-05-26T19:04:25</time>
      </trkpt>
      <trkpt lat="45.28301" lon="5.78428">
        <ele>1902.6</ele>
        <time>2026-05-26T19:04:26</time>
      </trkpt>
      <trkpt lat="45.283" lon="5.78429">
        <ele>1902.6</ele>
        <time>2026-05-26T19:04:28</time>
      </trkpt>
      <trkpt lat="45.283" lon="5.78429">
        <ele>1902.6</ele>
        <time>2026-05-26T19:04:28</time>
      </trkpt>
      <trkpt lat="45.283" lon="5.7843">
        <ele>1902.6</ele>
        <time>2026-05-26T19:04:29</time>
      </trkpt>
      <trkpt lat="45.283" lon="5.78431">
        <ele>1903.5</ele>
        <time>2026-05-26T19:04:30</time>
      </trkpt>
      <trkpt lat="45.283" lon="5.78432">
        <ele>1903.5</ele>
        <time>2026-05-26T19:04:32</time>
      </trkpt>
      <trkpt lat="45.283" lon="5.78433">
        <ele>1903.5</ele>
        <time>2026-05-26T19:04:33</time>
      </trkpt>
      <trkpt lat="45.283" lon="5.78433">
        <ele>1903.5</ele>
        <time>2026-05-26T19:04:33</time>
      </trkpt>
      <trkpt lat="45.283" lon="5.78434">
        <ele>1903.5</ele>
        <time>2026-05-26T19:04:35</time>
      </trkpt>
      <trkpt lat="45.28301" lon="5.78434">
        <ele>1903.5</ele>
        <time>2026-05-26T19:04:36</time>
      </trkpt>
      <trkpt lat="45.28301" lon="5.78433">
        <ele>1903.5</ele>
        <time>2026-05-26T19:04:37</time>
      </trkpt>
      <trkpt lat="45.28301" lon="5.78433">
        <ele>1904.6</ele>
        <time>2026-05-26T19:04:40</time>
      </trkpt>
      <trkpt lat="45.28301" lon="5.78433">
        <ele>1904.6</ele>
        <time>2026-05-26T19:04:50</time>
      </trkpt>
      <trkpt lat="45.28301" lon="5.78433">
        <ele>1904.6</ele>
        <time>2026-05-26T19:04:52</time>
      </trkpt>
      <trkpt lat="45.28301" lon="5.78433">
        <ele>1904.6</ele>
        <time>2026-05-26T19:04:55</time>
      </trkpt>
      <trkpt lat="45.28301" lon="5.78433">
        <ele>1904.6</ele>
        <time>2026-05-26T19:04:56</time>
      </trkpt>
      <trkpt lat="45.28301" lon="5.78433">
        <ele>1904.6</ele>
        <time>2026-05-26T19:04:57</time>
      </trkpt>
      <trkpt lat="45.28302" lon="5.78434">
        <ele>1904.6</ele>
        <time>2026-05-26T19:05:00</time>
      </trkpt>
      <trkpt lat="45.28302" lon="5.78435">
        <ele>1904.6</ele>
        <time>2026-05-26T19:05:01</time>
      </trkpt>
      <trkpt lat="45.28302" lon="5.78435">
        <ele>1904.6</ele>
        <time>2026-05-26T19:05:02</time>
      </trkpt>
      <trkpt lat="45.28302" lon="5.78435">
        <ele>1904.6</ele>
        <time>2026-05-26T19:05:03</time>
      </trkpt>
      <trkpt lat="45.28303" lon="5.78436">
        <ele>1904.6</ele>
        <time>2026-05-26T19:05:03</time>
      </trkpt>
      <trkpt lat="45.28303" lon="5.78437">
        <ele>1904.6</ele>
        <time>2026-05-26T19:05:05</time>
      </trkpt>
      <trkpt lat="45.28306" lon="5.78443">
        <ele>1906.3</ele>
        <time>2026-05-26T19:05:11</time>
      </trkpt>
      <trkpt lat="45.28306" lon="5.78443">
        <ele>1906.3</ele>
        <time>2026-05-26T19:05:12</time>
      </trkpt>
      <trkpt lat="45.28308" lon="5.78446">
        <ele>1906.4333</ele>
        <time>2026-05-26T19:05:15</time>
      </trkpt>
      <trkpt lat="45.28308" lon="5.78447">
        <ele>1906.4333</ele>
        <time>2026-05-26T19:05:16</time>
      </trkpt>
      <trkpt lat="45.28307" lon="5.78447">
        <ele>1906.4333</ele>
        <time>2026-05-26T19:05:17</time>
      </trkpt>
      <trkpt lat="45.28308" lon="5.78447">
        <ele>1906.4333</ele>
        <time>2026-05-26T19:05:18</time>
      </trkpt>
      <trkpt lat="45.28308" lon="5.78448">
        <ele>1906.4333</ele>
        <time>2026-05-26T19:05:18</time>
      </trkpt>
      <trkpt lat="45.28309" lon="5.78448">
        <ele>1906.4333</ele>
        <time>2026-05-26T19:05:19</time>
      </trkpt>
      <trkpt lat="45.28309" lon="5.78449">
        <ele>1906.4333</ele>
        <time>2026-05-26T19:05:20</time>
      </trkpt>
      <trkpt lat="45.2831" lon="5.7845">
        <ele>1906.4333</ele>
        <time>2026-05-26T19:05:21</time>
      </trkpt>
      <trkpt lat="45.2831" lon="5.7845">
        <ele>1907.6666</ele>
        <time>2026-05-26T19:05:21</time>
      </trkpt>
      <trkpt lat="45.2831" lon="5.78452">
        <ele>1907.6666</ele>
        <time>2026-05-26T19:05:23</time>
      </trkpt>
      <trkpt lat="45.28311" lon="5.78453">
        <ele>1907.6666</ele>
        <time>2026-05-26T19:05:25</time>
      </trkpt>
      <trkpt lat="45.28312" lon="5.78456">
        <ele>1908.3</ele>
        <time>2026-05-26T19:05:29</time>
      </trkpt>
      <trkpt lat="45.28313" lon="5.78458">
        <ele>1908.3</ele>
        <time>2026-05-26T19:05:33</time>
      </trkpt>
      <trkpt lat="45.28314" lon="5.7846">
        <ele>1908.3</ele>
        <time>2026-05-26T19:05:35</time>
      </trkpt>
      <trkpt lat="45.28315" lon="5.78462">
        <ele>1910</ele>
        <time>2026-05-26T19:05:39</time>
      </trkpt>
      <trkpt lat="45.28315" lon="5.78464">
        <ele>1910</ele>
        <time>2026-05-26T19:05:40</time>
      </trkpt>
      <trkpt lat="45.28315" lon="5.78466">
        <ele>1910</ele>
        <time>2026-05-26T19:05:42</time>
      </trkpt>
      <trkpt lat="45.28317" lon="5.78472">
        <ele>1912.2</ele>
        <time>2026-05-26T19:05:49</time>
      </trkpt>
      <trkpt lat="45.28317" lon="5.78472">
        <ele>1912.2</ele>
        <time>2026-05-26T19:05:49</time>
      </trkpt>
      <trkpt lat="45.28318" lon="5.78473">
        <ele>1912.2</ele>
        <time>2026-05-26T19:05:51</time>
      </trkpt>
      <trkpt lat="45.2832" lon="5.78477">
        <ele>1913.9</ele>
        <time>2026-05-26T19:05:57</time>
      </trkpt>
      <trkpt lat="45.28325" lon="5.78483">
        <ele>1915.3</ele>
        <time>2026-05-26T19:06:06</time>
      </trkpt>
      <trkpt lat="45.28325" lon="5.78484">
        <ele>1916.4</ele>
        <time>2026-05-26T19:06:08</time>
      </trkpt>
      <trkpt lat="45.28329" lon="5.7849">
        <ele>1917.2333</ele>
        <time>2026-05-26T19:06:17</time>
      </trkpt>
      <trkpt lat="45.28329" lon="5.78492">
        <ele>1917.2333</ele>
        <time>2026-05-26T19:06:19</time>
      </trkpt>
      <trkpt lat="45.2833" lon="5.78495">
        <ele>1917.2333</ele>
        <time>2026-05-26T19:06:23</time>
      </trkpt>
      <trkpt lat="45.28332" lon="5.78499">
        <ele>1918.2</ele>
        <time>2026-05-26T19:06:28</time>
      </trkpt>
      <trkpt lat="45.28332" lon="5.78499">
        <ele>1918.2</ele>
        <time>2026-05-26T19:06:29</time>
      </trkpt>
      <trkpt lat="45.28333" lon="5.785">
        <ele>1918.2</ele>
        <time>2026-05-26T19:06:31</time>
      </trkpt>
      <trkpt lat="45.28334" lon="5.78502">
        <ele>1919.7667</ele>
        <time>2026-05-26T19:06:34</time>
      </trkpt>
      <trkpt lat="45.28335" lon="5.78504">
        <ele>1919.7667</ele>
        <time>2026-05-26T19:06:36</time>
      </trkpt>
      <trkpt lat="45.28347" lon="5.78519">
        <ele>1922.7</ele>
        <time>2026-05-26T19:07:01</time>
      </trkpt>
      <trkpt lat="45.28347" lon="5.7852">
        <ele>1922.7</ele>
        <time>2026-05-26T19:07:02</time>
      </trkpt>
      <trkpt lat="45.28351" lon="5.78524">
        <ele>1924.4</ele>
        <time>2026-05-26T19:07:09</time>
      </trkpt>
      <trkpt lat="45.28352" lon="5.78527">
        <ele>1926</ele>
        <time>2026-05-26T19:07:13</time>
      </trkpt>
      <trkpt lat="45.28353" lon="5.78529">
        <ele>1926</ele>
        <time>2026-05-26T19:07:15</time>
      </trkpt>
      <trkpt lat="45.28354" lon="5.7853">
        <ele>1926</ele>
        <time>2026-05-26T19:07:17</time>
      </trkpt>
      <trkpt lat="45.28357" lon="5.78536">
        <ele>1926.1333</ele>
        <time>2026-05-26T19:07:24</time>
      </trkpt>
      <trkpt lat="45.28358" lon="5.78537">
        <ele>1926.1333</ele>
        <time>2026-05-26T19:07:25</time>
      </trkpt>
      <trkpt lat="45.28358" lon="5.78538">
        <ele>1926.1333</ele>
        <time>2026-05-26T19:07:26</time>
      </trkpt>
      <trkpt lat="45.28358" lon="5.78538">
        <ele>1926.1333</ele>
        <time>2026-05-26T19:07:27</time>
      </trkpt>
      <trkpt lat="45.28358" lon="5.78539">
        <ele>1926.1333</ele>
        <time>2026-05-26T19:07:27</time>
      </trkpt>
      <trkpt lat="45.28359" lon="5.78539">
        <ele>1927.3</ele>
        <time>2026-05-26T19:07:29</time>
      </trkpt>
      <trkpt lat="45.2836" lon="5.7854">
        <ele>1927.3</ele>
        <time>2026-05-26T19:07:30</time>
      </trkpt>
      <trkpt lat="45.28363" lon="5.78545">
        <ele>1928.2</ele>
        <time>2026-05-26T19:07:38</time>
      </trkpt>
      <trkpt lat="45.28363" lon="5.78546">
        <ele>1928.2</ele>
        <time>2026-05-26T19:07:39</time>
      </trkpt>
      <trkpt lat="45.28363" lon="5.78546">
        <ele>1928.2</ele>
        <time>2026-05-26T19:07:40</time>
      </trkpt>
      <trkpt lat="45.28364" lon="5.78546">
        <ele>1928.2</ele>
        <time>2026-05-26T19:07:41</time>
      </trkpt>
      <trkpt lat="45.28364" lon="5.78547">
        <ele>1928.2</ele>
        <time>2026-05-26T19:07:42</time>
      </trkpt>
      <trkpt lat="45.28365" lon="5.78548">
        <ele>1929.7333</ele>
        <time>2026-05-26T19:07:43</time>
      </trkpt>
      <trkpt lat="45.28365" lon="5.7855">
        <ele>1929.7333</ele>
        <time>2026-05-26T19:07:45</time>
      </trkpt>
      <trkpt lat="45.28367" lon="5.78553">
        <ele>1929.7333</ele>
        <time>2026-05-26T19:07:48</time>
      </trkpt>
      <trkpt lat="45.28367" lon="5.78554">
        <ele>1929.7333</ele>
        <time>2026-05-26T19:07:50</time>
      </trkpt>
      <trkpt lat="45.28369" lon="5.78556">
        <ele>1930.9</ele>
        <time>2026-05-26T19:07:53</time>
      </trkpt>
      <trkpt lat="45.28371" lon="5.78557">
        <ele>1930.9</ele>
        <time>2026-05-26T19:07:56</time>
      </trkpt>
      <trkpt lat="45.28371" lon="5.78558">
        <ele>1930.9</ele>
        <time>2026-05-26T19:07:57</time>
      </trkpt>
      <trkpt lat="45.28371" lon="5.78557">
        <ele>1930.9</ele>
        <time>2026-05-26T19:07:58</time>
      </trkpt>
      <trkpt lat="45.28371" lon="5.78557">
        <ele>1931.3</ele>
        <time>2026-05-26T19:07:58</time>
      </trkpt>
      <trkpt lat="45.28371" lon="5.78557">
        <ele>1931.3</ele>
        <time>2026-05-26T19:07:59</time>
      </trkpt>
      <trkpt lat="45.28371" lon="5.78557">
        <ele>1931.3</ele>
        <time>2026-05-26T19:08:00</time>
      </trkpt>
      <trkpt lat="45.28372" lon="5.78557">
        <ele>1931.3</ele>
        <time>2026-05-26T19:08:00</time>
      </trkpt>
      <trkpt lat="45.28372" lon="5.78557">
        <ele>1931.3</ele>
        <time>2026-05-26T19:08:01</time>
      </trkpt>
      <trkpt lat="45.28372" lon="5.78557">
        <ele>1931.3</ele>
        <time>2026-05-26T19:08:01</time>
      </trkpt>
      <trkpt lat="45.28373" lon="5.78558">
        <ele>1931.3</ele>
        <time>2026-05-26T19:08:03</time>
      </trkpt>
      <trkpt lat="45.28373" lon="5.78559">
        <ele>1932.9</ele>
        <time>2026-05-26T19:08:05</time>
      </trkpt>
      <trkpt lat="45.28375" lon="5.7856">
        <ele>1932.9</ele>
        <time>2026-05-26T19:08:08</time>
      </trkpt>
      <trkpt lat="45.28375" lon="5.78559">
        <ele>1932.9</ele>
        <time>2026-05-26T19:08:09</time>
      </trkpt>
      <trkpt lat="45.28375" lon="5.78559">
        <ele>1932.9</ele>
        <time>2026-05-26T19:08:10</time>
      </trkpt>
      <trkpt lat="45.28375" lon="5.78559">
        <ele>1932.9</ele>
        <time>2026-05-26T19:08:11</time>
      </trkpt>
      <trkpt lat="45.28375" lon="5.78559">
        <ele>1932.9</ele>
        <time>2026-05-26T19:08:12</time>
      </trkpt>
      <trkpt lat="45.28374" lon="5.78559">
        <ele>1933.8</ele>
        <time>2026-05-26T19:08:21</time>
      </trkpt>
      <trkpt lat="45.28374" lon="5.78559">
        <ele>1933.8</ele>
        <time>2026-05-26T19:08:21</time>
      </trkpt>
      <trkpt lat="45.28374" lon="5.78559">
        <ele>1934.2</ele>
        <time>2026-05-26T19:08:23</time>
      </trkpt>
      <trkpt lat="45.28374" lon="5.78559">
        <ele>1934.2</ele>
        <time>2026-05-26T19:08:24</time>
      </trkpt>
      <trkpt lat="45.28372" lon="5.78563">
        <ele>1934.2</ele>
        <time>2026-05-26T19:08:27</time>
      </trkpt>
      <trkpt lat="45.28371" lon="5.78564">
        <ele>1934.2</ele>
        <time>2026-05-26T19:08:28</time>
      </trkpt>
      <trkpt lat="45.28368" lon="5.78567">
        <ele>1934.2</ele>
        <time>2026-05-26T19:08:32</time>
      </trkpt>
      <trkpt lat="45.28367" lon="5.78568">
        <ele>1934.2</ele>
        <time>2026-05-26T19:08:33</time>
      </trkpt>
      <trkpt lat="45.28367" lon="5.78568">
        <ele>1934.2</ele>
        <time>2026-05-26T19:08:34</time>
      </trkpt>
      <trkpt lat="45.28363" lon="5.78572">
        <ele>1934.5</ele>
        <time>2026-05-26T19:08:44</time>
      </trkpt>
      <trkpt lat="45.28363" lon="5.78571">
        <ele>1938.2</ele>
        <time>2026-05-26T19:08:52</time>
      </trkpt>
      <trkpt lat="45.28363" lon="5.78571">
        <ele>1938.2</ele>
        <time>2026-05-26T19:08:53</time>
      </trkpt>
      <trkpt lat="45.28363" lon="5.78571">
        <ele>1938.5</ele>
        <time>2026-05-26T19:08:58</time>
      </trkpt>
      <trkpt lat="45.28363" lon="5.78571">
        <ele>1938.5</ele>
        <time>2026-05-26T19:08:59</time>
      </trkpt>
      <trkpt lat="45.28363" lon="5.78571">
        <ele>1938.5</ele>
        <time>2026-05-26T19:09:28</time>
      </trkpt>
      <trkpt lat="45.28364" lon="5.78571">
        <ele>1938.5</ele>
        <time>2026-05-26T19:09:28</time>
      </trkpt>
      <trkpt lat="45.28364" lon="5.78571">
        <ele>1938.5</ele>
        <time>2026-05-26T19:09:29</time>
      </trkpt>
      <trkpt lat="45.28364" lon="5.78571">
        <ele>1938.5</ele>
        <time>2026-05-26T19:09:30</time>
      </trkpt>
      <trkpt lat="45.28365" lon="5.7857">
        <ele>1938.5</ele>
        <time>2026-05-26T19:09:32</time>
      </trkpt>
      <trkpt lat="45.28366" lon="5.78569">
        <ele>1938.5</ele>
        <time>2026-05-26T19:09:33</time>
      </trkpt>
      <trkpt lat="45.28366" lon="5.78569">
        <ele>1938.5</ele>
        <time>2026-05-26T19:09:34</time>
      </trkpt>
      <trkpt lat="45.28367" lon="5.78567">
        <ele>1938.5</ele>
        <time>2026-05-26T19:09:36</time>
      </trkpt>
      <trkpt lat="45.28367" lon="5.78567">
        <ele>1938.5</ele>
        <time>2026-05-26T19:09:37</time>
      </trkpt>
      <trkpt lat="45.28367" lon="5.78567">
        <ele>1938.5</ele>
        <time>2026-05-26T19:09:37</time>
      </trkpt>
      <trkpt lat="45.28367" lon="5.78567">
        <ele>1938.5</ele>
        <time>2026-05-26T19:09:38</time>
      </trkpt>
      <trkpt lat="45.28367" lon="5.78567">
        <ele>1938.5</ele>
        <time>2026-05-26T19:09:39</time>
      </trkpt>
      <trkpt lat="45.28367" lon="5.78566">
        <ele>1938.3</ele>
        <time>2026-05-26T19:09:40</time>
      </trkpt>
      <trkpt lat="45.28367" lon="5.78566">
        <ele>1938.3</ele>
        <time>2026-05-26T19:09:41</time>
      </trkpt>
      <trkpt lat="45.28367" lon="5.78566">
        <ele>1938.3</ele>
        <time>2026-05-26T19:09:42</time>
      </trkpt>
      <trkpt lat="45.28367" lon="5.78566">
        <ele>1938.3</ele>
        <time>2026-05-26T19:09:43</time>
      </trkpt>
    </trkseg>
  </trk>
</gpx>